[[{"header":{"parameterUnit":"m.s-1","parameterCategory":1,"la1":30.6,"la2":28.766,"lo1":-90.7593,"lo2":-88.6598,"dy":0.0162,"dx":0.0183,"nx":116,"ny":114,"refTime":"2024-03-16T06:00:00:Z","depth":0,"parameterNumber":2,"parameterNumberName":"U-component_of_WINDS"},"data":[0.0,0.0,0.0,0.0,0.0,0.0,0.0,0.0,0.0,0.0,0.0,0.0,0.0,0.0,0.0,0.0,0.0,0.0,0.0,0.0,0.0,0.0,0.0,0.0,0.0,0.0,0.0,0.0,0.0,0.0,0.0,0.0,0.0,0.0,0.0,0.0,0.0,0.0,0.0,0.0,0.0,0.0,0.0,0.0,0.0,0.0,0.0,0.0,0.0,0.0,0.0,0.0,0.0,0.0,0.0,0.0,0.0,0.0,0.0,0.0,0.0,0.0,0.0,0.0,0.0,0.0,0.0,0.0,0.0,0.0,0.0,0.0,0.0,0.0,0.0,0.0,0.0,0.0,0.0,0.0,0.0,0.0,0.0,0.0,0.0,0.0,0.0,0.0,0.0,0.0,0.0,0.0,0.0,0.0,0.0,0.0,0.0,0.0,0.0,0.0,0.0,0.0,0.0,0.0,0.0,0.0,0.0,0.0,0.0,0.0,0.0,0.0,0.0,0.0,0.0,0.0,0.0,0.0,0.0,0.0,0.0,0.0,0.0,0.0,0.0,0.0,0.0,0.0,0.0,0.0,0.0,0.0,0.0,0.0,0.0,0.0,0.0,0.0,0.0,0.0,0.0,0.0,0.0,0.0,0.0,0.0,0.0,0.0,0.0,0.0,0.0,0.0,0.0,0.0,0.0,0.0,0.0,0.0,0.0,0.0,0.0,0.0,0.0,0.0,0.0,0.0,0.0,0.0,0.0,0.0,0.0,0.0,0.0,0.0,0.0,0.0,0.0,0.0,0.0,0.0,0.0,0.0,0.0,0.0,0.0,0.0,0.0,0.0,0.0,0.0,0.0,0.0,0.0,0.0,0.0,0.0,0.0,0.0,0.0,0.0,0.0,0.0,0.0,0.0,0.0,0.0,0.0,0.0,0.0,0.0,0.0,0.0,0.0,0.0,0.0,0.0,0.0,0.0,0.0,0.0,0.0,0.0,0.0,0.0,0.0,0.0,0.0,0.0,0.0,0.0,0.0,0.0,0.0,0.0,0.0,0.0,0.0,0.0,0.0,0.0,0.0,0.0,0.0,0.0,0.0,0.0,0.0,0.0,0.0,0.0,0.0,0.0,0.0,0.0,0.0,0.0,0.0,0.0,0.0,0.0,0.0,0.0,0.0,0.0,0.0,0.0,0.0,0.0,0.0,0.0,0.0,0.0,0.0,0.0,0.0,0.0,0.0,0.0,0.0,0.0,0.0,0.0,0.0,0.0,0.0,0.0,0.0,0.0,0.0,0.0,0.0,0.0,0.0,0.0,0.0,0.0,0.0,0.0,0.0,0.0,0.0,0.0,0.0,0.0,0.0,0.0,0.0,0.0,0.0,0.0,0.0,0.0,0.0,0.0,0.0,0.0,0.0,0.0,0.0,0.0,0.0,0.0,0.0,0.0,0.0,0.0,0.0,0.0,0.0,0.0,0.0,0.0,0.0,0.0,0.0,0.0,0.0,0.0,0.0,0.0,0.0,0.0,0.0,0.0,0.0,0.0,0.0,0.0,0.0,0.0,0.0,0.0,0.0,0.0,0.0,0.0,0.0,0.0,0.0,0.0,0.0,0.0,0.0,0.0,0.0,0.0,0.0,0.0,0.0,0.0,0.0,0.0,0.0,0.0,0.0,0.0,0.0,0.0,0.0,0.0,0.0,0.0,0.0,0.0,0.0,0.0,0.0,0.0,0.0,0.0,0.0,0.0,0.0,0.0,0.0,0.0,0.0,0.0,0.0,0.0,0.0,0.0,0.0,0.0,0.0,0.0,0.0,0.0,0.0,0.0,0.0,0.0,0.0,0.0,0.0,0.0,0.0,0.0,0.0,0.0,0.0,0.0,0.0,0.0,0.0,0.0,0.0,0.0,0.0,0.0,0.0,0.0,0.0,0.0,0.0,0.0,0.0,0.0,0.0,0.0,0.0,0.0,0.0,0.0,0.0,0.0,0.0,0.0,0.0,0.0,0.0,0.0,0.0,0.0,0.0,0.0,0.0,0.0,0.0,0.0,0.0,0.0,0.0,0.0,0.0,0.0,0.0,0.0,0.0,0.0,0.0,0.0,0.0,0.0,0.0,0.0,0.0,0.0,0.0,0.0,0.0,0.0,0.0,0.0,0.0,0.0,0.0,0.0,0.0,0.0,0.0,0.0,0.0,0.0,0.0,0.0,0.0,0.0,0.0,0.0,0.0,0.0,0.0,0.0,0.0,0.0,0.0,0.0,0.0,0.0,0.0,0.0,0.0,0.0,0.0,0.0,0.0,0.0,0.0,0.0,0.0,0.0,0.0,0.0,0.0,0.0,0.0,0.0,0.0,0.0,0.0,0.0,0.0,0.0,0.0,0.0,0.0,0.0,0.0,0.0,0.0,0.0,0.0,0.0,0.0,0.0,0.0,0.0,0.0,0.0,0.0,0.0,0.0,0.0,0.0,0.0,0.0,0.0,0.0,0.0,0.0,0.0,0.0,0.0,0.0,0.0,0.0,0.0,0.0,0.0,0.0,0.0,0.0,0.0,0.0,0.0,0.0,0.0,0.0,0.0,0.0,0.0,0.0,0.0,0.0,0.0,0.0,0.0,0.0,0.0,0.0,0.0,0.0,0.0,0.0,0.0,0.0,0.0,0.0,0.0,0.0,0.0,0.0,0.0,0.0,0.0,0.0,0.0,0.0,0.0,0.0,0.0,0.0,0.0,0.0,0.0,0.0,0.0,0.0,0.0,0.0,0.0,0.0,0.0,0.0,0.0,0.0,0.0,0.0,0.0,0.0,0.0,0.0,0.0,0.0,0.0,0.0,0.0,0.0,0.0,0.0,0.0,0.0,0.0,0.0,0.0,0.0,0.0,0.0,0.0,0.0,0.0,0.0,0.0,0.0,0.0,0.0,0.0,0.0,0.0,0.0,0.0,0.0,0.0,0.0,0.0,0.0,0.0,0.0,0.0,0.0,0.0,0.0,0.0,0.0,0.0,0.0,0.0,0.0,0.0,0.0,0.0,0.0,0.0,0.0,0.0,0.0,0.0,0.0,0.0,0.0,0.0,0.0,0.0,0.0,0.0,0.0,0.0,0.0,0.0,0.0,0.0,0.0,0.0,0.0,0.0,0.0,0.0,0.0,0.0,0.0,0.0,0.0,0.0,0.0,0.0,0.0,0.0,0.0,0.0,0.0,0.0,0.0,0.0,0.0,0.0,0.0,0.0,0.0,0.0,0.0,0.0,0.0,0.0,0.0,0.0,0.0,0.0,0.0,0.0,0.0,0.0,0.0,0.0,0.0,0.0,0.0,0.0,0.0,0.0,0.0,0.0,0.0,0.0,0.0,0.0,0.0,0.0,0.0,0.0,0.0,0.0,0.0,0.0,0.0,0.0,0.0,0.0,0.0,0.0,0.0,0.0,0.0,0.0,0.0,0.0,0.0,0.0,0.0,0.0,0.0,0.0,0.0,0.0,0.0,0.0,0.0,0.0,0.0,0.0,0.0,0.0,0.0,0.0,0.0,0.0,0.0,0.0,0.0,0.0,0.0,0.0,0.0,0.0,0.0,0.0,0.0,0.0,0.0,0.0,0.0,0.0,0.0,0.0,0.0,0.0,0.0,0.0,0.0,0.0,0.0,0.0,0.0,0.0,0.0,0.0,0.0,0.0,0.0,0.0,0.0,0.0,0.0,0.0,0.0,0.0,0.0,0.0,0.0,0.0,0.0,0.0,0.0,0.0,0.0,0.0,0.0,0.0,0.0,0.0,0.0,0.0,0.0,0.0,0.0,0.0,0.0,0.0,0.0,0.0,0.0,0.0,0.0,0.0,0.0,0.0,0.0,0.0,0.0,0.0,0.0,0.0,0.0,0.0,0.0,0.0,0.0,0.0,0.0,0.0,0.0,0.0,0.0,0.0,0.0,0.0,0.0,0.0,0.0,0.0,0.0,0.0,0.0,0.0,0.0,0.0,0.0,0.0,0.0,0.0,0.0,0.0,0.0,0.0,0.0,0.0,0.0,0.0,0.0,0.0,0.0,0.0,0.0,0.0,0.0,0.0,0.0,0.0,0.0,0.0,0.0,0.0,0.0,0.0,0.0,0.0,0.0,0.0,0.0,0.0,0.0,0.0,0.0,0.0,0.0,0.0,0.0,0.0,0.0,0.0,0.0,0.0,0.0,0.0,0.0,0.0,0.0,0.0,0.0,0.0,0.0,0.0,0.0,0.0,0.0,0.0,0.0,0.0,0.0,0.0,0.0,0.0,0.0,0.0,0.0,0.0,0.0,0.0,0.0,0.0,0.0,0.0,0.0,0.0,0.0,0.0,0.0,0.0,0.0,0.0,0.0,0.0,0.0,0.0,0.0,0.0,0.0,0.0,0.0,0.0,0.0,0.0,0.0,0.0,0.0,0.0,0.0,0.0,0.0,0.0,0.0,0.0,0.0,0.0,0.0,0.0,0.0,0.0,0.0,0.0,0.0,0.0,0.0,0.0,0.0,0.0,0.0,0.0,0.0,0.0,0.0,0.0,0.0,0.0,0.0,0.0,0.0,0.0,0.0,0.0,0.0,0.0,0.0,0.0,0.0,0.0,0.0,0.0,0.0,0.0,0.0,0.0,0.0,0.0,0.0,0.0,0.0,0.0,0.0,0.0,0.0,0.0,0.0,0.0,0.0,0.0,0.0,0.0,0.0,0.0,0.0,0.0,0.0,0.0,0.0,0.0,0.0,0.0,0.0,0.0,0.0,0.0,0.0,0.0,0.0,0.0,0.0,0.0,0.0,0.0,0.0,0.0,0.0,0.0,0.0,0.0,0.0,0.0,0.0,0.0,0.0,0.0,0.0,0.0,0.0,0.0,0.0,0.0,0.0,0.0,0.0,0.0,0.0,0.0,0.0,0.0,0.0,0.0,0.0,0.0,0.0,0.0,0.0,0.0,0.0,0.0,0.0,0.0,0.0,0.0,0.0,0.0,0.0,0.0,0.0,0.0,0.0,0.0,0.0,0.0,0.0,0.0,0.0,0.0,0.0,0.0,0.0,0.0,0.0,0.0,0.0,0.0,0.0,0.0,0.0,0.0,0.0,0.0,0.0,0.0,0.0,0.0,0.0,0.0,0.0,0.0,0.0,0.0,0.0,0.0,0.0,0.0,0.0,0.0,0.0,0.0,0.0,0.0,0.0,0.0,0.0,0.0,0.0,0.0,0.0,0.0,0.0,0.0,0.0,0.0,0.0,0.0,0.0,0.0,0.0,0.0,0.0,0.0,0.0,0.0,0.0,0.0,0.0,0.0,0.0,0.0,0.0,0.0,0.0,0.0,0.0,0.0,0.0,0.0,0.0,0.0,0.0,0.0,0.0,0.0,0.0,0.0,0.0,0.0,0.0,0.0,0.0,0.0,0.0,0.0,0.0,0.0,0.0,0.0,0.0,0.0,0.0,0.0,0.0,0.0,0.0,0.0,0.0,0.0,0.0,0.0,0.0,0.0,0.0,0.0,0.0,0.0,0.0,0.0,0.0,0.0,0.0,0.0,0.0,0.0,0.0,0.0,0.0,0.0,0.0,0.0,0.0,0.0,0.0,0.0,0.0,0.0,0.0,0.0,0.0,0.0,0.0,0.0,0.0,0.0,0.0,0.0,0.0,0.0,0.0,0.0,0.0,0.0,0.0,0.0,0.0,0.0,0.0,0.0,0.0,0.0,0.0,0.0,0.0,0.0,0.0,0.0,0.0,0.0,0.0,0.0,0.0,0.0,0.0,0.0,0.0,0.0,0.0,0.0,0.0,0.0,0.0,0.0,0.0,0.0,0.0,0.0,0.0,0.0,0.0,0.0,0.0,0.0,0.0,0.0,0.0,0.0,0.0,0.0,0.0,0.0,0.0,0.0,0.0,0.0,0.0,0.0,0.0,0.0,0.0,0.0,0.0,0.0,0.0,0.0,0.0,0.0,0.0,0.0,0.0,0.0,0.0,0.0,0.0,0.0,0.0,0.0,0.0,0.0,0.0,0.0,0.0,0.0,0.0,0.0,0.0,0.0,0.0,0.0,0.0,0.0,0.0,0.0,0.0,0.0,0.0,0.0,0.0,0.0,0.0,0.0,0.0,0.0,0.0,0.0,2.6677,2.2047,0.0,0.0,0.0,0.0,0.0,0.0,0.0,0.0,0.0,0.0,0.0,0.0,0.0,0.0,0.0,0.0,0.0,0.0,0.0,0.0,0.0,0.0,0.0,0.0,0.0,0.0,1.5298,1.492,1.4701,1.4621,1.4471,1.4368,1.4549,1.4494,1.4216,1.4616,1.4836,1.4875,1.7436,2.1033,2.557,2.4454,2.1159,1.6025,0.0,0.0,0.0,0.0,0.0,0.0,0.0,0.0,0.0,0.0,0.0,0.0,0.0,0.0,0.0,0.0,0.0,0.0,0.0,0.0,0.0,0.0,0.0,0.0,0.0,0.0,0.0,0.0,0.0,0.0,0.0,0.0,0.0,0.0,0.0,0.0,0.0,0.0,0.0,0.0,0.0,0.0,0.0,0.0,0.0,0.0,0.0,0.0,0.0,0.0,0.0,0.0,0.0,0.0,0.0,0.0,0.0,0.0,0.0,0.0,0.0,0.0,0.0,0.0,0.0,0.0,0.0,0.0,0.0,0.0,3.0522,2.7541,0.0,0.0,0.0,0.0,0.0,0.0,0.0,0.0,0.0,0.0,0.0,0.0,0.0,0.0,0.0,0.0,0.0,0.0,0.0,0.0,0.0,0.0,0.0,1.5612,1.5471,1.6192,1.5467,1.4953,1.4887,1.4666,1.4477,1.4387,1.4798,1.4849,1.4405,1.5131,1.5922,1.6783,2.2281,2.7801,3.3314,3.5652,3.1792,2.2797,1.8125,0.0,0.0,0.0,0.0,0.0,0.0,0.0,0.0,0.0,0.0,0.0,0.0,0.0,0.0,0.0,0.0,0.0,0.0,0.0,0.0,0.0,0.0,0.0,0.0,0.0,0.0,0.0,0.0,0.0,0.0,0.0,0.0,0.0,0.0,0.0,0.0,0.0,0.0,0.0,0.0,0.0,0.0,0.0,0.0,0.0,0.0,0.0,0.0,0.0,0.0,0.0,0.0,0.0,0.0,0.0,0.0,0.0,0.0,0.0,0.0,0.0,0.0,0.0,4.3558,4.3943,4.3483,4.3561,4.3694,4.35,3.6896,3.5799,3.8094,2.9663,0.0,0.0,0.0,0.0,0.0,0.0,0.0,0.0,0.0,0.0,0.0,0.0,0.0,0.0,0.0,0.0,0.0,0.0,0.0,0.0,0.0,1.5176,1.54,1.6073,1.532,1.5312,1.6418,1.5083,1.4491,1.5036,1.5127,1.5172,1.5139,1.6159,1.8389,2.1917,3.2438,3.9081,4.1985,4.3681,4.288,3.9812,3.2056,2.6343,2.2411,0.0,0.0,0.0,0.0,0.0,0.0,0.0,0.0,0.0,0.0,0.0,0.0,0.0,0.0,0.0,0.0,0.0,0.0,0.0,0.0,0.0,0.0,0.0,0.0,0.0,0.0,0.0,0.0,0.0,0.0,0.0,0.0,0.0,0.0,0.0,0.0,0.0,0.0,0.0,0.0,0.0,2.3319,2.6236,0.0,0.0,0.0,0.0,0.0,0.0,0.0,0.0,0.0,0.0,0.0,0.0,0.0,4.1331,4.6463,4.951,5.2221,5.4682,5.778,5.8412,5.6928,5.6928,5.7774,5.8812,5.1606,0.0,4.2909,3.8631,0.0,0.0,0.0,0.0,0.0,0.0,0.0,0.0,0.0,0.0,0.0,0.0,0.0,0.0,0.0,0.0,0.0,0.0,0.0,0.0,0.0,1.8903,2.1339,2.2092,2.6377,2.7052,2.2428,2.2298,2.0427,1.5999,1.5349,1.536,1.5962,1.8705,2.4661,3.3834,4.2537,4.8713,5.2422,5.4436,5.4759,5.3439,4.8886,4.0328,2.9173,2.7453,0.0,0.0,0.0,0.0,0.0,0.0,0.0,0.0,0.0,0.0,0.0,0.0,0.0,0.0,0.0,0.0,0.0,0.0,0.0,0.0,0.0,0.0,0.0,0.0,0.0,0.0,0.0,0.0,0.0,0.0,0.0,0.0,0.0,0.0,0.0,0.0,0.0,0.0,0.0,2.4484,2.9752,3.1418,3.2976,3.2684,0.0,0.0,0.0,0.0,0.0,0.0,0.0,0.0,0.0,4.3759,4.6703,5.0719,5.5976,5.9342,6.155,6.2704,6.5166,6.5705,6.4512,6.3974,6.4166,6.4666,6.0545,5.6721,5.2927,4.5854,4.1896,3.9737,0.0,0.0,0.0,0.0,2.9787,3.0924,0.0,0.0,0.0,0.0,0.0,0.0,0.0,0.0,0.0,0.0,0.0,0.0,1.8744,2.4799,2.9349,3.0746,3.6491,3.6609,2.8361,2.7815,2.4447,1.6887,1.5971,1.6018,1.6801,2.3329,3.271,4.4851,5.1985,5.7381,6.1153,6.3759,6.4347,6.3099,6.1924,5.2669,3.7802,3.5301,3.0086,2.3269,0.0,0.0,0.0,0.0,0.0,0.0,0.0,0.0,0.0,0.0,0.0,0.0,0.0,0.0,0.0,0.0,0.0,0.0,0.0,0.0,0.0,0.0,0.0,0.0,0.0,0.0,0.0,0.0,0.0,0.0,0.0,0.0,0.0,0.0,0.0,0.0,0.0,2.884,3.501,3.5441,3.8744,3.9315,0.0,0.0,0.0,0.0,0.0,0.0,4.1166,4.3765,4.7569,5.2878,5.6307,6.0123,6.432,6.7475,6.8936,6.8744,7.0244,7.0398,6.936,6.8706,6.8282,6.7975,6.632,6.4359,6.1704,5.264,4.7214,4.4461,4.2508,3.9395,3.6026,3.6654,3.7485,3.8561,0.0,0.0,0.0,0.0,0.0,0.0,0.0,0.0,0.0,0.0,0.0,2.2741,2.5848,3.2721,3.8312,4.1351,4.0646,3.7757,3.2338,2.7719,2.2839,1.7576,1.7365,1.747,1.7658,3.0878,4.2323,5.1544,6.0309,6.5154,6.6219,6.9412,6.9633,6.7393,6.7283,6.0786,4.9551,4.4748,3.8528,3.1283,2.4288,0.0,0.0,0.0,0.0,0.0,0.0,0.0,0.0,0.0,0.0,0.0,0.0,0.0,0.0,0.0,0.0,0.0,0.0,0.0,0.0,0.0,0.0,0.0,0.0,0.0,0.0,0.0,0.0,0.0,0.0,0.0,0.0,0.0,0.0,0.0,0.0,0.0,0.0,3.5581,4.5477,0.0,0.0,0.0,0.0,3.9135,4.1221,4.4805,4.9797,5.3182,5.7351,6.2435,6.6705,6.9436,7.0437,7.3014,7.3937,7.3206,7.4053,7.3591,7.2014,7.1937,7.1475,7.0629,6.8936,6.7667,6.6244,5.9319,5.5412,5.3276,4.7815,4.5978,4.6297,4.5773,4.5978,4.6991,0.0,0.0,0.0,0.0,0.0,0.0,0.0,0.0,1.4288,1.4472,2.0608,2.5955,2.8676,4.0599,4.904,5.0597,5.5075,5.4061,4.5176,3.8589,3.2113,2.5547,2.018,2.1667,3.082,4.2184,5.2123,6.0529,6.6843,7.0367,7.1174,7.2863,7.3156,7.2275,7.1248,6.8238,6.3466,5.5933,4.7974,3.9905,3.4641,2.7976,0.0,0.0,0.0,0.0,0.0,0.0,0.0,0.0,0.0,0.0,0.0,0.0,0.0,0.0,0.0,0.0,0.0,0.0,0.0,0.0,0.0,0.0,0.0,0.0,0.0,0.0,0.0,0.0,0.0,0.0,0.0,0.0,0.0,0.0,0.0,0.0,0.0,4.4093,5.0106,0.0,4.7118,4.7499,4.8155,4.8347,5.2182,5.6252,6.0265,6.3166,6.6026,6.8936,7.2091,7.4168,7.5014,7.6976,7.7284,7.5976,7.6746,7.6284,7.463,7.4053,7.336,7.2437,7.0206,6.8436,6.6821,6.332,6.0242,5.7357,5.3673,5.2132,5.1962,5.1753,5.2165,5.3086,0.0,0.0,0.0,0.0,0.0,0.0,0.0,0.0,1.4892,1.7257,2.4955,3.2279,3.7718,5.0809,5.9908,6.1716,6.513,6.2177,5.0574,4.3235,3.5322,2.6189,2.3281,2.8484,4.2664,5.0977,5.9208,6.732,7.1615,7.3854,7.4133,7.4918,7.5175,7.4845,7.378,7.2863,7.1688,6.5521,5.7914,4.9541,4.4088,3.5964,2.6663,0.0,0.0,0.0,0.0,0.0,0.0,0.0,0.0,0.0,0.0,0.0,0.0,0.0,0.0,0.0,0.0,0.0,0.0,0.0,0.0,0.0,0.0,0.0,0.0,0.0,0.0,0.0,0.0,0.0,0.0,0.0,0.0,0.0,0.0,3.9881,4.7124,4.9951,5.5549,5.8055,5.5227,5.5476,5.6669,5.8693,6.2728,6.6205,6.8744,7.1014,7.2783,7.3899,7.6092,7.7553,7.813,7.9554,7.94,7.7707,7.8246,7.7476,7.5515,7.4668,7.386,7.2937,7.0667,6.8898,6.7436,6.6013,6.3782,6.1012,5.9088,5.8132,5.7752,5.7499,5.7753,5.8207,0.0,0.0,0.0,0.0,0.0,0.0,0.0,1.3016,1.5627,2.2876,3.1762,4.1781,5.3149,6.2934,7.0409,7.4568,6.9448,6.064,4.7783,4.0642,3.1459,1.922,2.6913,3.7947,5.182,5.696,6.3415,7.1468,7.4588,7.5726,7.4978,7.5786,7.5689,7.4992,7.4992,7.4551,7.3722,7.2973,6.8074,6.0121,5.2035,4.3529,3.4913,0.0,0.0,0.0,0.0,0.0,0.0,0.0,0.0,0.0,0.0,0.0,0.0,0.0,0.0,0.0,0.0,0.0,0.0,0.0,0.0,0.0,0.0,0.0,0.0,0.0,0.0,0.0,0.0,0.0,0.0,0.0,0.0,0.0,3.5647,4.6796,5.4143,5.2762,6.2081,6.7321,6.3974,6.6667,6.8975,6.9821,7.2206,7.3976,7.4784,7.6438,7.7361,7.7361,7.8977,7.9862,7.9862,8.0669,8.0208,7.8477,7.8477,7.7169,7.4668,7.3937,7.3091,7.2091,7.0475,6.9244,6.8321,6.7475,6.6128,6.4589,6.3883,6.37,6.3669,6.3045,6.2683,6.2315,0.0,0.0,0.0,0.0,0.0,0.0,0.0,1.3276,1.6018,2.2762,3.3608,4.4848,5.5692,6.6458,7.3737,7.6027,7.0543,6.2788,5.3073,4.2652,3.3986,2.7585,3.9327,4.9501,5.6997,6.4222,7.022,7.4771,7.6276,7.6864,7.6644,7.6864,7.6864,7.6644,7.6631,7.6166,7.5422,7.5212,7.3156,6.9394,6.1843,5.3895,4.6101,0.0,0.0,0.0,0.0,0.0,0.0,0.0,0.0,0.0,0.0,0.0,0.0,0.0,0.0,0.0,0.0,0.0,0.0,0.0,0.0,0.0,0.0,0.0,0.0,0.0,0.0,0.0,0.0,0.0,0.0,0.0,4.0447,4.5731,4.7289,5.3668,6.0057,6.509,7.0025,7.2591,7.1668,7.2437,7.3322,7.4207,7.5515,7.6592,7.74,7.8515,7.9131,7.9131,8.0169,8.0746,8.0746,8.0977,8.0208,7.8477,7.8477,7.7169,7.4707,7.513,7.4168,7.2168,7.1706,7.0321,6.8321,6.7475,6.6551,6.559,6.4806,6.3804,6.2836,6.2794,6.2361,6.1725,0.0,0.0,0.0,0.0,0.0,0.0,0.0,1.3464,1.7205,2.685,3.6712,4.7853,6.1051,6.9495,7.474,7.5862,6.7669,5.8771,5.0147,3.979,3.5616,3.9333,4.8925,5.7299,6.4046,7.0165,7.4551,7.7145,7.799,7.8332,7.8369,7.8357,7.8382,7.8382,7.8725,7.8603,7.817,7.8492,7.7952,7.6346,7.1369,6.3779,5.5057,5.2009,4.674,4.0835,3.9277,3.9733,4.0046,3.3429,0.0,0.0,0.0,0.0,0.0,0.0,0.0,0.0,0.0,0.0,0.0,0.0,0.0,0.0,0.0,0.0,0.0,0.0,0.0,0.0,0.0,0.0,0.0,0.0,4.7503,5.4901,5.9309,6.2467,6.6525,7.2322,7.4976,7.6438,7.6823,7.6861,7.7207,7.8054,7.8592,7.9092,7.9554,8.0054,8.0323,8.0323,8.0823,8.1093,8.1093,8.1093,8.0208,7.8477,7.8477,7.7361,7.5245,7.5053,7.413,7.2706,7.1975,7.0629,6.8898,6.8013,6.7205,0.0,0.0,0.0,0.0,0.0,6.2243,6.1481,0.0,0.0,0.0,0.0,0.0,0.0,0.0,1.3629,1.868,3.2426,3.9921,5.0175,6.647,7.1334,7.3763,7.4458,6.2594,5.1522,4.3049,3.597,3.8317,5.2196,5.6749,6.3051,7.1791,7.5043,7.7365,7.886,7.9559,8.0,8.0057,7.9963,7.9989,8.0099,8.0948,8.1203,8.1204,8.1965,8.1907,8.1045,7.967,7.2636,6.2801,6.0154,5.5564,5.0165,4.7783,4.6205,4.4816,4.2079,0.0,0.0,0.0,0.0,0.0,0.0,0.0,0.0,0.0,0.0,0.0,0.0,0.0,0.0,0.0,0.0,0.0,0.0,0.0,0.0,0.0,0.0,0.0,0.0,5.2877,6.1582,7.0398,7.1706,7.2899,7.5938,7.7784,7.9092,7.9862,7.9939,8.0285,8.1054,8.1093,8.1093,8.1093,8.1093,0.0,0.0,0.0,8.1054,8.0939,8.0939,8.0015,7.8207,7.8323,7.7438,7.5668,7.4284,7.3553,7.3283,7.1706,7.0514,6.9629,6.8783,6.7821,6.6898,6.6205,6.5546,6.4791,6.3316,6.2219,6.1467,0.0,0.0,0.0,0.0,0.0,0.0,0.0,1.3659,1.8577,3.1549,3.9353,4.889,6.2489,6.7815,7.0943,7.231,5.9898,4.902,4.2175,4.3929,4.9488,5.9028,6.5211,7.0835,7.605,7.8721,8.0198,8.0514,8.0677,8.1119,8.1709,8.1073,8.1117,8.1798,8.2591,8.2591,8.2039,8.2794,8.2715,8.1948,8.2012,7.8085,7.1969,7.0077,6.7551,6.48,6.36,6.4517,6.4897,5.5707,5.3628,5.3224,4.3281,3.5111,0.0,0.0,0.0,0.0,0.0,0.0,0.0,0.0,0.0,0.0,0.0,0.0,0.0,0.0,0.0,0.0,0.0,0.0,0.0,5.3783,6.1713,6.9348,7.5207,7.663,7.7284,7.7938,7.9554,8.0669,8.0823,8.0862,8.0939,8.1093,8.1093,8.1093,8.1093,8.1093,8.1093,8.1093,8.1093,8.0746,8.0054,8.0054,7.8861,7.6476,0.0,0.0,7.4014,7.4322,7.3745,7.2437,7.2091,7.1091,6.9629,6.8783,6.7513,6.6051,6.5333,6.4648,6.3938,6.2936,6.2051,6.1354,0.0,0.0,0.0,0.0,0.0,0.0,0.0,1.3522,1.7363,2.8066,3.3277,4.0254,5.1312,5.4957,5.6782,5.6973,4.9153,4.3638,4.2164,4.8964,5.7543,6.7668,7.3127,7.7312,8.0321,8.236,8.3419,8.3422,8.3353,8.3603,8.3991,8.3166,8.3051,8.3434,8.4198,8.4382,8.4065,8.4845,8.4767,8.4015,8.418,8.2564,7.9822,7.753,7.6008,7.4817,7.3117,7.2932,7.2476,6.6153,6.3998,6.2767,5.5553,4.7681,4.0092,0.0,0.0,0.0,0.0,0.0,0.0,0.0,0.0,0.0,0.0,0.0,0.0,0.0,0.0,3.8577,4.0754,0.0,5.5813,6.0111,6.7577,7.4207,7.8015,7.89,7.9323,7.9746,8.0554,8.1093,8.1093,8.1093,8.1093,8.1093,8.1093,8.1093,8.1093,8.1093,8.1093,8.1093,8.1093,8.0669,7.9823,7.9823,7.8515,7.6015,7.6438,7.5553,7.3514,7.3476,7.2976,7.2168,7.1745,7.1052,7.0206,6.8936,6.7667,6.6359,6.5166,6.4205,6.3445,6.2675,6.1888,6.1152,0.0,0.0,0.0,0.0,0.0,0.0,0.0,1.3446,1.6265,2.4361,2.7262,3.1726,3.9994,4.2166,4.1977,3.937,3.9836,4.1314,4.3811,5.3976,6.4944,7.628,7.9828,8.2282,8.4058,8.5521,8.6269,8.6283,8.6236,8.6371,8.6489,8.5687,8.5422,8.5544,8.6224,8.6453,8.6522,8.7178,8.7105,8.6513,8.6356,8.6237,8.5831,8.3104,8.19,8.1246,7.8869,7.5831,7.2937,7.2745,7.0321,6.7205,6.5974,6.0042,5.2043,4.44,3.9819,0.0,0.0,0.0,0.0,0.0,0.0,0.0,0.0,3.6003,3.8139,4.0223,4.2595,4.5285,4.8587,5.5423,6.1953,6.6077,7.2217,7.7323,7.9708,8.0054,8.0246,8.0785,8.1016,8.1093,8.1093,8.1093,8.1093,8.1093,8.1093,8.1093,8.1093,8.1093,8.1093,8.1093,8.1093,8.0592,7.9554,7.9554,7.8284,7.5745,7.5745,7.5053,7.3707,7.2668,7.2283,7.2399,7.136,7.0706,7.0321,6.8975,6.7782,6.6744,6.5397,6.432,6.3435,6.2574,6.1689,6.0935,0.0,0.0,0.0,0.0,0.0,0.0,0.0,0.0,1.6619,2.2917,2.6749,3.0761,3.588,3.8367,3.6781,2.9309,4.2112,5.0161,4.899,6.1838,7.3744,8.307,8.373,8.4751,8.6574,8.745,8.796,8.7961,8.796,8.8288,8.9016,8.8175,8.8138,8.8867,8.8977,8.9011,8.9003,8.9077,8.9077,8.8966,8.8856,8.8704,8.8381,8.6471,8.4709,8.3079,8.1308,7.4725,6.7654,7.2706,6.9771,6.4537,6.8013,6.4795,5.8788,5.4084,4.6666,3.8438,3.1468,2.7841,2.6362,2.7599,3.0462,3.4901,0.0,4.4671,4.7067,5.343,5.672,5.9296,6.1973,6.632,7.0629,7.413,7.6707,7.8861,8.0708,8.0939,8.0708,8.0015,8.0631,8.1093,8.1093,8.1093,8.1093,8.1093,8.1093,8.1093,8.1093,8.1093,8.1093,8.1093,8.1093,8.0323,7.8669,7.8631,7.7361,7.4861,7.4861,7.4745,7.4514,7.2937,7.2629,7.3283,7.1629,7.0052,6.8667,6.8475,6.7475,6.6013,6.582,6.5205,6.4282,6.2704,6.155,6.0819,0.0,0.0,0.0,0.0,0.0,0.0,0.0,0.0,0.0,1.8143,1.9754,2.1535,2.4149,2.54,2.4694,2.1352,3.5719,4.653,5.0171,6.5207,7.7627,8.5614,8.7738,8.8837,8.913,9.0813,9.1253,9.0337,9.0337,9.0227,9.0044,8.9239,8.9093,8.9421,8.942,8.9383,8.9383,8.9415,8.9415,8.942,8.9823,8.9614,8.9033,8.7607,8.4472,8.0165,7.5225,7.0167,0.0,6.6254,6.5013,6.3949,6.7744,6.4462,5.8457,5.4776,4.7722,4.059,3.8323,3.5147,3.3838,3.9605,4.151,4.379,5.0663,5.3584,5.5945,5.9873,6.3089,6.6167,6.9206,7.2014,7.4822,7.7746,7.9246,8.0285,8.1016,8.0208,7.9092,7.7746,7.79,7.8707,8.0208,8.0323,8.0554,8.1054,8.1093,8.1093,8.1093,8.1093,8.1093,8.1093,8.0592,7.9746,7.8515,7.7515,7.6015,7.4014,7.3476,7.2976,7.2476,7.2283,7.2399,7.2668,7.1437,7.0514,6.9783,6.8821,6.8013,6.7205,6.5705,6.4936,6.4512,6.382,6.2704,6.155,0.0,0.0,0.0,0.0,0.0,0.0,0.0,0.0,0.0,0.0,1.4818,1.5198,1.6169,1.6462,1.6586,1.6705,2.9107,4.0763,4.9927,6.5034,7.763,8.6599,9.0372,9.1914,9.129,9.3233,9.3674,9.2501,9.2501,9.2207,9.162,9.1034,9.0704,9.0704,9.0484,9.0447,9.0411,9.0153,9.008,9.0081,9.0631,9.0225,8.8993,8.7033,8.1881,7.5127,6.9617,6.4578,6.0161,5.7902,5.6855,5.7258,6.1645,5.9816,5.5401,5.2274,4.5726,3.9924,4.1737,4.0569,4.0764,4.8952,5.139,5.3097,5.7989,6.1089,6.3358,6.5051,6.7552,7.0437,7.3591,7.5399,7.7092,7.9438,8.0516,8.1093,8.1093,7.9208,7.7284,7.5822,7.4822,7.5168,7.7476,7.8746,7.9785,8.0669,8.0977,8.1093,8.1093,8.1093,8.1093,8.1093,8.0246,7.9361,7.8515,7.7092,7.563,7.4168,7.3322,7.2668,7.2322,7.2706,7.2629,7.2168,7.1514,7.1014,7.0475,6.9013,6.8282,6.7859,6.5782,6.482,6.4589,6.4589,6.3551,6.205,0.0,0.0,0.0,0.0,0.0,0.0,0.0,0.0,0.0,0.0,0.0,0.0,0.0,1.6359,1.6414,1.648,2.4725,3.5504,4.8697,6.0788,7.3296,8.6461,9.085,9.3049,9.2965,9.3856,9.4299,9.4224,9.4263,9.4189,9.4189,9.4154,9.4154,9.4116,9.3382,9.2941,9.2941,9.2133,9.173,9.173,9.1767,9.0631,8.8545,8.4423,7.6819,6.8206,6.7126,5.8327,4.7353,4.8562,4.4827,4.0788,4.7515,5.0106,5.0232,4.7583,4.0843,3.5108,3.927,4.0991,4.3194,4.9984,5.6713,6.2127,6.3974,6.6359,6.8629,7.0321,7.1398,7.286,7.5438,7.6669,7.7823,7.9515,8.0516,8.1093,8.1093,7.8207,7.5745,7.4861,7.186,7.0552,7.2283,7.613,7.89,7.9785,8.0631,8.1093,8.1093,8.1093,8.1093,8.1093,8.0246,7.9361,7.8515,7.7669,7.6823,7.5899,7.5053,7.5053,7.5822,7.5014,7.3745,7.2206,7.2168,7.1245,6.9667,6.8783,6.7898,6.7051,6.6205,6.532,6.4589,6.4589,6.3551,6.1973,0.0,0.0,0.0,0.0,0.0,0.0,0.0,0.0,0.0,0.0,0.0,0.0,0.0,0.0,0.0,0.0,2.4558,3.2639,3.9921,5.5686,6.7933,7.5139,8.5207,9.0373,8.9861,9.3271,9.4299,9.2684,9.3749,9.3712,9.2648,9.2611,9.2611,9.2611,9.2354,9.2244,9.2243,9.1913,9.0919,8.9367,8.8846,8.4019,7.6911,7.4257,6.5839,5.474,0.0,4.5001,4.0093,3.8218,3.6952,3.7014,4.2193,4.21,3.9489,3.6423,3.7125,3.9717,4.356,4.73,5.191,5.9273,6.4141,6.7859,7.0667,7.1975,7.2591,7.2629,6.9613,6.716,6.7918,6.49,6.4564,7.149,7.2831,7.4696,7.9561,7.8746,7.6092,7.1898,7.136,7.0475,6.8244,7.1822,7.5592,7.8707,7.9208,7.9862,8.1054,8.1093,8.1093,8.1093,8.0246,7.9361,7.8515,7.713,7.6015,7.513,7.4322,7.4361,7.513,7.4284,7.3591,7.3014,7.2437,7.1552,7.0437,6.959,6.8744,6.7898,6.7013,6.582,6.4551,6.3935,6.3051,6.205,0.0,0.0,0.0,0.0,0.0,0.0,0.0,0.0,0.0,0.0,0.0,0.0,0.0,0.0,0.0,0.0,0.0,2.7657,3.4022,4.647,5.6486,6.3048,7.2642,7.7724,7.7531,8.0898,8.2099,8.0882,8.4945,8.6485,8.582,8.872,9.0078,9.0078,8.9784,8.9786,9.0044,8.9421,8.6795,8.2917,8.181,7.5122,6.5556,6.2918,5.4912,0.0,3.8954,3.4989,3.2014,2.9758,2.9841,3.1559,3.5642,3.5304,3.3374,3.3261,3.642,4.1398,4.8125,5.3469,5.8889,6.632,7.0052,7.2514,7.4668,7.4707,7.3486,7.0671,6.6249,6.2202,6.0103,5.6396,5.6443,6.4917,6.6713,6.9743,7.737,7.6669,7.4399,7.1783,7.0821,6.9552,6.7475,6.9706,7.2937,7.6861,7.7977,7.9131,8.0554,8.0939,8.1093,8.1093,8.0246,7.9515,7.8977,7.7592,7.6476,7.563,7.4784,7.4668,7.5168,7.463,7.4091,7.3476,7.2899,7.1975,7.0821,6.9706,6.8898,6.8282,6.7128,6.5628,6.4089,6.3512,6.2589,6.1627,0.0,0.0,0.0,0.0,0.0,0.0,0.0,0.0,0.0,0.0,0.0,0.0,0.0,0.0,0.0,0.0,0.0,0.0,3.0601,3.3952,4.0247,5.0634,5.4724,5.7138,5.7985,5.9066,6.0092,6.1011,6.8913,7.3164,7.4066,8.1864,8.5527,8.549,8.4756,8.484,8.5474,8.3902,7.9154,7.2534,7.0919,6.4269,5.4957,5.0994,4.4508,3.713,3.3806,2.8907,2.397,2.3695,2.3884,2.4884,2.8611,3.0508,3.2448,3.8137,3.9049,4.0857,5.3003,5.935,6.4168,7.086,7.4322,7.613,7.6092,7.4524,7.1353,6.5102,6.1381,5.7614,5.2276,5.1215,5.3299,5.9941,6.2595,6.6719,7.4985,7.2745,7.1398,7.4361,7.0514,6.8205,6.9667,6.986,7.1245,7.4514,7.7015,7.8823,7.9823,8.0669,8.1093,8.1093,8.0285,7.9862,7.9823,7.89,7.8015,7.7207,7.6399,7.6015,7.6015,7.5938,7.5053,7.3514,7.3437,7.2476,7.0783,6.9129,6.8436,6.8244,6.6551,6.482,6.332,6.3243,6.2204,6.0781,0.0,0.0,0.0,0.0,0.0,0.0,0.0,0.0,0.0,0.0,0.0,0.0,0.0,0.0,0.0,0.0,0.0,0.0,2.051,2.8508,3.4376,3.722,4.7666,5.3555,5.3904,5.7107,5.866,5.8445,6.1244,6.2479,6.2164,6.4302,6.5307,6.5254,6.571,6.595,6.6062,6.5767,6.3466,5.9909,5.8288,5.179,4.2903,4.1695,3.6217,2.9178,2.8676,2.9006,2.9007,2.4895,2.5863,2.9692,3.4793,3.6956,3.8915,4.5571,4.9094,5.2747,6.1771,6.7321,7.1563,7.5822,7.7361,7.7707,7.7092,7.2349,6.6736,6.2108,5.311,4.519,4.2528,4.1595,4.4515,5.4511,6.0433,6.7072,7.6562,7.8054,7.7323,7.4976,7.4707,7.386,7.1783,7.2168,7.3399,7.5515,7.6284,7.7861,8.0631,8.0977,8.1093,8.1093,8.09,8.0477,7.9823,7.8323,7.7169,7.6322,7.6092,7.6015,7.5976,7.5322,7.4476,7.3476,7.2822,7.1898,7.0821,6.9783,6.9013,6.8244,6.6551,6.482,6.3243,6.2627,6.1704,6.0781,0.0,0.0,0.0,0.0,0.0,0.0,0.0,0.0,0.0,0.0,0.0,0.0,0.0,0.0,0.0,0.0,0.0,0.0,0.0,2.2367,2.5799,2.6264,3.3492,3.7861,3.8722,4.1094,4.2544,4.2951,4.7171,4.9185,4.9268,5.2937,5.4619,5.4574,5.5103,5.5468,5.567,5.5386,5.2645,0.0,0.0,4.0562,3.2464,3.1943,2.9175,2.5633,2.5778,2.8308,3.1444,3.1071,3.3568,3.7553,4.1791,4.4484,4.7426,5.4549,5.7824,6.0801,6.8383,7.3014,7.613,7.8015,7.8207,7.6908,7.2732,6.7424,6.1005,5.274,4.4736,3.8501,3.6176,3.6306,4.0319,5.1216,5.7806,6.5006,7.4947,7.7438,7.7938,7.7053,7.713,7.6553,7.463,7.4861,7.5707,7.7015,7.6784,7.7746,8.04,8.09,8.1093,8.1093,8.1093,8.0669,7.9823,7.8477,7.74,7.6553,7.6169,7.5784,7.5399,7.4938,7.4053,7.2899,0.0,7.1706,7.0821,6.9629,6.8859,6.8205,6.6128,6.4512,6.3205,6.2397,6.155,6.0781,0.0,0.0,0.0,0.0,0.0,0.0,0.0,0.0,0.0,0.0,0.0,0.0,0.0,0.0,0.0,0.0,0.0,0.0,0.0,0.0,1.7527,1.8394,1.8726,1.9605,2.1165,2.1635,2.2638,2.4237,3.1482,3.5439,3.6395,4.3579,4.6898,4.6858,4.7046,4.7484,4.7988,4.7335,4.336,3.7443,3.5882,3.1088,2.4787,0.0,2.4171,2.4942,2.5294,2.8242,3.2941,3.9551,4.346,4.6151,4.9442,5.2853,5.6945,6.3655,6.5536,6.6845,7.3418,7.6899,7.8669,7.8669,7.7823,7.4773,6.6376,6.1233,5.4587,4.1588,3.7093,3.4794,3.2447,3.3988,3.9212,5.0165,5.5962,6.2595,7.2727,7.4861,7.6515,7.9631,7.8707,7.7784,7.7784,7.7707,7.7977,7.8784,7.8092,7.8323,7.99,8.0708,8.1093,8.1093,8.1093,8.0669,7.9823,7.9054,7.8207,7.7284,7.6515,7.5668,7.4707,7.4591,7.3668,7.2168,7.2091,7.1591,7.0783,6.909,6.8398,6.8129,6.5474,6.3974,6.3205,6.2281,6.1435,6.0781,0.0,0.0,0.0,0.0,0.0,0.0,0.0,0.0,0.0,0.0,1.6765,1.6664,0.0,0.0,0.0,0.0,0.0,0.0,0.0,0.0,0.0,1.759,1.8985,2.0018,2.0563,2.1892,2.2857,2.3411,2.4953,2.585,2.6152,2.7644,2.8319,2.8278,2.9094,2.9455,2.9422,2.9471,2.871,2.7405,2.6465,2.559,2.4775,2.4431,0.0,0.0,2.9575,3.3006,3.7066,4.5551,4.8761,5.0444,5.7551,6.2079,6.5615,6.9706,7.1794,7.3572,7.6938,7.8707,7.9592,7.9592,7.7361,7.3005,6.4688,5.6505,4.8047,3.881,3.2882,2.9826,3.1332,3.3617,3.9667,5.3172,5.8443,6.4805,7.6062,7.8361,7.94,8.0708,8.0631,8.0439,8.0439,7.9785,7.9708,8.0592,7.9862,7.9823,8.0823,8.1016,8.1093,8.1093,8.1093,8.0669,7.9823,7.9669,7.8823,7.7284,7.713,7.6245,7.4668,7.4014,7.3168,7.2168,7.1437,0.0,7.0783,6.909,6.8398,6.809,6.482,6.3435,6.3128,6.1589,6.0935,6.0781,0.0,0.0,0.0,0.0,0.0,0.0,0.0,1.6022,1.6844,1.7215,1.7517,1.7468,1.6901,1.6953,1.6998,0.0,0.0,0.0,0.0,0.0,0.0,0.0,0.0,0.0,2.0429,2.168,2.2618,2.3175,0.0,2.3494,2.3539,2.3674,2.3652,2.3598,2.4046,2.4271,2.4213,2.4293,2.4338,2.436,2.4213,2.4373,2.4655,0.0,0.0,0.0,2.817,3.1507,3.5264,4.0919,4.5049,4.9763,6.0671,6.7013,7.0025,6.7917,7.1776,7.6139,7.3599,7.6617,8.0246,7.9361,7.5899,6.9875,5.8988,5.1042,4.3107,3.3164,2.8905,2.7913,3.0873,3.3882,3.9001,4.8472,5.4531,6.1392,7.0968,7.4379,7.713,8.0669,8.1093,8.1093,8.1093,8.0708,8.0669,8.1054,8.0708,8.0669,8.1093,8.1093,8.1093,8.1093,8.1093,8.0477,7.9131,7.9131,7.8284,7.663,7.663,7.5745,7.4053,7.3668,7.2783,7.1514,7.1091,7.0667,7.0167,6.8936,6.8129,6.7475,6.4974,6.3705,6.3166,6.1935,6.1166,6.0781,0.0,0.0,0.0,0.0,0.0,0.0,0.0,1.632,1.7154,1.7723,1.8434,1.851,1.7402,1.7362,1.7338,0.0,0.0,0.0,0.0,0.0,0.0,0.0,0.0,0.0,2.0489,0.0,0.0,2.3223,2.3424,0.0,0.0,0.0,0.0,0.0,2.3607,2.3652,2.3718,2.3652,2.3696,0.0,0.0,2.4562,0.0,0.0,0.0,0.0,0.0,2.8458,3.2181,3.4913,4.017,4.7424,5.8412,6.5268,6.8493,6.4527,6.9472,7.5387,7.1436,7.5595,8.0631,7.8707,7.413,6.671,5.3805,4.6508,3.9412,2.8424,2.6134,2.7196,3.0619,3.2894,3.6526,4.3444,4.8785,5.5484,6.5206,6.9395,7.3774,8.0092,8.0977,8.1093,8.1093,8.1093,8.1093,8.1093,8.1093,8.1093,8.1093,8.1093,8.1093,8.1093,8.0939,8.0169,7.8784,7.8592,7.7746,7.6284,7.6092,7.513,7.3514,7.3322,7.236,7.0898,7.0898,7.0437,6.9629,6.8783,6.7898,6.6936,6.5243,6.4166,6.3474,6.2474,6.1666,6.1089,0.0,0.0,0.0,0.0,0.0,0.0,0.0,1.776,1.8775,1.8751,1.9486,1.9605,1.8626,1.8434,1.8085,0.0,0.0,0.0,0.0,0.0,0.0,0.0,0.0,0.0,0.0,0.0,0.0,2.3401,2.3471,0.0,0.0,0.0,0.0,0.0,0.0,2.3682,2.3682,2.3761,0.0,0.0,0.0,0.0,0.0,0.0,0.0,0.0,0.0,2.6748,3.0478,3.3928,3.9339,4.5117,4.7935,5.1916,5.6785,6.3284,6.6969,7.0392,7.6916,7.9869,8.0516,7.8015,7.2399,6.4408,5.2741,4.4864,3.7308,2.7734,2.5844,2.6916,3.0164,2.8732,3.111,4.3474,4.3906,4.8278,6.4314,6.7935,7.1631,7.9062,8.0631,8.1093,8.1093,8.1093,8.1093,8.1093,8.1093,8.1093,8.1093,8.1093,8.1093,8.1093,8.0323,7.9862,7.9669,7.89,7.8054,7.7169,7.6361,7.513,7.3476,7.2668,7.1783,7.0898,7.0898,7.0437,0.0,6.8783,6.7898,6.6936,6.5243,6.4551,6.4282,6.2666,6.205,6.1973,0.0,0.0,0.0,0.0,0.0,0.0,1.7188,1.7794,1.838,1.889,1.9661,1.983,1.9049,1.9273,1.8973,1.7586,0.0,0.0,0.0,0.0,0.0,0.0,0.0,0.0,0.0,0.0,2.3035,2.3471,2.3607,0.0,0.0,0.0,0.0,0.0,0.0,2.3768,2.3831,2.3852,0.0,0.0,0.0,0.0,0.0,0.0,0.0,0.0,0.0,0.0,2.6446,2.7896,3.0451,3.3056,3.3315,3.5428,3.9324,4.7311,5.7967,6.6825,6.5197,7.2763,8.0477,7.7938,7.1398,6.2874,5.2402,4.3797,3.5732,2.7565,2.5807,2.6151,2.7674,2.7433,2.9179,3.5652,3.7362,4.2179,5.4368,5.8509,6.4,7.4063,7.6438,7.8246,8.0862,8.1093,8.1093,8.1093,8.1093,8.1093,8.1093,8.1093,8.0862,8.0323,7.9977,7.9323,7.8323,7.7938,7.7361,7.6515,7.563,7.463,7.3476,7.2591,7.1475,7.0167,7.0167,6.9398,0.0,6.7744,6.7128,6.632,6.5628,6.5051,6.4474,6.3243,6.282,6.2743,0.0,0.0,0.0,0.0,0.0,1.7439,1.7602,1.8097,1.8616,1.9287,2.0084,2.0372,1.9863,1.985,1.9389,1.8154,1.7838,0.0,0.0,0.0,0.0,0.0,0.0,0.0,0.0,0.0,2.3244,2.3562,2.3703,2.3789,0.0,0.0,2.3889,2.3868,0.0,0.0,0.0,0.0,0.0,0.0,0.0,0.0,0.0,0.0,0.0,0.0,0.0,0.0,0.0,0.0,0.0,2.4913,2.4474,2.5582,2.8634,3.6768,4.8672,5.9007,5.8139,6.717,7.6694,7.6284,6.9432,6.0414,5.1224,4.2038,3.3615,2.7222,2.5733,2.5733,2.6068,2.6785,2.8013,3.0179,3.2712,3.758,4.6576,5.1458,5.7596,6.6969,7.0115,7.3206,7.747,7.9799,8.1093,8.1093,8.1093,8.1093,8.1093,8.0862,8.0439,7.9823,7.9554,7.8746,7.7323,7.6784,7.6207,7.5592,7.4476,7.3668,7.3091,7.2206,7.1052,6.9706,6.9706,6.8706,0.0,6.709,6.6474,6.5551,6.5782,6.5359,6.4551,6.3897,6.3666,6.3589,0.0,0.0,0.0,0.0,0.0,0.0,1.7486,1.8949,2.0077,2.0161,2.0892,2.1413,2.1481,2.0069,1.9121,1.919,1.8392,0.0,0.0,0.0,0.0,0.0,0.0,0.0,0.0,0.0,2.2826,2.3718,2.3789,2.3858,2.3996,2.4056,2.4056,2.3996,0.0,0.0,0.0,0.0,0.0,0.0,0.0,0.0,0.0,0.0,0.0,0.0,0.0,0.0,0.0,0.0,0.0,0.0,0.0,2.5358,2.8308,3.6589,4.0381,4.5255,6.0924,6.5924,6.785,7.2419,6.6011,5.6557,4.8865,3.9301,3.0801,2.6517,2.5659,2.5811,2.6208,2.6312,2.7096,2.9512,3.0941,3.4835,4.3619,4.9276,5.3988,5.79,6.1766,6.5749,6.9884,7.6831,8.1093,8.1093,8.1093,8.1093,8.1093,8.0285,7.9823,7.9823,7.8977,7.813,7.7323,7.5592,7.4707,7.4707,7.3014,7.2206,7.2168,7.1321,7.0475,6.9706,6.9706,6.8706,0.0,6.709,6.6128,6.4705,6.5551,6.5359,6.4589,6.4589,6.4589,6.4589,0.0,0.0,0.0,0.0,0.0,0.0,0.0,1.8349,1.8636,1.9287,1.9737,2.0015,2.0131,1.9681,1.9554,2.0096,1.8812,0.0,0.0,0.0,0.0,0.0,0.0,0.0,0.0,0.0,2.3479,2.3753,2.3816,2.3878,2.3935,2.3935,2.3878,2.3858,2.3976,2.3976,0.0,0.0,0.0,0.0,0.0,0.0,2.3791,0.0,0.0,0.0,0.0,0.0,0.0,0.0,0.0,0.0,0.0,0.0,0.0,2.7933,3.4734,4.2454,4.7541,5.3391,5.8122,5.8441,5.3897,4.7755,4.1926,3.576,3.0206,2.6531,2.5696,2.5733,2.6063,2.6535,2.7827,3.066,3.2015,3.4622,4.0086,4.7243,5.4031,5.9589,6.9398,7.6202,7.7515,7.9722,8.1093,8.1093,8.1093,8.1093,8.1093,8.0285,7.9515,7.8938,7.8092,7.6976,7.5553,7.4976,7.4437,7.386,7.2745,7.2206,7.2129,7.0744,6.9629,6.8783,6.8167,6.7282,6.6282,6.6282,6.5974,6.5513,6.5782,6.5743,6.5436,6.482,6.4974,6.5372,0.0,0.0,0.0,0.0,0.0,0.0,0.0,1.8076,1.8229,1.8866,1.9178,1.9463,1.9896,1.9687,1.9826,2.0603,1.9646,0.0,0.0,0.0,0.0,0.0,0.0,0.0,0.0,2.3587,2.3982,2.433,2.4392,2.4616,2.4928,2.4908,2.4704,2.4372,2.4531,2.4328,0.0,0.0,0.0,0.0,0.0,0.0,2.3853,0.0,0.0,0.0,0.0,0.0,0.0,0.0,0.0,0.0,0.0,0.0,0.0,0.0,2.934,3.6157,3.9386,4.4386,4.8971,5.0252,4.6862,4.2162,3.8077,3.3199,2.887,2.6468,2.577,2.5733,2.6066,2.677,2.8059,3.0446,3.1873,3.3773,3.697,4.3553,5.0685,5.7848,6.952,7.7016,7.7016,7.9492,8.1093,8.1093,8.1093,8.0977,8.0631,7.9785,7.89,7.8054,7.7553,7.6476,7.4707,7.4399,7.3822,7.3014,7.2129,7.1706,7.1668,7.0321,6.9206,6.8359,6.7475,6.6628,0.0,6.5897,6.5705,6.5397,6.5397,6.5397,6.5295,6.455,6.4841,6.5465,0.0,0.0,0.0,0.0,0.0,0.0,0.0,1.8143,1.8689,1.8809,1.9053,1.9554,2.0428,1.9918,1.9835,2.0644,0.0,0.0,0.0,0.0,0.0,0.0,0.0,0.0,2.2623,2.3454,2.4356,2.5199,2.5262,2.5764,2.6612,2.6654,2.6172,2.5283,2.5421,2.498,0.0,0.0,0.0,0.0,2.4242,2.4232,0.0,0.0,0.0,0.0,0.0,0.0,0.0,0.0,0.0,0.0,0.0,0.0,0.0,0.0,0.0,0.0,0.0,3.8118,4.0148,4.5835,4.3278,3.874,3.6262,3.1324,0.0,2.6195,2.5848,2.5885,2.6415,2.705,2.7964,2.935,3.0936,3.2607,3.4623,3.969,4.6252,5.4503,6.4616,7.0942,7.0898,7.7054,8.1093,8.1093,8.1054,8.0669,7.9862,7.89,7.8054,7.7323,7.7169,7.6322,7.463,7.386,7.3014,7.2091,7.1245,7.0821,7.0783,6.9898,6.909,0.0,6.7398,6.659,6.5897,6.5897,6.5397,6.4589,6.4589,6.4564,6.4475,6.3962,6.4305,6.4965,0.0,0.0,0.0,0.0,0.0,0.0,0.0,0.0,0.0,0.0,1.8332,1.8593,1.8892,1.9353,1.971,0.0,0.0,0.0,0.0,0.0,0.0,0.0,0.0,0.0,2.3583,2.3866,2.4498,2.5421,2.5324,2.5727,2.6597,2.6512,2.6002,2.515,2.5236,2.4803,0.0,0.0,0.0,0.0,2.3786,2.3602,0.0,0.0,0.0,0.0,2.2598,2.2423,0.0,0.0,0.0,0.0,0.0,0.0,0.0,0.0,2.3231,2.4564,2.7143,0.0,3.0486,3.1912,3.1197,2.9896,0.0,2.7673,2.6441,2.6201,2.617,2.6445,2.7435,2.8003,2.8982,3.1113,3.2637,3.3994,3.5314,4.6836,5.7536,6.3993,7.2901,7.8039,7.6694,7.9331,8.1093,8.1093,8.0477,8.0015,7.9823,7.84,7.7476,7.7323,7.6015,7.4822,7.3783,7.3591,7.2745,7.1206,7.036,6.9975,6.9937,6.8398,6.759,6.7359,6.6551,6.6051,6.5897,6.5897,6.5397,6.4589,6.4589,6.4358,6.3962,6.3871,6.4111,6.4406,0.0,0.0,0.0,0.0,0.0,0.0,0.0,0.0,0.0,0.0,0.0,1.8683,1.8438,1.9837,0.0,0.0,0.0,0.0,0.0,0.0,0.0,0.0,0.0,2.3397,2.3878,2.4016,2.4574,2.5481,2.5809,2.6376,2.7206,2.7508,2.7163,2.6204,2.5441,2.472,0.0,0.0,0.0,0.0,2.3696,0.0,0.0,0.0,0.0,0.0,2.2786,2.2454,0.0,2.2793,2.2862,2.2725,0.0,0.0,0.0,0.0,2.2979,2.4045,2.4569,2.5678,2.6733,2.6918,2.7023,2.699,2.6691,2.6487,2.6349,2.6417,2.6452,2.6722,2.7672,2.8345,2.9259,3.0967,3.37,3.7112,4.1283,5.2794,6.2573,6.7247,7.4981,7.9862,7.9708,8.0554,8.0939,8.0516,8.0092,7.9285,7.813,7.7207,7.6361,7.5592,7.463,7.3937,7.3514,7.3091,7.2052,7.036,6.9898,6.9475,6.9052,6.7705,6.709,6.7051,6.6244,6.5667,6.5282,6.5282,6.4782,6.3974,6.3589,6.3384,6.3161,6.2553,6.2593,6.2816,0.0,0.0,0.0,0.0,0.0,0.0,0.0,0.0,0.0,0.0,0.0,0.0,0.0,0.0,0.0,0.0,0.0,0.0,0.0,0.0,0.0,0.0,0.0,2.3837,2.3935,2.4036,2.4593,2.552,2.6311,2.7122,2.7932,2.8721,2.8484,2.7351,2.5601,2.4511,0.0,0.0,0.0,2.3804,2.3718,0.0,0.0,0.0,0.0,0.0,0.0,0.0,0.0,2.3423,2.3128,2.2404,2.3472,0.0,0.0,0.0,0.0,0.0,2.4927,2.569,2.6415,2.6655,2.6956,2.7085,2.6758,2.6556,2.6521,2.6691,2.6691,2.7097,2.8288,2.9281,3.0384,3.188,3.6219,4.1985,4.9363,5.7938,6.4564,6.7553,7.4413,7.9361,8.0592,8.0823,8.0592,7.9862,7.9438,7.8284,7.613,7.5745,7.4899,7.336,7.3168,7.3053,7.2937,7.2322,7.1245,6.9706,6.9436,6.8859,6.8013,6.7128,6.6628,6.6474,0.0,0.0,6.4397,6.4397,6.3897,6.3051,6.2271,6.2115,6.2154,6.0934,6.075,6.1001,0.0,0.0,0.0,0.0,0.0,0.0,0.0,0.0,0.0,0.0,0.0,0.0,0.0,0.0,0.0,0.0,0.0,0.0,0.0,0.0,0.0,2.2751,2.349,2.3955,2.4056,2.4151,2.4652,2.556,2.6351,2.7126,2.8001,2.8765,2.8191,2.6512,2.4808,2.4024,2.3899,0.0,0.0,2.3783,2.3674,0.0,0.0,0.0,0.0,0.0,0.0,0.0,0.0,2.2182,2.2672,2.3089,2.2622,0.0,0.0,0.0,0.0,0.0,2.5438,2.6725,2.7531,2.7053,2.7276,2.743,2.6759,2.6691,2.6825,2.6791,2.6956,2.8161,3.1631,3.343,3.5805,3.9993,4.4892,4.9921,5.5012,6.2199,6.74,6.8724,7.5864,8.0208,7.9015,7.9554,7.9939,7.9823,7.7784,7.6399,7.6015,7.4668,7.3437,7.2437,7.1678,7.0986,7.0294,7.0821,7.0629,6.9667,6.8205,6.7051,6.6244,6.5397,6.4589,6.3897,0.0,6.3628,6.3512,6.3512,6.3012,6.2219,6.1704,6.1248,6.0858,6.0224,6.0246,6.0415,0.0,0.0,0.0,0.0,0.0,0.0,0.0,0.0,0.0,0.0,0.0,0.0,0.0,0.0,0.0,0.0,0.0,0.0,0.0,0.0,2.2617,2.3272,2.3676,2.3976,2.4112,2.4574,2.5093,2.5558,2.6753,2.7585,2.8017,2.8279,2.7691,2.633,2.5078,2.4251,2.3831,2.3768,2.3725,2.3674,0.0,0.0,0.0,0.0,0.0,0.0,0.0,0.0,0.0,0.0,2.2899,2.3439,2.3328,0.0,0.0,0.0,0.0,0.0,2.5828,2.7046,2.8152,2.9319,2.9354,2.9022,2.8421,2.8388,2.8485,2.8485,2.8518,2.9776,3.3563,3.5981,4.0277,4.9051,5.3232,5.7392,6.3015,6.7467,7.0968,7.3261,7.6801,7.9092,7.9208,7.9131,7.8707,7.7823,7.6245,7.4707,7.3322,7.2101,7.1025,7.0167,6.9294,6.8652,6.8306,6.7768,6.7537,6.7628,6.6821,6.5743,6.4474,6.4089,6.3666,6.3295,0.0,6.2797,6.2627,6.2375,6.1797,6.1004,6.08,6.0231,5.9513,5.9059,5.896,5.9061,0.0,0.0,0.0,0.0,0.0,0.0,0.0,0.0,0.0,0.0,0.0,0.0,0.0,0.0,0.0,0.0,0.0,0.0,0.0,0.0,2.2046,2.3277,2.3717,2.4069,2.4388,2.5071,2.5515,2.5775,2.7211,2.8043,2.8249,2.7721,2.7098,2.633,2.5238,2.4389,2.3783,2.3718,2.3629,2.3539,0.0,0.0,0.0,0.0,0.0,0.0,0.0,0.0,0.0,0.0,0.0,0.0,0.0,0.0,0.0,2.4641,2.4978,2.5305,2.6387,2.7584,2.8963,3.0988,3.1196,3.1052,3.1635,3.205,3.2353,3.2563,3.2778,3.3929,3.725,4.0815,4.6352,5.5703,5.9827,6.3991,7.0014,7.2157,7.4207,7.7207,7.74,7.7784,7.9092,7.8246,7.7092,7.5784,7.4514,7.2947,7.1014,6.9756,6.8717,6.7833,6.6961,6.6435,6.6204,6.4936,6.4731,6.559,6.5397,6.4474,6.3012,6.3012,6.2897,6.268,6.2223,6.1879,6.162,6.1153,6.0555,5.9916,5.9823,5.9319,5.8632,5.8186,5.8051,5.8142,0.0,0.0,0.0,0.0,0.0,0.0,0.0,0.0,0.0,0.0,0.0,0.0,0.0,0.0,0.0,0.0,0.0,0.0,0.0,0.0,2.2175,2.1677,2.323,2.4461,2.5291,2.5384,2.5809,2.6602,2.7506,2.8279,2.8979,2.7346,2.6527,2.633,2.4657,2.3825,2.3682,2.3629,2.3539,2.3424,2.3354,0.0,0.0,0.0,0.0,0.0,0.0,0.0,0.0,0.0,0.0,0.0,0.0,0.0,2.356,2.535,2.5857,2.609,2.7302,2.8894,3.0273,3.0511,3.1492,3.3349,3.7118,3.8755,3.9709,4.0493,4.1386,4.2723,4.501,5.107,5.6053,5.7118,6.3203,6.9321,7.3713,7.5148,7.6399,7.8177,7.7746,7.7361,7.7476,7.5976,7.4938,7.4822,7.2563,7.1074,7.092,6.8575,6.6922,6.6127,6.5241,6.4396,6.3591,6.346,6.3806,6.468,6.3858,6.3036,6.2166,6.2166,6.1743,6.095,6.0464,6.0285,6.0208,5.9739,5.9534,5.9389,5.899,5.8756,5.8632,5.8186,5.8282,5.8591,0.0,0.0,0.0,0.0,0.0,0.0,0.0,0.0,0.0,0.0,0.0,0.0,0.0,0.0,0.0,0.0,0.0,0.0,0.0,2.0904,2.142,2.2336,2.2957,2.3985,2.5424,2.5976,2.6581,2.7368,2.822,2.8772,2.8984,2.739,2.6533,2.6249,2.4605,2.3789,2.3629,2.3562,2.3494,2.3401,2.3175,2.2797,0.0,0.0,0.0,0.0,0.0,0.0,0.0,0.0,2.2984,2.3794,2.393,2.4496,2.5236,2.5815,2.5708,2.5725,2.7414,2.9689,3.2055,3.4067,3.5739,3.7368,3.9027,4.1193,4.3213,4.4503,4.5444,4.6948,5.0149,5.5033,5.9639,6.2885,6.6688,7.0497,7.4168,7.4976,7.5639,7.6801,7.5755,7.4938,7.4966,7.336,7.2129,7.164,6.969,6.8345,6.7818,6.5858,6.4616,6.4295,6.3488,6.2886,6.2579,6.2012,6.1627,6.145,6.2204,6.2089,6.1281,6.1006,6.0671,6.0338,5.9559,5.9389,5.9625,5.9139,5.899,5.8951,5.8756,5.8874,5.9102,5.8951,5.899,5.9102,0.0,0.0,0.0,0.0,0.0,0.0,0.0,0.0,0.0,0.0,0.0,0.0,0.0,0.0,0.0,0.0,0.0,0.0,2.0471,2.0261,2.0825,2.241,2.2721,2.3656,2.5424,2.6291,2.7043,2.7787,2.8662,2.9067,2.8998,2.739,2.6643,2.665,2.4729,2.3891,2.392,2.3601,2.3378,2.3247,2.2783,2.2439,0.0,0.0,0.0,0.0,0.0,0.0,0.0,0.0,2.3017,2.3955,2.4168,2.479,2.5518,2.5971,2.5794,2.5802,2.7586,3.0098,3.2904,3.5698,3.8652,4.135,4.309,4.3826,4.5155,4.8742,5.0778,5.2341,5.3655,5.7187,6.0904,6.3921,6.7379,7.0584,7.314,7.3755,7.4063,7.4341,7.3149,7.2178,7.1926,7.0579,6.936,6.8564,6.7114,6.6077,6.5512,6.3847,6.2911,6.2921,6.1867,6.1228,6.108,6.0258,5.9465,5.8927,6.0252,6.0585,5.9988,5.9775,5.9684,5.9655,5.8872,5.8765,5.9102,5.8428,5.8277,5.8539,5.8801,5.9212,5.9592,5.9458,5.9492,5.9592,0.0,0.0,0.0,0.0,0.0,0.0,0.0,0.0,0.0,0.0,0.0,0.0,0.0,0.0,0.0,0.0,0.0,0.0,1.895,1.965,2.0553,2.1553,2.2447,2.3675,2.5348,2.6237,2.7048,2.7787,2.8662,2.9044,2.8938,2.7266,2.6893,2.746,2.494,2.415,2.4647,2.3697,2.3175,2.2908,2.2042,2.215,2.2686,0.0,0.0,0.0,0.0,0.0,0.0,0.0,2.2622,2.232,2.5103,2.4893,2.3973,2.5744,2.6318,2.6609,2.7868,3.0134,3.2657,3.4681,3.9472,4.5055,5.0111,4.7286,4.5794,5.3632,5.8232,5.958,5.5561,5.8094,6.0342,5.8863,6.4852,6.9948,7.0783,7.1601,7.1832,7.0975,7.0123,6.9316,6.8462,6.7577,6.6731,6.5936,6.5064,6.4564,6.4564,6.2998,6.2059,6.2059,6.0381,5.9281,5.8889,5.8035,5.7589,5.7589,5.8,5.8213,5.8312,5.8639,5.8778,5.8778,5.8311,5.8314,5.8604,5.7373,5.7393,5.8185,5.905,5.9658,6.0036,5.9559,5.969,6.0006,0.0,0.0,0.0,0.0,0.0,0.0,0.0,0.0,0.0,0.0,0.0,0.0,0.0,0.0,0.0,0.0,0.0,0.0,1.8967,1.92,1.9993,2.148,2.1844,2.2776,2.4444,2.5348,2.6512,2.7932,2.811,2.7904,2.7353,2.6188,2.5716,2.579,2.4411,2.3804,2.3838,2.3401,2.3126,2.2977,2.2505,2.2151,2.1781,0.0,0.0,0.0,0.0,0.0,0.0,0.0,0.0,0.0,2.3351,2.4002,2.4591,2.4663,2.6171,2.8,2.9148,3.3036,3.7322,3.9759,4.3031,4.6517,4.9824,4.9862,4.9792,5.1839,5.7762,6.0992,5.5953,5.8688,6.1939,6.2694,6.5179,6.7525,6.8921,6.8833,6.8527,6.8256,6.6987,6.6013,6.5755,6.4922,6.432,6.4114,6.2743,6.1935,6.1944,6.0342,5.9419,5.9419,5.8612,5.8099,5.7966,5.744,5.6855,5.6257,5.6721,5.7557,5.8644,5.8394,5.8311,5.8273,5.754,5.7328,5.7411,5.7062,5.7257,5.7764,5.803,5.8443,5.8807,5.8668,5.8694,5.8807,0.0,0.0,0.0,0.0,0.0,0.0,0.0,0.0,0.0,0.0,1.8307,1.8448,0.0,0.0,0.0,0.0,0.0,0.0,0.0,1.9002,1.974,2.1425,2.1571,2.2612,2.4611,2.5164,2.5959,2.7015,2.7248,2.7132,2.6654,2.5748,2.5387,2.5514,2.4295,2.3853,2.3945,2.3364,2.3028,2.2876,2.2306,2.1987,2.1747,0.0,0.0,0.0,0.0,0.0,0.0,0.0,0.0,0.0,2.2738,2.3425,2.4212,2.4514,2.6244,2.8456,3.0194,3.4551,3.9452,4.2754,4.6143,4.9269,5.1752,5.3781,5.5033,5.4775,5.9879,6.3322,5.9994,6.0902,6.2554,6.3886,6.4795,6.5628,6.6269,6.6218,6.5986,6.5635,6.4725,6.3945,6.3638,6.3113,6.2536,6.1843,6.0858,6.015,5.9826,5.8842,5.828,5.8303,5.7672,5.7205,5.6828,5.6278,5.5734,5.5228,5.5655,5.6545,5.7802,5.7529,5.739,5.7359,5.7045,5.6727,5.6463,5.6998,5.7253,5.7392,5.7736,5.8054,5.8434,5.8781,5.8704,5.8511,0.0,0.0,1.7224,1.7322,0.0,0.0,0.0,0.0,0.0,0.0,1.8368,1.8545,0.0,0.0,0.0,0.0,0.0,0.0,0.0,0.0,1.974,2.1424,2.1771,2.2997,2.5333,2.537,2.539,2.5392,2.6184,2.6528,2.6355,2.556,2.5476,2.5986,2.4396,2.3988,2.4409,2.3362,2.2797,2.2609,2.166,2.1752,2.2289,2.0636,0.0,0.0,0.0,0.0,0.0,0.0,0.0,0.0,2.2925,2.3027,2.3206,2.4936,2.6513,2.8346,3.1125,3.5313,3.9946,4.4493,4.9235,5.343,5.5614,5.854,6.0545,5.9829,6.2968,6.5733,6.5257,6.3526,6.2449,6.3205,6.3974,6.4205,6.3411,6.3911,6.4089,6.3276,6.3122,6.2775,6.1944,6.1867,6.1189,5.9511,5.9319,5.8934,5.8226,5.8088,5.805,5.8072,5.728,5.6397,5.5486,5.4829,5.4381,5.421,5.4676,5.5269,5.5949,5.6207,5.6251,5.6137,5.6595,5.6331,5.5682,5.6907,5.7226,5.6973,5.778,5.8204,5.8511,5.9271,5.9216,5.8792,0.0,0.0,1.7395,1.7448,0.0,0.0,0.0,0.0,0.0,0.0,0.0,0.0,0.0,0.0,0.0,0.0,0.0,0.0,0.0,0.0,1.981,2.1441,2.279,2.3819,2.4487,2.4447,2.441,2.4487,2.5353,2.5387,2.4704,2.4344,2.4242,2.4324,2.384,2.3267,2.2622,2.2212,2.1923,2.167,2.1351,2.1644,2.2158,2.0495,2.0391,0.0,0.0,0.0,0.0,0.0,0.0,0.0,2.2281,2.2583,2.2998,2.4403,2.662,2.9407,3.3043,3.7356,4.2221,4.8029,5.4759,6.0204,6.1349,6.2708,6.1876,5.5396,6.0365,6.4576,6.0234,6.1441,6.3113,6.3267,6.3474,6.3512,6.3344,6.2911,6.2565,6.2367,6.1728,6.0997,6.0127,6.005,5.9627,5.8627,5.7934,5.7434,5.7302,5.6626,5.6242,5.6242,5.5782,5.4956,5.3743,5.4265,5.3645,5.1982,5.3378,5.3833,5.3465,5.5423,5.5772,5.494,5.5638,5.5493,5.4818,5.5753,5.6099,5.6165,5.6319,5.6917,5.7636,5.7862,5.8234,5.8713,0.0,0.0,0.0,0.0,0.0,0.0,0.0,0.0,0.0,0.0,0.0,0.0,0.0,1.8806,0.0,0.0,1.9036,1.9036,1.9084,1.9497,2.0278,2.1553,2.2718,2.3432,2.3528,2.3931,2.3969,2.3621,2.4118,2.4266,2.4112,2.3935,2.3816,2.3789,2.3629,2.3221,2.2693,2.2048,2.1631,2.1439,2.1196,2.1097,2.1015,2.0096,1.9794,1.9736,1.8435,0.0,0.0,0.0,0.0,0.0,0.0,0.0,2.2877,2.4116,2.5995,2.8688,3.2937,3.7376,4.2738,5.1047,5.7319,6.1704,6.2551,6.3358,6.2746,5.8451,6.1339,6.3783,6.0916,6.1659,6.2704,6.2743,6.2397,6.2089,6.2113,6.1396,6.0858,6.0843,6.0111,5.9435,5.8973,5.8934,5.8396,5.7165,5.6626,5.6011,5.5203,5.4741,5.4511,5.4511,5.4281,5.3775,5.2927,5.3359,5.3015,5.1903,5.2807,5.3102,5.2962,5.4647,5.5086,5.4549,5.5357,5.5241,5.4549,5.5434,5.5818,5.5899,5.6016,5.6636,5.7597,5.7981,5.8204,5.8382,0.0,0.0,0.0,0.0,0.0,0.0,0.0,0.0,0.0,0.0,0.0,0.0,0.0,1.8843,1.8985,0.0,0.0,0.0,1.955,2.022,2.0929,2.1476,2.2173,2.2592,2.2648,2.3419,2.3456,2.2793,2.2879,2.3216,2.3836,2.3701,2.3728,2.3825,2.3629,2.3293,2.287,2.1871,2.128,2.1002,2.082,2.0384,1.9777,1.9734,1.9263,1.8516,1.7822,1.8176,1.9058,1.95,0.0,0.0,0.0,0.0,2.279,2.3989,2.529,2.7359,3.1781,3.705,4.3578,5.2931,5.805,6.0935,6.1512,6.2281,6.282,6.2666,6.2872,6.304,6.2886,6.2334,6.1834,6.1656,6.1065,6.0589,6.0589,5.9858,5.9281,5.9303,5.8704,5.8165,5.7896,5.7857,5.7126,5.5395,5.528,5.4587,5.3049,5.2972,5.2972,5.2972,5.2972,5.27,5.2176,5.2386,5.2222,5.1721,5.1914,5.2396,5.3049,5.3741,5.4164,5.4318,5.5318,5.528,5.4587,5.5549,5.5994,5.5997,5.6156,5.683,5.783,5.8467,5.8481,5.8242,0.0,0.0,0.0,0.0,0.0,0.0,0.0,0.0,0.0,0.0,1.8463,1.86,1.8769,1.8806,1.9201,2.0117,2.0206,2.0531,2.1314,0.0,0.0,2.0868,2.1607,2.2013,2.2013,2.214,2.2124,2.198,2.2046,2.2453,2.3216,2.3124,2.3381,2.3894,2.3732,2.2696,2.1068,2.072,1.9986,1.9126,1.9662,1.9844,1.9803,1.9731,1.926,1.8581,1.7806,1.7933,1.8583,1.9218,2.0002,0.0,0.0,0.0,2.2603,2.3902,2.5059,2.6682,3.0345,3.8601,4.7342,5.2312,5.7203,6.0627,5.9973,6.0517,6.0916,6.0142,6.1228,6.205,6.1275,6.1055,6.0742,5.9988,5.9758,5.9681,5.9681,5.895,5.8473,5.8457,5.8357,5.7703,5.6203,5.6049,5.5357,5.3664,5.3549,5.3126,5.2125,5.2087,5.2087,5.2087,5.2087,5.1547,5.0448,5.1467,5.0719,4.8183,4.9317,5.0664,5.2241,5.2356,5.2779,5.3472,5.5126,5.5416,5.4762,5.5763,5.6225,5.634,5.6346,5.6991,5.7877,5.7994,5.8432,5.9134,0.0,0.0,0.0,0.0,0.0,0.0,0.0,0.0,0.0,0.0,0.0,1.86,1.8715,1.8788,1.9237,2.0315,1.9984,2.016,2.1131,2.0778,2.0588,2.0677,2.0979,2.1184,2.1184,2.1611,2.1643,2.1226,2.1272,2.1742,2.266,2.2629,2.3101,2.3919,2.3324,2.2568,2.158,2.0406,1.9579,1.908,1.9169,1.9194,1.9177,1.9102,1.8923,1.8626,1.7929,1.7974,1.8426,1.8958,1.9657,2.0443,2.1069,0.0,0.0,0.0,2.3737,2.5333,3.0453,3.7723,4.4963,4.958,5.3651,5.6819,5.7873,5.8773,5.9311,5.8918,5.9419,5.9858,5.948,5.9396,5.9265,5.8896,5.8835,5.8835,5.8842,5.8088,5.7396,5.6917,5.6472,5.5682,5.4413,5.428,5.3608,5.1933,5.1779,5.1202,4.9856,4.9779,4.9779,4.9779,4.9779,4.9509,4.8971,4.951,4.9105,4.7855,4.899,4.9952,5.0721,5.1757,5.2404,5.2794,5.4566,5.4882,5.4211,5.5692,5.634,5.6403,5.6472,5.7094,5.789,5.789,5.8125,5.8507,0.0,0.0,0.0,0.0,0.0,0.0,0.0,0.0,0.0,0.0,0.0,1.8638,1.8715,0.0,0.0,0.0,1.9855,1.9895,2.0752,2.0196,1.9996,2.0418,2.0411,2.0366,2.0335,2.0963,2.101,2.047,2.0555,2.1161,2.2257,2.2294,2.2949,2.4097,2.3339,2.253,2.1693,2.0371,1.9517,1.9028,1.9094,1.894,1.8701,1.9088,1.914,1.9015,1.8572,1.8581,1.8812,1.9083,1.9624,2.0315,2.0671,2.1287,0.0,0.0,0.0,2.4392,3.0186,3.5348,4.0404,4.5529,4.9269,5.2374,5.5083,5.6374,5.7088,5.7285,5.7148,5.7011,5.6989,5.7709,5.8231,5.8033,5.778,5.7649,5.7653,5.6621,5.5692,5.5126,5.4254,5.3366,5.2644,5.2277,5.1547,5.0125,4.9951,4.9298,4.7894,4.7817,4.7817,4.7817,4.7817,4.7798,4.7799,4.7586,4.7566,4.7835,4.8797,4.9413,4.9759,5.1305,5.2041,5.2164,5.3877,5.4244,5.378,5.5428,5.6017,5.5831,5.6372,5.6875,5.7265,5.75,5.7578,5.7571,0.0,0.0,0.0,0.0,0.0,0.0,0.0,0.0,0.0,0.0,0.0,1.8641,1.8788,1.8843,1.9289,2.0313,2.0416,2.0562,2.0796,2.0774,2.0429,1.9763,1.9738,0.0,1.9639,1.9745,1.9745,1.9573,1.9814,2.0703,2.2201,2.227,2.3064,2.4459,2.4155,2.255,2.0061,2.0519,1.9682,1.811,1.9464,1.9463,1.879,2.0289,2.0504,2.0037,2.0062,2.0101,2.0104,1.9905,2.0199,2.067,2.0772,2.1201,2.1768,0.0,0.0,0.0,2.8603,3.1462,3.4539,4.0041,4.4495,4.8318,5.1452,5.2856,5.3703,5.4528,5.4028,5.3472,5.3451,5.613,5.8038,5.7208,5.6382,5.5843,5.5843,5.4111,5.2933,5.3276,5.2235,5.1285,5.0875,4.9805,4.8859,4.8298,4.7945,4.752,4.6991,4.6971,4.6971,4.6971,4.6971,4.6952,4.6972,4.6163,4.6163,4.7086,4.7951,4.8913,4.999,5.0856,5.1331,5.1558,5.3184,5.3815,5.386,5.4918,5.4881,5.4295,5.5937,5.6133,5.5547,5.6367,5.668,5.6756,0.0,0.0,0.0,0.0,0.0,0.0,0.0,0.0,0.0,0.0,0.0,0.0,0.0,1.855,1.8879,2.0478,2.0646,2.0544,2.0161,2.0175,2.0038,1.9763,1.9776,1.9738,1.9647,1.9647,1.9647,1.9633,1.9713,2.0352,2.1414,2.1505,2.2037,2.2954,2.2765,2.2063,2.0921,1.9936,1.9073,1.8498,1.9199,1.9579,1.9747,2.0229,2.062,2.1068,2.2573,2.3087,2.3386,2.5279,2.498,2.3756,2.3777,2.2849,2.1807,2.2113,2.2841,2.4164,2.6627,2.9026,3.1758,3.5773,3.9449,4.2686,4.4957,4.7608,4.9852,5.0713,5.168,5.2358,5.2377,5.382,5.4916,5.4608,5.4089,5.3719,5.369,5.2398,5.1307,5.0924,5.003,4.9238,4.8777,4.8318,4.7876,4.7394,4.7242,4.6839,4.6086,4.6086,4.6086,4.6086,4.6086,4.6124,4.6201,4.5932,4.595,4.6334,4.7276,4.8218,4.9181,5.0144,5.0868,5.1418,5.2025,5.2575,5.3214,5.4679,5.4805,5.418,5.5937,5.6055,5.5388,5.6163,5.6484,5.647,0.0,0.0,0.0,0.0,0.0,0.0,0.0,0.0,0.0,0.0,0.0,0.0,0.0,0.0,1.891,2.0233,2.0373,2.0233,1.9763,1.9751,1.9776,1.9776,1.9763,1.9738,1.9699,1.9609,1.9596,1.9633,1.9675,2.015,2.0974,2.1029,2.1467,2.2129,2.1719,2.1434,2.1218,1.9919,1.9091,1.8769,1.9475,1.9946,2.0516,2.2509,2.3406,2.4019,2.6837,2.7633,2.7661,2.92,2.8028,2.5914,2.5536,2.3755,2.1807,2.2032,2.2598,2.3493,2.4731,2.6514,2.881,3.2353,3.4921,3.7373,4.0378,4.3316,4.5791,4.7294,4.9009,5.0298,5.0567,5.1009,5.1502,5.2077,5.172,5.1294,5.123,5.0123,4.9229,4.8947,4.8112,4.7461,4.7391,4.7024,4.6698,4.6471,4.6378,4.6091,4.5624,4.5586,4.5586,4.5586,4.5624,4.5719,4.5796,4.5866,4.5905,4.5988,4.6947,4.7728,4.8382,4.9317,5.0213,5.1016,5.1016,5.1484,5.2383,5.3828,5.3906,5.3281,5.5039,5.5351,5.4954,5.5691,5.6148,5.634,0.0,0.0,0.0,0.0,0.0,0.0,0.0,0.0,0.0,1.8682,0.0,0.0,0.0,0.0,0.0,1.9602,1.9647,1.9673,1.9596,1.9662,1.9713,1.9713,1.9712,1.9686,1.9686,1.9647,1.9555,1.9499,1.9623,2.0111,2.0854,2.0916,2.1405,2.2111,2.1166,2.0736,2.0669,2.0453,1.9756,1.8896,2.0336,2.0785,2.1167,2.724,2.9107,2.8979,3.2753,3.3618,3.2752,3.1279,2.9149,2.6894,2.5783,2.3692,2.1731,2.1956,2.2086,2.2345,0.0,0.0,0.0,2.9699,3.1013,3.2679,3.7914,3.9981,4.1556,4.4306,4.586,4.6992,4.7837,4.7716,4.7999,4.9639,4.9272,4.8718,4.8369,4.7252,4.6727,4.7428,4.6468,4.6059,4.6799,4.5796,4.524,4.5547,4.5298,4.5235,4.5568,4.5586,4.5586,4.5586,4.5719,4.5796,4.5791,4.5864,4.5981,4.6116,4.6943,4.7473,4.7617,4.8476,4.9336,5.0156,5.0195,5.0625,5.1445,5.2344,5.2187,5.1562,5.332,5.3984,5.4095,5.4839,5.5647,5.634,0.0,0.0,0.0,0.0,0.0,0.0,1.7772,1.7701,1.7964,0.0,0.0,0.0,1.925,1.9464,1.9602,1.9647,1.9647,1.9673,1.9738,1.9725,1.9712,1.9712,1.9699,1.9673,1.9647,1.966,1.9633,1.9564,1.966,1.9758,1.9884,1.9921,2.041,2.1232,2.0263,2.0252,2.0803,2.0018,1.9801,2.0246,2.297,2.4709,2.6041,2.9573,3.1569,3.2772,3.5433,3.6651,3.7057,3.7571,3.4906,3.045,2.5087,2.2806,2.2022,2.1953,2.199,2.2212,2.2902,0.0,0.0,0.0,0.0,0.0,3.2391,3.4339,3.6682,4.0557,4.2112,4.3176,4.4789,4.4995,4.4905,4.4831,4.6139,4.7132,4.7042,4.6178,4.5618,4.5848,4.5293,4.5103,4.555,4.5316,4.524,0.0,4.5514,4.5495,4.5586,4.5586,4.5586,4.5586,4.5796,4.588,4.5884,4.6088,4.6205,4.6236,4.647,4.6931,4.7617,4.7851,4.8437,4.9297,4.9922,5.0312,5.0625,5.2109,5.2187,5.1562,5.332,5.3984,5.4099,5.4723,5.5509,5.6225,0.0,0.0,1.7645,1.7122,0.0,1.7739,1.7985,1.7858,1.81,0.0,0.0,0.0,1.939,1.9573,1.9629,1.966,1.966,1.9673,1.9699,1.9673,1.966,1.9596,1.9582,1.9569,1.9569,1.9592,1.9564,1.9522,1.955,1.9508,1.9442,1.9405,1.973,2.0248,1.9704,1.9813,2.0337,1.975,2.0546,2.2322,2.3639,2.5368,2.7574,3.166,3.3573,3.4715,3.9179,4.1102,4.1514,4.1553,3.8514,3.331,2.5302,2.358,2.4212,2.2632,2.2362,2.2631,2.2699,2.3306,2.4144,2.497,0.0,0.0,2.997,3.1719,3.3956,3.7721,3.9216,4.0388,4.2172,4.2071,4.1719,4.1791,4.2917,4.4197,4.5301,4.5156,4.4881,4.4659,4.4714,4.4813,4.4764,4.5124,4.5393,4.5586,4.5257,4.4893,4.4586,4.4586,4.4778,4.5141,4.5334,4.5631,4.5967,4.6198,4.6289,4.6289,4.6289,4.6562,4.707,4.707,4.7539,4.8398,4.8906,4.9531,5.0273,5.125,5.1562,5.1484,5.2539,5.3359,5.4023,5.4333,5.5204,5.6263,0.0,0.0,1.7808,1.7201,1.775,1.8342,1.848,1.8126,1.8129,0.0,1.872,1.8652,1.9499,1.9676,1.9704,1.962,1.9735,1.9772,1.9615,1.9592,1.9555,1.9462,1.9442,1.9405,1.949,1.9413,1.9405,1.9398,1.9323,1.9261,1.9271,1.9246,1.9295,1.9381,1.9375,1.9456,1.9599,1.9864,2.1821,2.4701,2.3892,2.5226,2.837,3.4207,3.6052,3.6435,4.309,4.5509,4.5278,4.302,3.99,3.537,2.652,2.5567,2.7161,2.3915,2.3306,2.3444,2.2546,2.3013,2.3884,2.454,2.5258,0.0,2.944,3.0826,3.2363,3.5386,3.6693,3.7846,3.9472,3.8905,3.8588,3.973,3.9816,4.0659,4.3282,4.4062,4.4208,4.37,4.4386,4.4683,4.4226,4.4893,4.5316,4.5316,4.4603,4.3871,4.3162,4.3184,4.3564,4.4338,4.4658,4.5163,4.595,4.617,4.6289,4.6289,4.6289,4.6289,4.6289,4.6289,4.6719,4.7461,4.7578,4.8476,4.9922,5.0117,5.0664,5.1406,5.1406,5.2461,5.3984,5.3867,5.4913,5.6387,1.7453,1.7701,1.7732,1.722,1.7282,1.7538,1.7894,1.7868,1.8177,1.9151,1.9251,1.9308,1.9435,2.0115,2.0299,1.9653,2.0266,2.0341,1.9653,1.9485,1.9427,1.9316,1.9344,1.9344,1.9331,1.9338,1.9292,1.923,1.9182,1.9117,1.9053,1.9019,1.9034,1.9166,1.9219,1.9292,1.9559,2.1017,2.3277,2.6119,2.866,3.2441,3.69,4.0348,4.2353,4.3513,4.4243,4.4991,4.4725,3.9107,3.6879,3.5419,2.9471,2.7944,2.8013,2.6428,2.5331,2.4291,2.2869,2.3431,2.4366,2.3842,2.4838,0.0,2.793,2.8393,2.9474,3.2931,3.302,3.3062,3.4981,3.5496,3.5873,3.6736,3.7718,3.9102,4.1154,4.229,4.2857,4.2768,4.3197,4.3457,4.3338,4.3508,4.3585,4.3585,4.347,4.3387,4.3343,4.3349,4.3434,4.3606,4.4399,4.4876,4.503,4.5897,4.6289,4.6289,4.6289,4.6289,4.6289,4.6289,4.6406,4.6601,4.7305,4.7773,4.8203,4.9609,5.0664,5.1406,5.1406,5.2461,5.3984,5.3867,5.4915,5.6397,1.6897,1.7492,1.7872,1.7279,1.7587,1.7983,1.8323,1.8422,1.8645,1.9193,1.9353,1.9775,2.0633,2.0418,2.0224,2.0266,2.0294,2.0108,1.9643,1.9499,1.9427,1.9338,1.9298,1.9214,1.9193,1.913,1.9064,1.9051,1.8983,1.8913,1.8843,1.8825,1.9076,1.9577,1.9232,1.9437,2.0099,2.2428,2.5219,2.8169,2.9851,3.28,3.6651,4.0234,4.2087,4.3004,4.4418,4.524,4.482,3.9681,3.8066,3.725,3.1914,3.0018,2.9379,2.7574,2.6145,2.476,2.315,2.3363,2.3867,2.3295,2.4123,0.0,0.0,2.7369,2.8517,3.1758,3.1554,3.1401,3.3348,3.3203,3.3121,3.4228,3.4895,3.5688,3.6829,3.9241,4.0899,4.0899,4.1058,4.1216,4.12,4.1585,4.1816,4.1893,4.1981,4.2047,4.2083,4.2184,4.2386,4.2846,4.3355,4.38,4.4236,4.5174,4.5664,4.5664,4.6094,4.6289,4.6289,4.6289,4.6289,4.6328,4.6758,4.7187,4.7656,4.8555,4.9648,5.0859,5.125,5.2461,5.3984,5.3906,5.5,5.6484,1.6265,1.7261,1.8045,1.7561,1.8084,1.8659,1.8861,1.9,1.9134,1.9219,1.9476,2.044,2.257,2.1295,2.0774,2.1994,2.0919,2.0043,1.9815,1.9596,1.945,1.936,1.9235,1.9117,1.9101,1.8966,1.8878,1.8825,1.8628,1.859,1.8659,1.8518,1.893,1.9848,1.9434,2.0077,2.1697,2.4129,2.7222,3.0494,3.118,3.2675,3.5003,3.928,4.0635,4.0749,4.4323,4.5586,4.5068,4.1532,4.0587,3.992,3.4191,3.206,3.1092,2.8242,2.6487,2.5076,2.3432,2.3352,2.3653,2.3145,2.3772,2.4769,0.0,0.0,0.0,3.0416,3.044,3.0528,3.2112,3.1283,3.072,3.1802,3.2182,3.2316,3.2381,3.547,3.7878,3.8252,3.8514,3.8661,3.8716,3.9531,4.0085,4.0239,4.0319,4.0421,4.0637,4.0742,4.1209,4.2073,4.2295,4.2734,4.3437,4.4492,4.5,4.5,4.5898,4.6289,4.6289,4.6289,4.6289,4.6289,4.6289,4.6719,4.7344,4.7539,4.8437,4.9805,5.0781,5.2226,5.375,5.375,5.4765,5.6094,1.7547,1.7902,1.8197,1.8121,1.8378,1.8659,1.8861,1.9,1.915,1.9266,1.9984,2.1729,2.5019,2.3838,2.3801,2.6263,2.3593,2.1374,2.0541,1.9764,1.9298,1.9235,1.9104,1.9036,1.9019,1.8896,1.8734,1.8641,1.7894,1.7892,1.8506,1.7857,1.8037,1.8983,1.9723,2.1985,2.5265,2.6424,2.8995,3.2645,3.6485,3.8129,3.8706,4.2424,4.2754,4.1609,4.4554,4.5586,4.5127,4.224,4.2393,4.2736,3.6427,3.4315,3.3245,2.8993,2.6841,2.5449,2.3727,2.4367,2.5158,2.3797,2.4549,2.545,2.4875,0.0,2.7014,2.7472,0.0,2.8457,2.9042,0.0,0.0,2.921,3.0527,3.1099,2.968,3.0941,3.2711,3.4475,3.568,3.6426,3.6555,3.7655,3.8454,3.8654,3.8685,3.9071,3.9956,4.0033,4.0422,4.1281,4.203,4.2461,4.2539,4.418,4.5,4.5,4.5898,4.6289,4.6289,4.6289,4.6289,4.6289,4.6289,4.6367,4.6523,4.7266,4.7734,4.8047,4.9687,5.1367,5.2851,5.2851,5.3476,5.4297,1.7693,1.7949,1.8197,1.8348,1.8584,1.8843,1.8984,1.9483,2.0091,2.0715,2.1099,2.3405,2.8981,2.534,2.5223,3.1998,2.7576,2.5295,2.7418,2.4354,2.379,2.6779,2.1869,2.0242,2.2773,2.0174,1.8714,1.8526,1.819,1.8148,1.8328,1.8073,1.8475,1.943,2.1043,2.3214,2.5935,2.9585,3.1282,3.1914,3.6451,3.7219,3.6274,4.2637,4.4243,4.3174,4.3897,4.4453,4.4589,4.2926,4.2488,4.2183,3.9662,3.6134,3.2635,3.1315,2.83,2.564,2.6957,2.7515,2.7643,2.701,2.7346,2.7268,2.5135,2.5122,2.5861,2.6908,0.0,0.0,0.0,0.0,0.0,0.0,2.8131,2.7997,2.726,2.7629,2.8824,3.1121,3.2468,3.365,3.4792,3.4333,3.4738,3.6696,3.6221,3.6604,3.8281,3.8789,3.9453,4.043,4.0694,4.1081,4.1596,4.3221,4.408,4.408,4.5502,4.6172,4.6172,4.625,4.6289,4.6289,4.6289,4.6289,4.6328,4.668,4.7148,4.7656,4.8398,5.0039,5.1992,5.25,5.3242,5.3984,1.7636,1.7905,1.8176,1.8393,1.8659,1.9004,1.9427,2.0021,2.0779,2.1808,2.207,2.511,3.2899,2.8608,2.8961,3.8456,3.3304,3.0614,3.3118,2.8509,2.75,3.1629,2.5028,2.2479,2.5169,2.2191,1.9898,1.8483,1.8198,1.8153,1.8225,1.8099,1.8623,1.9795,2.182,2.458,2.7939,3.2327,3.4276,3.4735,3.8146,3.8191,3.6787,4.1837,4.3859,4.3871,4.3316,4.3607,4.4222,4.3624,4.3059,0.0,4.1349,3.7679,3.3614,3.3107,3.0272,2.7835,3.0095,3.032,2.9925,2.9965,2.9243,2.8028,2.6075,2.5397,2.5461,2.6475,2.6921,0.0,0.0,0.0,2.6935,2.6927,0.0,2.5805,2.5218,2.5465,2.6368,2.808,2.9324,3.0659,3.2278,3.1203,3.1431,3.3913,3.3407,3.4068,3.6594,3.7324,3.8339,3.9798,3.9966,4.0304,4.0947,4.2589,4.338,4.3419,4.5202,4.6072,4.6094,4.6211,4.6289,4.6289,4.6289,4.6289,4.6289,4.6289,4.668,4.7266,4.75,4.8867,5.082,5.168,5.2539,5.3281,1.7499,1.7816,1.8155,1.8283,1.8586,1.9183,2.0303,2.0503,2.0866,2.1893,2.2567,2.6635,3.6272,3.4832,3.6691,4.5513,4.138,3.7338,3.5072,3.0691,2.8734,2.9946,2.7838,2.5892,2.4264,2.482,2.29,1.8423,1.7478,1.7472,1.826,1.7498,1.7934,1.9491,2.1526,2.6303,3.2954,3.4149,3.8213,4.3876,4.4047,4.403,4.359,4.0347,4.0802,4.3156,4.3118,0.0,0.0,4.4278,4.4816,0.0,0.0,0.0,0.0,3.3615,3.2767,3.3056,0.0,0.0,0.0,3.1727,0.0,0.0,0.0,0.0,2.6147,2.5507,2.6431,2.7211,2.6658,2.6527,2.6286,2.5585,2.5957,0.0,0.0,2.4766,2.5714,2.5481,2.6448,2.75,2.838,2.8894,2.9418,3.005,3.0235,3.177,3.5084,3.566,3.7065,3.9615,4.0382,4.077,4.0793,4.2524,4.3393,4.3436,4.512,4.5975,4.6094,4.6094,4.6172,4.6289,4.6289,4.6289,4.6289,4.6289,4.6328,4.6445,4.7266,4.8164,4.9101,4.9961,5.0781,5.1484,1.7445,1.776,1.8117,1.8348,1.8603,1.9201,2.0376,2.1471,2.3728,2.8182,2.9439,3.4074,4.484,4.2141,4.3059,5.1851,4.674,4.3714,4.5285,3.9603,3.7656,4.1008,3.4276,3.0394,3.0246,2.7009,2.3303,1.9213,1.8307,1.7962,1.8155,1.7838,1.825,1.9361,2.1978,2.6184,3.1502,3.4452,3.7205,3.9717,4.0309,3.989,3.9069,4.036,4.1404,4.2255,4.2255,4.2777,0.0,4.4124,4.4893,4.524,4.3167,4.1311,3.9593,3.7964,3.6008,0.0,0.0,0.0,3.7201,3.6425,0.0,0.0,0.0,0.0,0.0,0.0,2.5846,2.6578,2.5837,2.5643,2.5485,2.5193,2.486,2.4208,0.0,2.2412,2.2126,2.1893,2.3404,2.51,2.6614,2.609,2.6501,2.8505,2.825,0.0,3.2969,3.3708,3.5212,3.7839,3.862,3.9289,3.9884,4.1508,4.2624,4.3222,4.4414,4.531,4.5925,4.6027,4.6133,4.6172,4.625,4.6289,4.6289,4.6289,4.6289,4.6328,4.6601,4.7266,4.8203,4.9687,5.0703,5.1406,1.7499,1.7737,1.8075,1.8315,1.8905,1.9723,2.0833,2.3967,2.7084,2.9551,3.3904,3.9619,4.7231,4.6734,4.8865,5.6374,5.2658,5.0161,5.0664,4.5803,4.3828,4.5893,3.9582,3.5665,3.4851,3.0396,2.5758,2.109,1.966,1.8753,1.8437,1.862,1.9083,1.9938,2.2303,2.5899,3.0389,3.4391,3.711,3.8766,3.9071,3.8747,3.827,4.0091,4.0965,4.1311,0.0,4.2816,4.3624,4.4124,4.4893,4.5432,4.4586,4.3129,4.1733,4.13,3.9768,3.8788,4.132,4.1377,0.0,4.0081,3.7699,0.0,3.1939,0.0,2.867,0.0,0.0,2.7315,2.6381,2.5173,2.4413,2.4689,2.3692,2.2617,0.0,2.0683,1.9968,1.9717,2.1027,2.2513,2.3962,2.2993,2.3474,2.6365,2.5694,2.7121,3.1533,3.2219,3.3846,3.6863,3.7993,3.8815,3.9369,4.0969,4.2085,4.2662,4.3838,4.4761,4.5334,4.5804,4.6019,4.6094,4.6172,4.625,4.6289,4.6289,4.6289,4.6289,4.6289,4.7031,4.8203,4.9336,5.043,5.1406,1.7647,1.7823,1.8155,1.8375,1.9527,2.0735,2.1694,2.7438,3.0339,2.6637,3.5798,4.3056,4.4145,4.8958,5.4134,5.9127,5.8819,5.628,5.1395,4.9238,4.7107,4.4855,4.3655,4.1437,3.7924,3.4737,3.0109,2.3966,2.136,1.9729,1.9083,1.9614,2.0303,2.1063,2.2434,2.5493,2.9893,3.3858,3.7791,4.1284,4.0748,4.0958,4.1342,3.9886,3.9753,4.0595,4.2497,4.3662,4.4316,4.4355,4.4893,4.547,4.4624,4.4355,4.4201,4.3431,4.3794,4.4179,4.3376,4.248,4.1928,4.2483,0.0,0.0,0.0,0.0,3.4489,0.0,0.0,0.0,2.8116,2.5277,2.3382,2.4063,2.2518,2.1013,2.0338,1.9714,1.9208,1.8936,1.9334,1.987,2.05,1.9895,2.067,2.3586,2.2671,2.4576,3.0559,3.1039,3.2831,3.6473,3.83,3.9238,3.9238,4.0893,4.1777,4.1816,4.3431,4.4316,4.453,4.5355,4.5875,4.6092,4.6094,4.6172,4.6289,4.6289,4.6289,4.6289,4.6289,4.7383,4.8906,4.8984,5.0039,5.1406,1.7638,1.8349,1.9307,2.0151,2.1255,2.2146,2.2575,2.5227,2.8484,3.2015,3.8953,4.5354,5.003,5.5285,5.8989,6.0358,5.9704,5.8396,5.6472,5.4084,5.22,5.0971,4.8241,4.5036,4.1418,3.5715,3.0649,2.6271,2.1913,1.9739,1.9681,1.9721,2.0217,2.1083,2.1653,2.4453,2.8883,3.0924,3.5189,4.0786,4.3269,4.3156,4.1666,0.0,4.3156,4.2297,4.3534,4.4124,4.4393,4.5047,4.5393,4.5547,4.5316,4.5278,4.524,4.5009,4.5086,4.5086,4.4239,4.4261,4.4246,4.2947,4.0959,3.9162,0.0,0.0,0.0,0.0,0.0,0.0,0.0,0.0,2.5662,2.2879,2.1243,2.0174,1.9765,1.8939,1.8478,1.8801,1.8634,1.8515,1.8563,1.9493,2.0474,2.124,2.1374,2.2857,2.6117,2.7968,2.9965,3.2221,3.6233,3.8315,3.8315,4.0008,4.1162,4.1816,4.2239,4.3124,4.4355,4.4684,4.524,4.597,4.6062,4.6172,4.6289,4.6289,4.6289,4.6289,4.6289,4.7383,4.9062,5.0312,5.1016,5.1406,1.8568,1.9513,2.0636,2.1394,2.2394,2.394,2.6486,2.9364,3.2638,3.6615,4.4437,5.0019,5.113,5.6982,6.0781,6.0781,6.0358,5.9242,5.728,5.6549,5.5126,5.2741,5.0779,4.826,4.5074,3.9029,3.3623,2.9023,2.4811,2.191,2.0351,2.0544,2.0994,2.1556,2.1962,2.402,2.7488,3.16,3.5773,3.9795,4.2659,4.3119,0.0,4.3348,4.3903,4.4095,4.4684,4.4855,4.4932,4.5432,4.5586,4.5586,4.5586,4.5316,4.5086,4.547,4.5316,4.5009,4.4893,4.4932,4.4858,4.4078,4.2984,4.1813,4.0784,3.9546,3.8207,0.0,3.5475,3.3761,0.0,0.0,2.5441,2.1353,2.0453,1.9993,1.9259,1.8653,1.8322,1.8438,1.8394,1.8178,1.776,1.847,1.9405,2.0503,2.0365,2.2041,0.0,2.6638,2.8094,3.0999,3.4851,3.6008,3.4211,3.8782,4.0432,3.9185,4.0969,4.2508,4.3778,4.4222,4.4932,4.5868,4.5952,4.608,4.6211,4.6289,4.6289,4.6328,4.6719,4.7695,4.9062,5.0391,5.1094,5.1406,1.9967,2.0883,2.2021,2.2912,2.3486,2.6168,3.3026,3.6311,3.8633,4.0385,4.9848,5.4715,5.0095,5.6329,6.0781,6.0781,6.0704,5.9358,5.6395,5.7396,5.6472,5.2741,5.2164,5.0818,4.8509,4.2852,3.724,3.179,2.8337,2.4717,2.1033,2.1611,2.1998,2.2169,2.2668,2.4101,2.6631,3.4061,3.7823,3.8984,4.1151,4.2508,4.3082,4.2316,4.3537,4.5586,4.5586,4.5586,4.5586,4.5586,4.5586,4.5586,4.5586,4.5009,4.4432,4.5201,4.4893,4.4432,4.5086,4.4893,4.4624,4.5257,4.4872,4.4124,4.3431,4.3085,4.2431,4.0662,3.8288,3.634,0.0,0.0,2.4358,2.0852,2.0446,2.0173,1.904,1.9003,1.8886,1.8258,1.8767,0.0,1.7736,1.7516,1.8293,2.0348,1.9385,2.1287,0.0,0.0,2.6248,3.0283,3.3537,3.3584,3.0158,3.7785,3.9947,3.6633,4.0003,4.2162,4.3124,4.3816,4.4739,4.5813,4.5879,4.6008,4.6133,4.625,4.6289,4.6367,4.7148,4.8047,4.8984,4.9766,5.0625,5.1406,2.0745,2.1369,2.3082,2.6863,2.5932,2.9198,4.2927,3.9499,3.7217,4.2519,4.9324,5.3322,5.2357,5.7367,6.0781,6.0781,6.0127,5.9473,5.8858,5.7819,5.6896,5.6126,5.3395,5.1395,5.0279,4.3232,3.7532,3.332,2.8598,2.4711,2.1745,2.1849,2.2089,2.2426,2.2694,2.4955,2.8883,3.468,3.8229,4.0291,4.3576,4.4974,4.5089,4.4935,4.5184,4.5586,4.5586,4.5586,4.5586,4.5586,4.5586,4.5586,4.5586,4.5009,4.4316,4.447,4.4432,4.4201,4.3662,4.4432,4.5257,4.4675,4.4388,4.4239,4.4107,4.3008,4.1925,4.1578,4.0363,3.8595,3.5997,0.0,0.0,2.5709,2.2678,2.0213,1.9846,2.0952,2.1119,1.9277,2.0985,2.1101,1.8076,1.868,1.9148,1.8826,1.813,1.8395,0.0,0.0,2.2183,0.0,3.0307,3.3977,0.0,0.0,4.0729,4.0743,4.0729,4.1546,4.3085,4.3239,4.4239,4.5873,4.588,4.6027,4.6289,4.6289,4.6289,4.6328,4.6484,4.75,4.8906,4.9062,5.0078,5.1406,2.1541,2.1997,2.3224,2.6086,2.7861,3.2686,4.3833,4.4364,4.5154,5.0035,5.3251,5.5061,5.5039,5.8489,6.0627,6.0165,5.9742,5.9127,5.8242,5.7434,5.678,5.6357,5.3933,5.201,5.0741,4.586,4.0397,3.4314,0.0,0.0,0.0,2.2291,2.226,2.261,2.4903,2.756,3.0702,3.6305,3.9528,4.115,4.4341,4.5586,4.5586,4.5586,4.5586,4.5586,4.5586,4.5586,4.5586,4.5586,4.5586,4.5586,4.5586,4.4701,4.3778,4.4162,4.3679,4.3025,4.3085,4.3355,4.3739,4.4196,4.364,4.3124,4.3568,4.2701,4.1678,4.1232,4.0575,3.909,3.5785,3.2721,0.0,0.0,0.0,0.0,2.2379,2.314,2.3149,2.1362,2.2275,2.2318,2.0399,1.9556,1.8684,1.7719,1.6929,1.7491,1.9745,0.0,2.0543,0.0,0.0,0.0,3.0742,0.0,3.9566,3.6433,3.9661,4.1854,4.3124,4.3547,4.4509,4.5851,4.5863,4.5991,4.6199,4.6276,4.6289,4.6328,4.6797,4.7773,4.8945,4.9414,5.0351,5.1406,2.4942,2.4739,2.4936,2.6909,3.0527,3.5749,4.3407,4.8709,5.3261,5.7297,5.7819,5.7819,5.7819,5.9588,6.0512,5.9858,5.9435,5.8665,5.7357,5.6934,5.6395,5.5742,5.4087,5.251,5.0971,4.8279,4.3387,3.6208,0.0,0.0,0.0,2.2949,2.2781,2.3641,2.7393,3.0428,0.0,0.0,4.1074,4.2221,4.4648,4.5586,4.5586,4.5586,4.5586,4.5586,4.5586,4.5586,4.5586,4.5586,4.5586,4.5586,4.5586,4.4453,4.3222,4.3855,4.2986,4.194,4.264,4.247,4.2393,4.3701,4.2893,4.197,4.2662,4.2162,4.1316,4.0623,4.0325,3.9338,3.6613,3.5661,0.0,0.0,0.0,0.0,0.0,2.4804,2.4998,2.3084,2.3309,2.328,2.2377,1.9756,1.7547,1.6145,1.5825,1.7214,2.0736,0.0,0.0,0.0,0.0,2.7468,2.6836,0.0,3.8239,3.3935,3.945,4.2547,4.3393,4.4047,4.4872,4.5813,4.5932,4.6007,4.6138,4.6257,4.6406,4.6641,4.7344,4.8242,4.9258,4.9961,5.0703,5.1406,3.4111,3.2125,3.0939,3.5257,3.528,3.7723,4.6763,5.0612,5.4426,5.9758,6.0435,6.0435,6.0435,6.0666,6.0781,6.0704,5.9281,5.8357,5.8204,5.6703,5.578,5.5703,5.4087,5.2779,5.1818,4.8586,4.4787,4.0414,0.0,3.0894,0.0,0.0,2.3804,2.6754,0.0,0.0,0.0,4.0024,4.2354,4.4107,4.5163,4.5586,4.5586,4.5586,4.5586,4.5586,4.5586,4.5586,4.5586,4.5586,4.5586,4.5586,4.5586,4.4453,4.3111,4.3184,4.2524,4.1825,4.1902,4.2425,4.3041,4.3156,4.2486,4.18,4.1899,4.1261,4.0585,4.0508,4.0492,4.0361,4.0053,3.8123,3.5495,0.0,0.0,0.0,0.0,2.5054,2.6747,2.3144,2.4486,2.4613,2.1847,1.8493,1.5654,1.3496,1.4928,1.6782,0.0,0.0,0.0,2.1042,2.0849,2.3295,2.8785,3.3721,3.8126,4.2008,4.265,4.3393,4.4201,4.4372,4.4987,4.5911,4.6039,4.6169,4.6284,4.6289,4.6758,4.75,4.7578,4.8633,5.0078,5.0156,5.0703,5.1406,3.6109,3.6439,3.6687,3.9245,4.2433,4.6123,5.0403,5.4733,5.8327,6.0512,6.0781,6.0781,6.0781,6.0319,5.9819,5.9358,5.8204,5.728,5.678,5.6088,5.5703,5.5703,5.4587,5.3318,5.1933,4.9586,4.6205,0.0,0.0,0.0,0.0,0.0,0.0,0.0,0.0,3.6859,3.9776,4.2125,4.3901,4.5124,4.547,4.5586,4.5586,4.5586,4.5586,4.5586,4.5586,4.5586,4.5586,4.5586,4.5586,4.5586,4.5586,4.4799,4.3744,4.3239,4.2502,4.1709,4.1155,4.1678,4.2332,4.231,4.2063,4.18,4.1783,4.1146,4.0508,4.0508,4.0508,4.0508,4.0508,3.9692,3.8229,3.5815,0.0,0.0,0.0,2.8913,2.9703,2.3603,2.4819,2.5654,2.4387,1.8985,1.5328,1.4671,1.3604,1.2957,0.0,0.0,0.0,2.2721,0.0,2.7483,3.4002,3.4995,3.7167,4.0473,4.2754,4.397,4.4316,4.491,4.5426,4.5917,4.6122,4.6245,4.6289,4.6289,4.6797,4.7656,4.8164,4.9141,5.0273,5.0742,5.1133,5.1406,4.1173,4.1978,4.2292,4.3553,4.8106,5.1771,5.2499,5.7258,6.0781,6.0781,6.0781,6.0781,6.0781,6.0242,5.9665,5.9088,5.8011,5.7126,5.6511,5.5972,5.5703,5.5703,5.4934,5.3933,5.2702,5.0779,4.7971,4.426,3.9248,0.0,0.0,0.0,0.0,0.0,3.8231,4.0177,4.2164,4.3939,4.5047,4.5586,4.5586,4.5586,4.5586,4.5586,4.5586,4.5586,4.5586,4.5586,4.5586,4.5586,4.5586,4.5586,4.5586,4.4991,4.4128,4.3333,4.2656,4.2002,4.1123,4.1508,4.2124,4.187,4.1793,4.1739,4.1492,4.0915,4.0508,4.0508,4.0508,4.0508,4.0508,4.0508,3.9777,3.7555,0.0,0.0,0.0,3.1054,3.1331,2.3941,2.4415,2.5506,2.6004,2.0103,1.5918,1.5105,1.3103,0.0,0.0,0.0,0.0,0.0,0.0,0.0,3.4081,3.3396,3.5502,4.0366,4.3349,4.4739,4.4739,4.5449,4.5841,4.6014,4.6204,4.6289,4.6289,4.6289,4.6953,4.8047,4.8672,4.957,5.0625,5.1172,5.1406,5.1406,5.1808,4.9874,4.7758,4.9429,5.1147,5.2303,5.2403,5.7167,6.0781,6.0781,6.0781,6.0781,6.0781,6.0781,6.0781,6.0781,5.9242,5.828,5.828,5.6665,5.5703,0.0,5.4934,5.4472,5.4472,5.1972,5.024,4.9317,0.0,0.0,3.964,0.0,3.5571,3.8498,3.9451,4.1513,4.4316,4.5201,4.5586,4.5586,4.5586,4.5586,4.5586,4.5586,4.5586,4.5586,4.5586,4.5586,4.5586,4.5586,4.5586,4.5586,4.5586,4.4991,4.4128,4.3338,4.3069,4.2893,4.2014,4.2415,4.2893,4.2014,4.1777,4.1578,4.0716,4.0508,4.0508,4.0508,4.0508,4.0508,4.0508,4.0508,3.9377,3.5921,0.0,0.0,0.0,2.9926,3.0922,2.4035,2.3027,2.3733,2.581,2.1729,1.7456,1.3814,1.3874,0.0,0.0,0.0,0.0,1.4554,1.0646,0.0,2.642,2.7119,3.3064,4.4239,4.5278,4.5796,4.5796,4.5988,4.6169,4.6289,4.6289,4.6289,4.6289,4.6289,4.7305,4.8906,4.8906,4.9922,5.1406,5.1406,5.1406,5.1406,5.3702,5.4785,5.4875,5.5428,5.6957,5.8097,5.8135,5.9642,6.0781,6.0781,6.0781,6.0781,6.0781,6.0258,5.9911,5.9896,5.8934,5.8319,0.0,5.7203,5.6588,5.6588,5.578,5.5049,5.4511,5.2549,5.1125,5.0279,0.0,0.0,0.0,4.1723,4.2412,4.3348,4.3673,4.4285,4.5201,4.547,4.5586,4.5586,4.5586,4.5586,4.5586,4.5586,4.5586,4.5586,4.5586,4.5586,4.5586,4.5586,4.5586,4.5586,4.5586,4.5393,4.5009,4.4162,4.391,4.3739,4.2915,4.3278,4.3717,4.2876,4.3107,4.3278,4.247,4.1816,4.1239,4.0623,4.0508,4.0508,4.0508,4.0508,3.9777,3.7516,3.8368,0.0,3.0621,0.0,3.2107,2.6343,2.5668,2.6483,2.8489,2.4878,2.0231,1.4963,1.7773,0.0,0.0,0.0,0.0,0.0,2.6822,0.0,3.8524,3.5943,3.8165,4.5201,4.5509,4.5719,4.5796,4.6026,4.6098,4.6185,4.6261,4.6289,4.6289,4.6289,4.7344,4.8906,4.8906,4.9922,5.1406,5.1406,5.1406,5.1406,5.4862,5.7026,5.8309,5.8593,5.9843,6.0781,6.0781,6.0781,6.0781,6.0781,6.0781,6.0781,6.0781,6.0319,0.0,5.9973,5.9242,5.8627,5.8319,5.7473,5.6857,5.6511,5.5972,5.5472,5.4972,5.3587,0.0,5.1164,4.7124,4.4743,4.392,4.5419,4.5893,4.5586,4.5586,4.5586,4.5586,4.5586,4.5586,4.5586,4.5586,4.5586,4.5586,4.5586,4.5586,4.5586,4.5586,4.5586,4.5586,4.5586,4.5586,4.5586,4.5586,4.5586,4.5432,4.4564,4.4526,4.4603,4.3778,4.4162,4.4603,4.3778,4.3915,4.4068,4.3278,4.2431,4.1662,4.1085,4.0739,4.0508,4.0508,4.0508,4.0162,3.9123,3.9815,3.8706,3.3599,0.0,3.3637,2.8058,2.7583,0.0,0.0,2.7947,2.4323,0.0,2.0091,0.0,0.0,0.0,0.0,2.9095,3.0879,3.4703,4.086,3.8153,3.9746,4.5586,4.568,4.5765,4.5897,4.6102,4.618,4.6191,4.6267,4.6289,4.6289,4.6289,4.7344,4.8906,4.8906,4.9922,5.1406,5.1406,5.1406,5.1406,5.5522,5.706,5.8521,0.0,6.0181,0.0,6.0781,6.0781,6.0781,6.0781,6.0781,6.0781,6.0781,6.0781,6.0781,6.0781,0.0,0.0,5.8434,5.7511,5.6626,5.5818,5.5742,5.5703,5.5703,5.4895,5.3664,5.1895,4.9471,4.7855,4.7086,4.6971,4.6471,4.5701,4.5624,4.5586,4.5586,4.5586,4.5586,4.5586,4.5586,4.5586,4.5586,4.5586,4.5586,4.5586,4.5586,4.5586,4.5586,4.5586,4.5586,4.5586,4.5586,4.5586,4.5432,4.4624,4.497,4.5432,4.4624,4.497,4.5393,4.4607,4.4393,4.4179,4.3376,4.2569,4.1931,4.1816,4.1162,4.0546,4.0508,4.0508,4.0508,4.0508,4.0431,3.8936,3.4699,3.6007,3.5115,2.8931,0.0,0.0,3.276,3.109,2.9305,0.0,0.0,0.0,0.0,0.0,2.5782,2.498,2.627,2.9897,3.595,3.5653,3.8877,4.5624,4.5796,4.598,4.6091,4.6249,4.6289,4.6289,4.6289,4.6289,4.6289,4.6367,4.7344,4.8828,4.8945,4.9922,5.1328,5.1367,5.1406,5.1406,0.0,0.0,5.9194,5.9376,6.0176,6.0781,6.0781,6.0781,6.0781,6.0781,6.0781,6.0781,6.0781,6.0781,6.0781,6.0781,6.0012,5.9435,5.9242,5.7819,5.6896,5.6703,5.6049,5.5703,5.5703,5.4895,5.3664,5.1895,5.0664,4.9663,4.8779,4.7509,4.6778,4.6547,4.5893,4.5586,4.5586,4.5586,4.5586,4.5586,4.5586,4.5586,4.5586,4.5586,4.5586,4.5586,4.5586,4.5586,4.5586,4.5586,4.5586,4.5586,4.5586,4.5586,4.5547,4.5355,4.5432,4.5547,4.5355,4.5432,4.5547,4.5355,4.5278,4.5047,4.4201,4.3855,4.3355,4.2047,4.1662,4.1277,4.0623,4.0508,4.0508,4.0508,3.9969,3.7385,3.1108,3.3156,3.3385,0.0,3.0698,3.3776,3.5926,3.5831,3.3125,0.0,0.0,2.903,1.559,3.0613,3.9326,3.8509,3.9397,4.0967,4.3159,4.3061,4.3943,4.5757,4.5834,4.5973,4.61,4.6253,4.6289,4.6289,4.6289,4.6289,4.6367,4.7031,4.7539,4.8047,4.9375,5.0117,5.0547,5.1172,5.1406,5.1406,5.6161,5.7475,5.8687,5.9294,6.0015,6.055,6.0781,6.0781,6.0781,6.0781,6.0781,6.0781,6.0781,6.0781,6.0781,6.0781,6.0012,5.9319,5.8995,5.7703,5.6819,5.6395,5.5934,5.5703,5.5703,5.528,5.4203,5.251,5.1279,5.024,4.9394,4.8471,4.7817,4.7432,4.6932,4.6547,4.6201,4.6201,4.597,4.5586,4.5586,4.5586,4.5586,4.5586,4.5586,4.5586,4.5586,4.5586,4.5586,4.5586,4.5586,4.5586,4.5586,4.5586,4.5586,4.5586,4.5586,4.5586,4.5586,4.5586,4.5586,4.5586,4.5586,4.547,4.5009,4.4586,4.4047,4.3145,4.2338,4.1662,4.1162,4.0777,4.0508,4.0508,3.9282,3.6843,3.2783,3.3898,3.4141,3.1359,3.4157,3.689,3.8374,3.8307,3.6651,3.3013,3.417,0.0,2.5079,3.3649,3.7482,3.459,4.1255,4.4932,4.5009,4.5393,4.568,4.5796,4.5873,4.5989,4.61,4.6226,4.6289,4.6289,4.6289,4.6289,4.6367,4.7226,4.7812,4.832,4.9687,5.043,5.0781,5.125,5.1406,5.1406,5.5574,5.6636,5.7902,5.9168,5.9798,6.0248,6.0742,6.0781,6.0781,6.0781,6.0781,6.0781,6.0781,6.0781,6.0781,6.0781,5.9896,5.9011,5.8341,5.7379,5.6472,5.5742,5.5703,5.5703,5.5703,5.5588,5.4741,5.3203,5.1625,5.0433,4.9586,4.9471,4.9009,4.8279,4.8163,4.774,4.7086,4.6971,4.6471,4.5778,4.5663,4.5586,4.5586,4.5586,4.5586,4.5586,4.5586,4.5586,4.5586,4.5586,4.5586,4.5586,4.5586,4.5586,4.5586,4.5586,4.5586,4.5586,4.5586,4.5586,4.5586,4.5586,4.5586,4.5586,4.5586,4.5009,4.447,4.4338,4.3184,4.2085,4.1854,4.12,4.0562,4.0183,3.841,3.652,3.504,0.0,3.5704,3.5057,3.7499,3.9623,4.0461,3.9888,3.9891,4.0998,3.4757,3.3408,3.921,3.6194,3.1348,2.4869,3.8282,4.524,4.4509,4.524,4.574,4.5988,4.6069,4.618,4.6288,4.644,4.6406,4.6289,4.6289,4.6289,4.6367,4.7383,4.8164,4.8828,4.9922,5.0703,5.1211,5.1367,5.1406,5.1406,5.5574,5.6636,5.7902,5.9168,5.9779,6.0261,6.0734,6.0781,6.0781,6.0781,6.0781,6.0781,6.0781,6.0781,6.0781,6.0781,5.9396,5.8434,5.8319,5.678,5.5818,5.5703,5.5703,5.5703,5.5703,5.5011,5.4203,5.3203,5.2202,5.1318,5.0471,4.974,4.9317,4.9163,4.8432,4.8048,4.7855,4.7201,4.6817,4.6624,4.5893,4.5586,4.5586,4.5586,4.5586,4.5586,4.5586,4.5586,4.5586,4.5586,4.5586,4.5586,4.5586,4.5586,4.5586,4.5586,4.5586,4.5586,4.5586,4.5586,4.5586,4.5586,4.5586,4.5586,4.5586,4.5509,4.5201,4.447,4.4085,4.347,4.2047,4.17,4.0892,3.8732,3.7528,3.4982,2.9663,0.0,3.5507,3.2404,3.7561,4.1673,4.2552,4.2514,4.2799,4.3635,4.256,3.8117,2.9584,3.827,3.8252,2.6764,3.8912,4.5547,4.5393,4.5509,4.6009,4.6817,4.6923,4.7054,4.721,4.7342,4.6992,4.6289,4.6289,4.6289,4.6406,4.8047,4.8359,4.8047,5.0312,5.0859,5.0469,5.1133,5.1406,5.1406,5.6235,5.6712,5.7497,5.8802,5.9389,5.9885,6.0338,6.0647,6.0781,6.0781,6.0781,6.0781,6.0781,6.0781,6.0781,6.0781,5.9258,5.8296,5.8286,5.6686,5.5703,5.5703,5.5703,5.5511,5.5049,5.378,5.3126,5.3203,5.1895,5.1279,5.1318,5.0471,5.0087,5.0087,4.9426,4.9025,4.8721,4.7662,4.7107,4.6817,4.5932,4.5586,4.5586,4.5586,4.5586,4.5586,4.5586,4.5586,4.5586,4.5586,4.5586,4.5586,4.5586,4.5586,4.5586,4.5586,4.5586,4.5586,4.5586,4.5586,4.5586,4.5586,4.5586,4.5586,4.5586,4.5586,4.547,4.5086,4.4624,4.4064,4.3294,4.2409,3.9523,3.2609,3.4542,0.0,0.0,3.1974,3.7053,3.5469,3.9528,4.2662,4.3047,4.3102,4.3448,4.4256,4.4295,4.2134,3.7181,4.2445,4.2923,3.7104,4.2577,4.5586,4.5586,4.5586,4.5855,4.6355,4.6399,4.6502,4.6592,4.6715,4.6562,4.6211,4.6289,4.6289,4.6406,4.7656,4.8205,4.836,5.0003,5.066,5.0781,5.1102,5.131,5.1406,5.6822,5.6822,5.7184,5.8483,5.9028,5.9389,5.9855,6.0338,6.0633,6.0666,6.0742,6.0781,6.0781,6.0781,6.0781,6.0781,5.9273,5.8274,5.8286,5.6686,5.5703,5.5703,5.5703,5.5395,5.478,5.3087,5.2626,5.351,5.1625,5.1241,5.2164,5.1356,5.0952,5.0832,5.0535,4.9985,4.9219,4.8197,4.7444,4.6855,4.6163,4.5778,4.5586,4.5586,4.5586,4.5586,4.5586,4.5586,4.5586,4.5586,4.5586,4.5586,4.5586,4.5586,4.5586,4.5586,4.5586,4.5586,4.5586,4.5586,4.5586,4.5586,4.5586,4.5586,4.5586,4.5586,4.5586,4.5586,4.5064,4.4526,4.4333,4.3256,3.95,3.0715,0.0,0.0,0.0,3.3322,3.9119,3.985,4.197,4.347,4.3645,4.3701,4.3932,4.4568,4.4586,4.491,4.5547,4.5586,4.5586,4.5586,4.5586,4.5586,4.5586,4.5586,4.5855,4.6334,4.6201,4.6214,4.6463,4.6398,4.6273,4.6094,4.6211,4.6289,4.6367,4.7226,4.8039,4.8798,4.9683,5.0494,5.1162,5.1101,5.1211,5.1327,5.6822,5.6822,5.7184,5.8483,5.8716,5.8913,5.9389,5.9855,6.0158,6.0157,6.055,6.0781,6.0781,6.0781,6.0781,6.0781,5.9273,5.8289,5.8289,5.6681,5.5703,5.5703,5.5703,5.5665,5.5588,5.3972,5.351,5.4398,5.1913,5.1528,5.3069,5.2202,5.1595,5.1266,5.1204,5.0326,4.8838,4.8738,4.8018,4.6894,4.6817,4.6317,4.5586,4.5586,4.5586,4.5586,4.5586,4.5586,4.5586,4.5586,4.5586,4.5586,4.5586,4.5586,4.5586,4.5586,4.5586,4.5586,4.5586,4.5586,4.5586,4.5586,4.5586,4.5586,4.5586,4.5586,4.5586,4.5586,4.5547,4.5257,4.4449,4.4201,4.309,3.9938,0.0,0.0,3.9198,3.987,4.1311,4.3602,4.4085,4.4509,4.5316,4.5432,4.5432,4.5509,4.5509,4.5509,4.5586,4.5586,4.5586,4.5586,4.5586,4.5586,4.5586,4.5586,4.6394,4.7932,4.7314,4.7409,4.8099,4.7439,4.6756,4.6094,4.6094,4.6172,4.6367,4.7226,4.8039,4.8798,4.9683,5.0433,5.1099,5.1125,5.1166,5.1194,5.7556,5.7556,5.772,5.8201,5.8545,5.8756,5.8951,5.9354,5.9747,6.0081,6.0245,6.048,6.0757,6.0781,6.0781,6.0781,5.9258,5.8296,5.8303,5.6686,5.5703,5.5703,5.522,5.4972,5.4955,5.378,5.3646,5.4495,5.2972,5.2836,5.3993,5.2549,5.171,5.1255,5.0518,4.9948,4.9553,4.8783,4.8433,4.8394,4.7855,4.7471,4.7086,4.6604,4.6737,4.6989,4.5988,4.595,4.6429,4.6429,4.6065,4.568,4.6219,4.6026,4.5586,4.5586,4.5586,4.5719,4.6275,4.6026,4.5586,4.5586,4.5586,4.5586,4.5586,4.5586,4.5586,4.5586,4.5586,4.5509,4.518,4.4645,4.1831,3.423,0.0,3.9816,3.3118,3.835,4.3235,4.4201,4.4778,4.524,4.5547,4.5586,4.5586,4.5586,4.5586,4.5586,4.5586,4.5586,4.5586,4.5586,4.5586,4.5586,4.5586,4.6124,4.674,4.7355,4.7104,4.7142,4.7412,4.6681,4.6167,4.5919,4.5942,4.5986,4.6064,4.6421,4.6978,4.7683,4.7991,4.8971,5.0183,5.0091,5.052,5.1125,5.796,5.7997,5.7997,5.7997,5.8282,5.8503,5.8503,5.8874,5.9284,5.9592,5.9792,6.0065,6.0541,6.0457,6.0326,6.02,5.8779,5.7819,5.773,5.6456,5.5703,5.5703,5.5143,5.4895,5.4878,5.4049,5.3857,5.4321,5.3297,5.3161,5.3874,5.2413,5.154,5.1262,5.0306,4.9816,4.9641,4.9067,4.8881,4.8971,4.8625,4.8355,4.8048,4.7489,4.7622,4.7969,4.6796,4.6775,4.7293,4.7293,4.6873,4.6491,4.7083,4.6873,4.6394,4.6411,4.6411,4.6527,4.7122,4.6835,4.6317,4.6065,4.6026,4.595,4.5663,4.5796,4.595,4.5663,4.5834,4.6026,4.6009,4.553,4.2713,3.5394,3.9865,4.1622,3.3992,3.9712,4.4722,4.4722,4.524,4.5586,4.5586,4.5586,4.5586,4.5586,4.5586,4.5586,4.5586,4.5586,4.574,4.6009,4.574,4.574,4.6009,4.6586,4.7048,4.7278,4.7278,4.7432,4.7663,4.6624,4.618,4.6159,4.597,4.5875,4.5914,4.6213,4.6573,4.7048,4.7317,4.826,4.9529,4.9433,5.0087,5.1029,5.785,5.7997,5.7997,5.7997,5.7997,5.7997,5.7997,5.8375,5.8713,5.8713,5.9128,5.9578,6.0056,5.968,5.9269,5.8916,5.7668,5.6729,5.6417,5.5934,5.5703,5.5703,5.5703,5.5703,5.5703,5.4912,5.4276,5.387,5.256,5.2116,5.256,5.1698,5.1296,5.1254,5.0947,5.0071,4.8846,4.9711,4.9328,4.8202,4.9048,4.8913,4.8123,4.8086,4.8105,4.8123,4.8123,4.8102,4.812,4.812,4.8105,4.8107,4.8086,4.8105,4.8086,4.8105,4.8123,4.8105,4.8125,4.8106,4.7914,4.7122,4.6908,4.666,4.5834,4.6313,4.666,4.5796,4.6313,4.6929,4.6894,4.6932,4.6894,4.6891,4.6908,4.6583,4.5719,4.5586,4.5586,4.5586,4.5586,4.5586,4.5586,4.5586,4.5586,4.5586,4.5586,4.5586,4.5586,4.5586,4.6009,4.6855,4.6047,4.6009,4.6894,4.6894,4.7317,4.8086,4.8086,4.8548,4.9317,4.7663,4.695,4.6947,4.6142,4.5834,4.595,4.6837,4.7106,4.7086,4.7914,4.874,4.9394,4.9394,5.001,5.0875,5.785,5.7997,5.7997,5.7997,5.7997,5.7997,5.7997,5.8097,5.8326,5.8673,5.8818,5.91,5.9539,5.9502,5.9101,5.8476,5.7466,5.6375,5.5151,5.4924,5.4878,5.4852,5.5105,5.528,5.528,5.4161,5.3522,5.3384,5.2429,5.2052,5.2151,5.1354,5.0818,5.0468,4.9758,4.9391,4.9311,4.9281,4.953,4.9913,4.992,4.9886,4.9875,4.924,4.9394,4.9759,4.8528,4.8489,4.9028,4.9024,4.8623,4.8107,4.8106,4.8086,4.8086,4.8086,4.8086,4.824,4.8837,4.9009,4.8817,4.7933,4.774,4.7643,4.7432,4.7548,4.7663,4.7432,4.7545,4.7756,4.774,4.7741,4.7741,4.774,4.7276,4.6814,4.6547,4.597,4.5586,4.5586,4.5586,4.5586,4.5586,4.5586,4.5586,4.5586,4.5586,4.5586,4.5586,4.6163,4.6355,4.6009,4.6317,4.6355,4.597,4.6586,4.7009,4.7278,4.7817,4.7932,4.7625,4.7124,4.6586,4.5988,4.5757,4.568,4.5719,4.597,4.6432,4.6894,4.6547,4.7625,4.9317,4.8702,4.9433,5.0741,5.785,5.7997,5.7997,5.7997,5.7997,5.7997,5.7997,5.7997,5.8097,5.8375,5.8452,5.8585,5.9065,5.8945,5.8455,5.7525,5.6361,5.5278,5.4276,5.4375,5.449,5.4503,5.4541,5.4655,5.4874,5.4095,5.3308,5.2465,5.2159,5.1751,5.1237,5.0741,5.047,5.0368,4.9701,4.9617,4.9931,4.9532,4.9974,5.09,5.0511,5.0483,5.0625,5.0087,5.024,5.0548,4.9528,4.9471,4.9933,4.9912,4.9567,4.9125,4.9125,4.9125,4.9125,4.9125,4.9125,4.924,4.976,4.9894,4.9779,4.924,4.8875,4.8509,4.8163,4.8394,4.8529,4.8183,4.8374,4.8605,4.8625,4.8606,4.8606,4.8625,4.822,4.7758,4.7412,4.6932,4.6471,4.6163,4.6124,4.597,4.5624,4.5586,4.5586,4.5586,4.5932,4.6124,4.6124,4.6932,4.7278,4.7086,4.6971,4.6817,4.6586,4.6432,4.6547,4.6932,4.774,4.7855,4.7355,4.7048,4.6778,4.6586,4.624,4.6124,4.6124,4.6471,4.6701,4.6855,4.6317,4.724,4.8779,4.7932,4.8702,5.0202,5.785,5.7997,5.7997,5.7997,5.7997,5.7997,5.7997,5.7997,5.7997,5.7997,5.7997,5.8186,5.8591,5.8238,5.756,5.6437,5.48,5.3827,5.375,5.4128,5.4353,5.4386,5.397,5.397,5.4381,5.4307,5.3318,5.1449,5.1673,5.1191,5.0079,4.9967,5.0153,5.0487,5.0116,5.0153,5.0527,5.0138,5.0459,5.1154,5.0785,5.0663,5.0702,5.0702,5.0741,5.0798,5.0741,5.0741,5.0798,5.0702,5.0702,5.0702,5.0702,5.0702,5.0702,5.0702,5.0702,5.0702,5.0702,5.0702,5.0702,5.0702,5.0106,4.9298,4.8489,4.8933,4.9298,4.8491,4.8952,4.9529,4.951,4.9528,4.9528,4.9528,4.9452,4.9125,4.8335,4.8125,4.7817,4.7086,4.6932,4.6586,4.5778,4.5701,4.5757,4.5817,4.6568,4.7029,4.7009,4.7702,4.8432,4.9163,4.7778,4.7317,4.8009,4.6471,4.6086,4.6778,4.7625,4.7971,4.7855,4.7278,4.7355,4.7971,4.724,4.6894,4.6971,4.7702,4.7586,4.7009,4.7009,4.7509,4.8125,4.7317,4.8009,4.9394,5.785,5.7997,5.7997,5.7997,5.7997,5.7997,5.7997,5.7997,5.7997,5.7997,5.7997,5.8042,5.8142,5.8051,5.7638,5.6779,5.5196,5.4013,5.3371,5.3429,5.3465,5.3487,5.3371,5.3371,5.3445,5.2852,5.2302,5.1879,5.0667,4.9967,4.9667,4.8995,4.8736,4.8852,4.8746,4.8934,4.9266,4.9195,4.962,5.0364,5.0258,5.0427,5.0702,5.0702,5.1106,5.1549,5.0952,5.1106,5.1549,5.0914,5.0702,5.0702,5.0702,5.0702,5.0702,5.0702,5.0702,5.0702,5.0702,5.0702,5.0702,5.0702,5.0548,5.0356,5.0183,5.0279,5.0356,5.0164,5.0279,5.0433,5.0433,5.0394,5.0394,5.0394,4.9875,4.9317,4.9144,4.8529,4.8048,4.7855,4.7278,4.6817,4.6624,4.6604,4.6873,4.7509,4.774,4.7855,4.7855,4.8009,4.7894,4.7471,4.7702,4.7625,4.7163,4.6817,4.6355,4.5893,4.674,4.6817,4.6163,4.7317,4.7586,4.7163,4.6971,4.6894,4.6932,4.7086,4.7432,4.7855,4.7855,4.8355,4.9009,4.8163,4.8509,4.951,5.7923,5.7997,5.7997,5.7997,5.7997,5.7997,5.7997,5.7997,5.7997,5.7997,5.7997,5.7997,5.7997,5.7997,5.7666,5.6859,5.5354,5.4216,5.3781,5.3408,5.3225,5.3225,5.3225,5.3225,5.3225,5.2412,5.1789,5.1426,5.0215,4.9591,4.9559,4.9111,4.8925,4.8928,4.8932,4.9044,4.9231,4.9206,4.9642,5.0399,5.0418,5.0527,5.0702,5.0702,5.0952,5.126,5.0875,5.0991,5.126,5.0837,5.0702,5.0702,5.0702,5.0702,5.0702,5.0702,5.0702,5.0702,5.0702,5.0702,5.0702,5.0702,5.0702,5.0702,5.0702,5.0702,5.0702,5.0702,5.0702,5.0702,5.0702,5.0702,5.0702,5.0702,5.0337,5.001,5.0029,4.9625,4.9202,4.8779,4.8355,4.7932,4.7527,4.7489,4.7643,4.8068,4.8491,4.8721,4.874,4.9125,4.9163,4.874,4.8702,4.8509,4.8086,4.7702,4.724,4.6778,4.6855,4.6663,4.624,4.7548,4.7855,4.7509,4.7894,4.7855,4.7471,4.7471,4.7509,4.7509,4.7086,4.7432,4.8086,4.724,4.7702,4.8971,5.7997,5.7997,5.7997,5.7997,5.7997,5.7997,5.7997,5.7997,5.7997,5.7997,5.7997,5.7997,5.7997,5.7886,5.7483,5.6675,5.5236,5.4326,5.4191,5.3597,5.3225,5.3225,5.3225,5.3225,5.3225,5.238,5.1687,5.1022,5.0057,4.9585,4.9524,4.9413,4.9377,4.9377,4.9377,4.9377,4.938,4.9492,4.9885,5.0507,5.0636,5.0702,5.0702,5.0702,5.0779,5.0914,5.0741,5.0702,5.0702,5.0702,5.0702,5.0702,5.0702,5.0702,5.0702,5.0702,5.0702,5.0702,5.0702,5.0702,5.0702,5.0702,5.0702,5.0741,5.0856,5.0779,5.0702,5.0702,5.0702,5.0702,5.0702,5.0702,5.0702,5.0702,5.0702,5.0702,5.0702,5.0702,5.0433,4.9702,4.9471,4.9125,4.8374,4.8335,4.8394,4.8529,4.9221,4.9606,4.9625,5.0164,5.0471,5.0471,4.9779,4.9375,4.9298,4.8587,4.8279,4.8433,4.7588,4.7184,4.7124,4.7971,4.8298,4.8241,4.8971,4.8759,4.7913,4.7952,4.7511,4.6762,4.6222,4.6394,4.6817,4.6086,4.6894,4.8548,5.7997,5.7997,5.7997,5.7997,5.7997,5.7997,5.7997,5.7997,5.7997,5.7997,5.7997,5.7997,5.7997,5.7373,5.6638,5.5831,5.4928,5.4122,5.3408,5.3261,5.3225,5.3225,5.3225,5.3225,5.3225,5.2417,5.194,5.183,5.0325,4.9591,4.9593,4.8783,4.8453,4.8453,4.8453,4.8453,4.8493,4.9189,4.9576,4.9721,5.0406,5.0702,5.0702,5.0702,5.1145,5.1665,5.0952,5.0702,5.0702,5.0702,5.0702,5.0702,5.0702,5.0702,5.0702,5.0702,5.0702,5.0702,5.0702,5.0702,5.0702,5.0702,5.0702,5.0894,5.1605,5.1182,5.0702,5.0702,5.0702,5.0702,5.0702,5.0702,5.0702,5.0702,5.0702,5.0702,5.0702,5.0702,5.0664,5.0548,4.9856,4.9356,4.9221,4.9221,4.9528,5.0279,5.0471,5.051,5.051,4.9933,4.9586,4.9586,4.9471,4.9238,4.8861,4.8747,4.909,4.9839,4.8938,4.8345,4.7971,4.8817,4.9025,4.8709,4.8823,4.8224,4.7174,4.7448,4.7105,4.6462,4.7396,4.7432,4.6894,4.6778,4.7778,4.924,5.7997,5.7997,5.7997,5.7997,5.7997,5.7997,5.7997,5.7997,5.7997,5.7997,5.7997,5.7997,5.7997,5.7299,5.6492,5.5647,5.4869,5.4239,5.3885,5.3445,5.3225,5.3225,5.3225,5.3225,5.3225,5.2417,5.1756,5.1316,5.0141,4.9334,4.8857,4.8489,4.8306,4.8306,4.8306,4.8306,4.8344,4.894,4.9265,4.9549,5.0134,5.051,5.0702,5.0702,5.0914,5.1183,5.0837,5.0702,5.0702,5.0702,5.0702,5.0702,5.0702,5.0702,5.0702,5.0702,5.0702,5.0779,5.1241,5.1356,5.151,5.1972,5.1702,5.1607,5.2433,5.197,5.1508,5.201,5.1356,5.0837,5.1299,5.0991,5.0702,5.0702,5.0702,5.0702,5.0702,5.0702,5.0702,5.0702,5.0356,5.0125,5.0144,5.0144,5.0298,5.0664,5.0702,5.0702,5.0702,5.0317,5.0125,5.0125,5.0125,4.9928,4.9539,4.9539,4.973,5.0111,4.973,4.928,4.8856,4.974,4.9639,4.8829,4.931,4.868,4.7302,4.7424,4.686,4.5975,4.6511,4.6471,4.6278,4.724,4.8048,4.8817]},{"header":{"parameterUnit":"m.s-1","parameterCategory":1,"la1":30.6,"la2":28.766,"lo1":-90.7593,"lo2":-88.6598,"dy":0.0162,"dx":0.0183,"nx":116,"ny":114,"refTime":"2024-03-16T06:00:00:Z","depth":0,"parameterNumber":3,"parameterNumberName":"V-component_of_WINDS"},"data":[0.0,0.0,0.0,0.0,0.0,0.0,0.0,0.0,0.0,0.0,0.0,0.0,0.0,0.0,0.0,0.0,0.0,0.0,0.0,0.0,0.0,0.0,0.0,0.0,0.0,0.0,0.0,0.0,0.0,0.0,0.0,0.0,0.0,0.0,0.0,0.0,0.0,0.0,0.0,0.0,0.0,0.0,0.0,0.0,0.0,0.0,0.0,0.0,0.0,0.0,0.0,0.0,0.0,0.0,0.0,0.0,0.0,0.0,0.0,0.0,0.0,0.0,0.0,0.0,0.0,0.0,0.0,0.0,0.0,0.0,0.0,0.0,0.0,0.0,0.0,0.0,0.0,0.0,0.0,0.0,0.0,0.0,0.0,0.0,0.0,0.0,0.0,0.0,0.0,0.0,0.0,0.0,0.0,0.0,0.0,0.0,0.0,0.0,0.0,0.0,0.0,0.0,0.0,0.0,0.0,0.0,0.0,0.0,0.0,0.0,0.0,0.0,0.0,0.0,0.0,0.0,0.0,0.0,0.0,0.0,0.0,0.0,0.0,0.0,0.0,0.0,0.0,0.0,0.0,0.0,0.0,0.0,0.0,0.0,0.0,0.0,0.0,0.0,0.0,0.0,0.0,0.0,0.0,0.0,0.0,0.0,0.0,0.0,0.0,0.0,0.0,0.0,0.0,0.0,0.0,0.0,0.0,0.0,0.0,0.0,0.0,0.0,0.0,0.0,0.0,0.0,0.0,0.0,0.0,0.0,0.0,0.0,0.0,0.0,0.0,0.0,0.0,0.0,0.0,0.0,0.0,0.0,0.0,0.0,0.0,0.0,0.0,0.0,0.0,0.0,0.0,0.0,0.0,0.0,0.0,0.0,0.0,0.0,0.0,0.0,0.0,0.0,0.0,0.0,0.0,0.0,0.0,0.0,0.0,0.0,0.0,0.0,0.0,0.0,0.0,0.0,0.0,0.0,0.0,0.0,0.0,0.0,0.0,0.0,0.0,0.0,0.0,0.0,0.0,0.0,0.0,0.0,0.0,0.0,0.0,0.0,0.0,0.0,0.0,0.0,0.0,0.0,0.0,0.0,0.0,0.0,0.0,0.0,0.0,0.0,0.0,0.0,0.0,0.0,0.0,0.0,0.0,0.0,0.0,0.0,0.0,0.0,0.0,0.0,0.0,0.0,0.0,0.0,0.0,0.0,0.0,0.0,0.0,0.0,0.0,0.0,0.0,0.0,0.0,0.0,0.0,0.0,0.0,0.0,0.0,0.0,0.0,0.0,0.0,0.0,0.0,0.0,0.0,0.0,0.0,0.0,0.0,0.0,0.0,0.0,0.0,0.0,0.0,0.0,0.0,0.0,0.0,0.0,0.0,0.0,0.0,0.0,0.0,0.0,0.0,0.0,0.0,0.0,0.0,0.0,0.0,0.0,0.0,0.0,0.0,0.0,0.0,0.0,0.0,0.0,0.0,0.0,0.0,0.0,0.0,0.0,0.0,0.0,0.0,0.0,0.0,0.0,0.0,0.0,0.0,0.0,0.0,0.0,0.0,0.0,0.0,0.0,0.0,0.0,0.0,0.0,0.0,0.0,0.0,0.0,0.0,0.0,0.0,0.0,0.0,0.0,0.0,0.0,0.0,0.0,0.0,0.0,0.0,0.0,0.0,0.0,0.0,0.0,0.0,0.0,0.0,0.0,0.0,0.0,0.0,0.0,0.0,0.0,0.0,0.0,0.0,0.0,0.0,0.0,0.0,0.0,0.0,0.0,0.0,0.0,0.0,0.0,0.0,0.0,0.0,0.0,0.0,0.0,0.0,0.0,0.0,0.0,0.0,0.0,0.0,0.0,0.0,0.0,0.0,0.0,0.0,0.0,0.0,0.0,0.0,0.0,0.0,0.0,0.0,0.0,0.0,0.0,0.0,0.0,0.0,0.0,0.0,0.0,0.0,0.0,0.0,0.0,0.0,0.0,0.0,0.0,0.0,0.0,0.0,0.0,0.0,0.0,0.0,0.0,0.0,0.0,0.0,0.0,0.0,0.0,0.0,0.0,0.0,0.0,0.0,0.0,0.0,0.0,0.0,0.0,0.0,0.0,0.0,0.0,0.0,0.0,0.0,0.0,0.0,0.0,0.0,0.0,0.0,0.0,0.0,0.0,0.0,0.0,0.0,0.0,0.0,0.0,0.0,0.0,0.0,0.0,0.0,0.0,0.0,0.0,0.0,0.0,0.0,0.0,0.0,0.0,0.0,0.0,0.0,0.0,0.0,0.0,0.0,0.0,0.0,0.0,0.0,0.0,0.0,0.0,0.0,0.0,0.0,0.0,0.0,0.0,0.0,0.0,0.0,0.0,0.0,0.0,0.0,0.0,0.0,0.0,0.0,0.0,0.0,0.0,0.0,0.0,0.0,0.0,0.0,0.0,0.0,0.0,0.0,0.0,0.0,0.0,0.0,0.0,0.0,0.0,0.0,0.0,0.0,0.0,0.0,0.0,0.0,0.0,0.0,0.0,0.0,0.0,0.0,0.0,0.0,0.0,0.0,0.0,0.0,0.0,0.0,0.0,0.0,0.0,0.0,0.0,0.0,0.0,0.0,0.0,0.0,0.0,0.0,0.0,0.0,0.0,0.0,0.0,0.0,0.0,0.0,0.0,0.0,0.0,0.0,0.0,0.0,0.0,0.0,0.0,0.0,0.0,0.0,0.0,0.0,0.0,0.0,0.0,0.0,0.0,0.0,0.0,0.0,0.0,0.0,0.0,0.0,0.0,0.0,0.0,0.0,0.0,0.0,0.0,0.0,0.0,0.0,0.0,0.0,0.0,0.0,0.0,0.0,0.0,0.0,0.0,0.0,0.0,0.0,0.0,0.0,0.0,0.0,0.0,0.0,0.0,0.0,0.0,0.0,0.0,0.0,0.0,0.0,0.0,0.0,0.0,0.0,0.0,0.0,0.0,0.0,0.0,0.0,0.0,0.0,0.0,0.0,0.0,0.0,0.0,0.0,0.0,0.0,0.0,0.0,0.0,0.0,0.0,0.0,0.0,0.0,0.0,0.0,0.0,0.0,0.0,0.0,0.0,0.0,0.0,0.0,0.0,0.0,0.0,0.0,0.0,0.0,0.0,0.0,0.0,0.0,0.0,0.0,0.0,0.0,0.0,0.0,0.0,0.0,0.0,0.0,0.0,0.0,0.0,0.0,0.0,0.0,0.0,0.0,0.0,0.0,0.0,0.0,0.0,0.0,0.0,0.0,0.0,0.0,0.0,0.0,0.0,0.0,0.0,0.0,0.0,0.0,0.0,0.0,0.0,0.0,0.0,0.0,0.0,0.0,0.0,0.0,0.0,0.0,0.0,0.0,0.0,0.0,0.0,0.0,0.0,0.0,0.0,0.0,0.0,0.0,0.0,0.0,0.0,0.0,0.0,0.0,0.0,0.0,0.0,0.0,0.0,0.0,0.0,0.0,0.0,0.0,0.0,0.0,0.0,0.0,0.0,0.0,0.0,0.0,0.0,0.0,0.0,0.0,0.0,0.0,0.0,0.0,0.0,0.0,0.0,0.0,0.0,0.0,0.0,0.0,0.0,0.0,0.0,0.0,0.0,0.0,0.0,0.0,0.0,0.0,0.0,0.0,0.0,0.0,0.0,0.0,0.0,0.0,0.0,0.0,0.0,0.0,0.0,0.0,0.0,0.0,0.0,0.0,0.0,0.0,0.0,0.0,0.0,0.0,0.0,0.0,0.0,0.0,0.0,0.0,0.0,0.0,0.0,0.0,0.0,0.0,0.0,0.0,0.0,0.0,0.0,0.0,0.0,0.0,0.0,0.0,0.0,0.0,0.0,0.0,0.0,0.0,0.0,0.0,0.0,0.0,0.0,0.0,0.0,0.0,0.0,0.0,0.0,0.0,0.0,0.0,0.0,0.0,0.0,0.0,0.0,0.0,0.0,0.0,0.0,0.0,0.0,0.0,0.0,0.0,0.0,0.0,0.0,0.0,0.0,0.0,0.0,0.0,0.0,0.0,0.0,0.0,0.0,0.0,0.0,0.0,0.0,0.0,0.0,0.0,0.0,0.0,0.0,0.0,0.0,0.0,0.0,0.0,0.0,0.0,0.0,0.0,0.0,0.0,0.0,0.0,0.0,0.0,0.0,0.0,0.0,0.0,0.0,0.0,0.0,0.0,0.0,0.0,0.0,0.0,0.0,0.0,0.0,0.0,0.0,0.0,0.0,0.0,0.0,0.0,0.0,0.0,0.0,0.0,0.0,0.0,0.0,0.0,0.0,0.0,0.0,0.0,0.0,0.0,0.0,0.0,0.0,0.0,0.0,0.0,0.0,0.0,0.0,0.0,0.0,0.0,0.0,0.0,0.0,0.0,0.0,0.0,0.0,0.0,0.0,0.0,0.0,0.0,0.0,0.0,0.0,0.0,0.0,0.0,0.0,0.0,0.0,0.0,0.0,0.0,0.0,0.0,0.0,0.0,0.0,0.0,0.0,0.0,0.0,0.0,0.0,0.0,0.0,0.0,0.0,0.0,0.0,0.0,0.0,0.0,0.0,0.0,0.0,0.0,0.0,0.0,0.0,0.0,0.0,0.0,0.0,0.0,0.0,0.0,0.0,0.0,0.0,0.0,0.0,0.0,0.0,0.0,0.0,0.0,0.0,0.0,0.0,0.0,0.0,0.0,0.0,0.0,0.0,0.0,0.0,0.0,0.0,0.0,0.0,0.0,0.0,0.0,0.0,0.0,0.0,0.0,0.0,0.0,0.0,0.0,0.0,0.0,0.0,0.0,0.0,0.0,0.0,0.0,0.0,0.0,0.0,0.0,0.0,0.0,0.0,0.0,0.0,0.0,0.0,0.0,0.0,0.0,0.0,0.0,0.0,0.0,0.0,0.0,0.0,0.0,0.0,0.0,0.0,0.0,0.0,0.0,0.0,0.0,0.0,0.0,0.0,0.0,0.0,0.0,0.0,0.0,0.0,0.0,0.0,0.0,0.0,0.0,0.0,0.0,0.0,0.0,0.0,0.0,0.0,0.0,0.0,0.0,0.0,0.0,0.0,0.0,0.0,0.0,0.0,0.0,0.0,0.0,0.0,0.0,0.0,0.0,0.0,0.0,0.0,0.0,0.0,0.0,0.0,0.0,0.0,0.0,0.0,0.0,0.0,0.0,0.0,0.0,0.0,0.0,0.0,0.0,0.0,0.0,0.0,0.0,0.0,0.0,0.0,0.0,0.0,0.0,0.0,0.0,0.0,0.0,0.0,0.0,0.0,0.0,0.0,0.0,0.0,0.0,0.0,0.0,0.0,0.0,0.0,0.0,0.0,0.0,0.0,0.0,0.0,0.0,0.0,0.0,0.0,0.0,0.0,0.0,0.0,0.0,0.0,0.0,0.0,0.0,0.0,0.0,0.0,0.0,0.0,0.0,0.0,0.0,0.0,0.0,0.0,0.0,0.0,0.0,0.0,0.0,0.0,0.0,0.0,0.0,0.0,0.0,0.0,0.0,0.0,0.0,0.0,0.0,0.0,0.0,0.0,0.0,0.0,0.0,0.0,0.0,0.0,0.0,0.0,0.0,0.0,0.0,0.0,0.0,0.0,0.0,0.0,0.0,0.0,0.0,0.0,0.0,0.0,0.0,0.0,0.0,0.0,0.0,0.0,0.0,0.0,0.0,0.0,0.0,0.0,0.0,0.0,0.0,0.0,0.0,0.0,0.0,0.0,0.0,0.0,0.0,0.0,0.0,0.0,0.0,0.0,0.0,0.0,0.0,0.0,0.0,0.0,0.0,0.0,0.0,0.0,0.0,0.0,0.0,0.0,0.0,0.0,0.0,0.0,0.0,0.0,0.0,0.0,0.0,0.0,0.0,0.0,0.0,0.0,0.0,0.0,0.0,0.0,0.0,0.0,0.0,0.0,0.0,0.0,0.0,0.0,0.0,0.0,0.0,0.0,0.0,0.0,0.0,0.0,0.0,0.0,0.0,0.0,0.0,0.0,0.0,0.0,0.0,0.0,0.0,0.0,0.0,0.0,0.0,0.0,0.0,0.0,0.0,0.0,0.0,0.0,0.0,0.0,0.0,0.0,0.0,0.0,0.0,0.0,0.0,0.0,0.6837,0.6846,0.0,0.0,0.0,0.0,0.0,0.0,0.0,0.0,0.0,0.0,0.0,0.0,0.0,0.0,0.0,0.0,0.0,0.0,0.0,0.0,0.0,0.0,0.0,0.0,0.0,0.0,0.3182,0.3616,0.4285,0.468,0.5124,0.5624,0.6213,0.634,0.5998,0.6054,0.6032,0.5935,0.6346,0.7655,0.9688,0.9756,0.9036,0.7687,0.0,0.0,0.0,0.0,0.0,0.0,0.0,0.0,0.0,0.0,0.0,0.0,0.0,0.0,0.0,0.0,0.0,0.0,0.0,0.0,0.0,0.0,0.0,0.0,0.0,0.0,0.0,0.0,0.0,0.0,0.0,0.0,0.0,0.0,0.0,0.0,0.0,0.0,0.0,0.0,0.0,0.0,0.0,0.0,0.0,0.0,0.0,0.0,0.0,0.0,0.0,0.0,0.0,0.0,0.0,0.0,0.0,0.0,0.0,0.0,0.0,0.0,0.0,0.0,0.0,0.0,0.0,0.0,0.0,0.0,0.8036,0.7832,0.0,0.0,0.0,0.0,0.0,0.0,0.0,0.0,0.0,0.0,0.0,0.0,0.0,0.0,0.0,0.0,0.0,0.0,0.0,0.0,0.0,0.0,0.0,0.2788,0.3113,0.3664,0.3678,0.4112,0.5235,0.5158,0.5449,0.6293,0.6901,0.6885,0.6152,0.654,0.6677,0.6527,0.811,1.0188,1.2622,1.3507,1.2443,0.9677,0.7787,0.0,0.0,0.0,0.0,0.0,0.0,0.0,0.0,0.0,0.0,0.0,0.0,0.0,0.0,0.0,0.0,0.0,0.0,0.0,0.0,0.0,0.0,0.0,0.0,0.0,0.0,0.0,0.0,0.0,0.0,0.0,0.0,0.0,0.0,0.0,0.0,0.0,0.0,0.0,0.0,0.0,0.0,0.0,0.0,0.0,0.0,0.0,0.0,0.0,0.0,0.0,0.0,0.0,0.0,0.0,0.0,0.0,0.0,0.0,0.0,0.0,0.0,0.0,0.827,0.8542,0.9045,0.8863,0.8989,0.9345,0.9285,0.8843,0.8097,0.8787,0.0,0.0,0.0,0.0,0.0,0.0,0.0,0.0,0.0,0.0,0.0,0.0,0.0,0.0,0.0,0.0,0.0,0.0,0.0,0.0,0.0,0.3191,0.3449,0.4157,0.4249,0.4828,0.6057,0.5941,0.6151,0.6852,0.6934,0.6835,0.6622,0.6406,0.6921,0.8194,1.1726,1.4031,1.5074,1.5899,1.5926,1.4984,1.2627,1.071,0.9283,0.0,0.0,0.0,0.0,0.0,0.0,0.0,0.0,0.0,0.0,0.0,0.0,0.0,0.0,0.0,0.0,0.0,0.0,0.0,0.0,0.0,0.0,0.0,0.0,0.0,0.0,0.0,0.0,0.0,0.0,0.0,0.0,0.0,0.0,0.0,0.0,0.0,0.0,0.0,0.0,0.0,0.0204,0.1662,0.0,0.0,0.0,0.0,0.0,0.0,0.0,0.0,0.0,0.0,0.0,0.0,0.0,0.7195,0.7775,0.873,0.9325,0.9765,1.0188,1.0431,1.0294,1.0294,1.0447,1.0635,1.0852,0.0,0.8535,0.8388,0.0,0.0,0.0,0.0,0.0,0.0,0.0,0.0,0.0,0.0,0.0,0.0,0.0,0.0,0.0,0.0,0.0,0.0,0.0,0.0,0.0,0.5065,0.622,0.6701,0.857,0.9381,0.8609,0.8727,0.8357,0.7376,0.7198,0.7081,0.6982,0.751,0.922,1.2231,1.5272,1.749,1.8951,1.9813,2.0066,1.9582,1.8156,1.5279,1.1418,1.1092,0.0,0.0,0.0,0.0,0.0,0.0,0.0,0.0,0.0,0.0,0.0,0.0,0.0,0.0,0.0,0.0,0.0,0.0,0.0,0.0,0.0,0.0,0.0,0.0,0.0,0.0,0.0,0.0,0.0,0.0,0.0,0.0,0.0,0.0,0.0,0.0,0.0,0.0,0.0,0.0641,0.2342,0.4066,0.4195,0.4013,0.0,0.0,0.0,0.0,0.0,0.0,0.0,0.0,0.0,0.7127,0.8445,0.9286,0.9619,1.033,1.0853,1.1056,1.1491,1.1586,1.1375,1.128,1.1314,1.1402,1.1358,1.0769,0.9809,0.9538,0.9001,0.8446,0.0,0.0,0.0,0.0,0.932,1.0123,0.0,0.0,0.0,0.0,0.0,0.0,0.0,0.0,0.0,0.0,0.0,0.0,0.6272,0.8118,0.9536,1.0288,1.2565,1.3054,1.1029,1.0816,0.9877,0.7875,0.7618,0.7427,0.7305,0.9307,1.223,1.5993,1.8665,2.0743,2.2258,2.3207,2.342,2.2966,2.2539,1.93,1.4228,1.3551,1.1549,0.8816,0.0,0.0,0.0,0.0,0.0,0.0,0.0,0.0,0.0,0.0,0.0,0.0,0.0,0.0,0.0,0.0,0.0,0.0,0.0,0.0,0.0,0.0,0.0,0.0,0.0,0.0,0.0,0.0,0.0,0.0,0.0,0.0,0.0,0.0,0.0,0.0,0.0,0.1953,0.4299,0.6409,0.657,0.6227,0.0,0.0,0.0,0.0,0.0,0.0,0.652,0.8013,0.8924,0.8967,1.0436,1.1279,1.1341,1.1898,1.2155,1.2121,1.2386,1.2413,1.223,1.2115,1.204,1.1986,1.1694,1.1348,1.088,1.0471,0.9713,0.8945,0.8745,0.8734,0.8899,0.8631,0.9346,1.0333,0.0,0.0,0.0,0.0,0.0,0.0,0.0,0.0,0.0,0.0,0.0,0.7116,1.2677,1.2642,1.2912,1.4643,1.4294,1.3556,1.2657,1.1059,0.9577,0.8336,0.8144,0.7916,0.7586,1.1776,1.5404,1.8506,2.1951,2.3714,2.4102,2.5264,2.5344,2.4529,2.4489,2.2124,1.8158,1.6619,1.4405,1.1696,0.9323,0.0,0.0,0.0,0.0,0.0,0.0,0.0,0.0,0.0,0.0,0.0,0.0,0.0,0.0,0.0,0.0,0.0,0.0,0.0,0.0,0.0,0.0,0.0,0.0,0.0,0.0,0.0,0.0,0.0,0.0,0.0,0.0,0.0,0.0,0.0,0.0,0.0,0.0,0.7888,0.884,0.0,0.0,0.0,0.0,0.6111,0.8012,0.9014,0.8445,0.9497,1.0371,1.1009,1.1762,1.2244,1.242,1.2874,1.3037,1.2908,1.3057,1.2976,1.2698,1.2684,1.2603,1.2454,1.2155,1.1932,1.1681,1.046,0.9895,0.9634,1.0272,1.0615,1.0795,1.0462,1.0615,1.0741,0.0,0.0,0.0,0.0,0.0,0.0,0.0,0.0,0.4816,0.4632,0.4853,0.7688,1.4533,1.6197,1.7849,2.0442,2.1973,2.2393,2.1427,1.7994,1.506,1.3017,0.9951,0.9534,1.214,1.5667,1.8971,2.2031,2.4329,2.5611,2.5905,2.652,2.6627,2.6306,2.5932,2.4836,2.31,2.0496,1.758,1.4623,1.2866,1.039,0.0,0.0,0.0,0.0,0.0,0.0,0.0,0.0,0.0,0.0,0.0,0.0,0.0,0.0,0.0,0.0,0.0,0.0,0.0,0.0,0.0,0.0,0.0,0.0,0.0,0.0,0.0,0.0,0.0,0.0,0.0,0.0,0.0,0.0,0.0,0.0,0.0,0.8172,0.8948,0.0,0.7885,0.7736,0.7842,0.7874,0.9319,1.0299,1.0491,1.1138,1.1791,1.2155,1.2712,1.3078,1.3227,1.3573,1.3627,1.3397,1.3532,1.3451,1.3159,1.3057,1.2935,1.2773,1.2379,1.2067,1.1782,1.1165,1.0622,1.0114,1.0069,1.0016,0.9865,0.9709,0.8964,0.8171,0.0,0.0,0.0,0.0,0.0,0.0,0.0,0.0,0.5568,0.6711,0.5991,0.8574,1.6892,2.1961,2.4815,2.4935,2.7311,2.7358,2.3718,2.0506,1.7132,1.3561,1.1167,1.1872,1.6058,1.8807,2.155,2.4502,2.6066,2.6881,2.6799,2.7268,2.7362,2.7241,2.6854,2.652,2.6092,2.3848,2.1222,1.8523,1.6265,1.3001,0.9311,0.0,0.0,0.0,0.0,0.0,0.0,0.0,0.0,0.0,0.0,0.0,0.0,0.0,0.0,0.0,0.0,0.0,0.0,0.0,0.0,0.0,0.0,0.0,0.0,0.0,0.0,0.0,0.0,0.0,0.0,0.0,0.0,0.0,0.0,0.5605,0.7358,0.9145,0.9795,0.9976,0.9366,0.9533,0.9738,0.9954,1.092,1.1674,1.2121,1.2522,1.2834,1.303,1.3417,1.3675,1.3777,1.4027,1.4,1.3702,1.3797,1.3661,1.3315,1.3166,1.3024,1.2861,1.2461,1.2149,1.1891,1.164,1.1246,1.0758,1.0419,0.9989,0.9664,0.9751,0.8117,0.6375,0.0,0.0,0.0,0.0,0.0,0.0,0.0,0.5525,0.6673,0.9888,0.7919,1.0031,2.0136,3.0018,3.3583,2.788,2.9837,2.7635,1.9063,1.8201,1.5429,0.9688,1.1772,1.5043,1.9118,2.0873,2.3238,2.6012,2.7148,2.7562,2.7105,2.7397,2.7549,2.7295,2.7295,2.7134,2.7015,2.656,2.5283,2.3229,1.9326,1.5629,1.2107,0.0,0.0,0.0,0.0,0.0,0.0,0.0,0.0,0.0,0.0,0.0,0.0,0.0,0.0,0.0,0.0,0.0,0.0,0.0,0.0,0.0,0.0,0.0,0.0,0.0,0.0,0.0,0.0,0.0,0.0,0.0,0.0,0.0,0.6366,0.8146,0.9669,1.0854,1.1646,1.187,1.128,1.1755,1.2162,1.2311,1.2732,1.3044,1.3186,1.3478,1.3641,1.3641,1.3926,1.4082,1.4082,1.4224,1.4143,1.3838,1.3838,1.3607,1.3166,1.3037,1.2888,1.2712,1.2427,1.221,1.2047,1.1898,1.166,1.1389,1.1121,1.0803,1.0512,1.0692,0.8392,0.5726,0.0,0.0,0.0,0.0,0.0,0.0,0.0,0.6191,0.7427,1.0433,1.0839,1.4033,2.2219,3.1521,3.6563,3.4848,3.4026,3.1992,2.8071,2.3038,1.7787,1.2282,1.5591,1.8631,2.0886,2.3534,2.5558,2.7215,2.7762,2.7976,2.7896,2.7976,2.7976,2.7896,2.7702,2.7722,2.7825,2.7375,2.6627,2.5429,2.343,2.0151,1.6325,0.0,0.0,0.0,0.0,0.0,0.0,0.0,0.0,0.0,0.0,0.0,0.0,0.0,0.0,0.0,0.0,0.0,0.0,0.0,0.0,0.0,0.0,0.0,0.0,0.0,0.0,0.0,0.0,0.0,0.0,0.0,0.6316,0.7653,0.7808,0.8981,1.032,1.1917,1.2505,1.28,1.2637,1.2773,1.2929,1.3085,1.3315,1.3505,1.3648,1.3844,1.3953,1.3953,1.4136,1.4238,1.4238,1.4278,1.4143,1.3838,1.3838,1.3607,1.3173,1.3247,1.3078,1.2725,1.2644,1.24,1.2047,1.1898,1.1735,1.1565,1.1281,0.9393,0.7159,0.9805,0.683,0.2021,0.0,0.0,0.0,0.0,0.0,0.0,0.0,0.6787,0.7932,1.0916,1.4554,1.813,2.1619,3.2591,3.974,4.0125,3.5981,3.191,2.8372,2.0934,1.6044,1.4706,1.8049,2.0855,2.2523,2.5365,2.7134,2.7888,2.8193,2.8511,2.8524,2.8326,2.8142,2.8142,2.7878,2.8221,2.8839,2.8182,2.7604,2.7223,2.6507,2.4164,2.0722,1.6523,1.3292,1.0751,0.9249,0.8084,0.7061,0.5669,0.0,0.0,0.0,0.0,0.0,0.0,0.0,0.0,0.0,0.0,0.0,0.0,0.0,0.0,0.0,0.0,0.0,0.0,0.0,0.0,0.0,0.0,0.0,0.0,0.7949,0.9187,1.0058,1.0594,1.1431,1.2752,1.322,1.3478,1.3546,1.3553,1.3614,1.3763,1.3858,1.3946,1.4027,1.4116,1.4163,1.4163,1.4251,1.4299,1.4299,1.4299,1.4143,1.3838,1.3838,1.3641,1.3268,1.3234,1.3071,1.282,1.2691,1.2454,1.2149,1.1993,1.185,0.0,0.0,0.0,0.0,0.0,0.3534,0.0671,0.0,0.0,0.0,0.0,0.0,0.0,0.0,0.74,0.8464,1.1642,1.8088,2.1947,2.0799,3.3453,4.2159,4.2988,3.6504,2.9746,2.3617,1.5921,1.3381,1.7338,1.9957,2.2173,2.4021,2.6574,2.7968,2.8314,2.8564,2.8723,2.9138,2.871,2.8522,2.8561,2.8268,2.8955,2.9757,2.9025,2.8603,2.8699,2.8017,2.6797,2.4422,1.7249,1.3854,1.274,1.0048,0.8564,0.7902,0.723,0.0,0.0,0.0,0.0,0.0,0.0,0.0,0.0,0.0,0.0,0.0,0.0,0.0,0.0,0.0,0.0,0.0,0.0,0.0,0.0,0.0,0.0,0.0,0.0,0.9205,1.0443,1.2413,1.2644,1.2854,1.339,1.3715,1.3946,1.4082,1.4095,1.4156,1.4292,1.4299,1.4299,1.4299,1.4299,0.0,0.0,0.0,1.4292,1.4272,1.4272,1.4109,1.379,1.381,1.3654,1.3342,1.3098,1.2969,1.2922,1.2644,1.2433,1.2277,1.2128,1.1959,1.1796,1.1674,0.9358,0.5669,0.2349,0.095,0.1475,0.0,0.0,0.0,0.0,0.0,0.0,0.0,0.8288,0.9826,1.3149,1.8665,2.3977,2.8478,3.5114,3.9122,3.8651,3.6526,3.1379,2.2189,1.9558,1.9744,2.2807,2.3093,2.4045,2.5816,2.7298,2.84,2.8908,2.8569,2.8726,2.974,3.0111,3.0328,3.0177,2.9247,2.9247,2.986,3.075,3.0515,2.9422,2.645,2.462,2.3732,2.3108,1.937,1.4514,1.4683,1.342,1.1443,0.9572,0.9215,0.9026,0.7146,0.5797,0.0,0.0,0.0,0.0,0.0,0.0,0.0,0.0,0.0,0.0,0.0,0.0,0.0,0.0,0.0,0.0,0.0,0.0,0.0,0.9,1.0604,1.2072,1.3261,1.3512,1.3627,1.3743,1.4027,1.4224,1.4251,1.4258,1.4272,1.4299,1.4299,1.4299,1.4299,1.4299,1.4299,1.4299,1.4299,1.4238,1.4116,1.4116,1.3905,1.3485,0.0,0.0,1.3051,1.3105,1.3003,1.2773,1.2712,1.2535,1.2277,1.2128,1.1904,1.1647,1.1667,1.0818,0.9556,0.8845,0.6796,0.4559,0.0,0.0,0.0,0.0,0.0,0.0,0.0,0.8656,0.9526,1.2058,1.6773,2.3712,3.3802,3.4341,3.1313,2.5217,2.4239,2.2595,1.9662,2.0407,2.2957,2.7511,2.7159,2.7188,2.8049,2.8963,2.995,3.119,3.0132,3.0016,3.0778,3.1095,3.0845,3.0368,3.0438,3.0504,3.0805,3.1511,3.1272,3.0371,2.5937,2.4261,2.4024,2.0956,1.7548,1.4712,1.5042,1.4176,1.2779,1.1516,1.1141,1.0926,0.9546,0.83,0.725,0.0,0.0,0.0,0.0,0.0,0.0,0.0,0.0,0.0,0.0,0.0,0.0,0.0,0.0,0.7063,0.7094,0.0,1.0093,1.0464,1.1764,1.3085,1.3756,1.3912,1.3987,1.4061,1.4204,1.4299,1.4299,1.4299,1.4299,1.4299,1.4299,1.4299,1.4299,1.4299,1.4299,1.4299,1.4299,1.4224,1.4075,1.4075,1.3844,1.3403,1.3478,1.3322,1.2963,1.2956,1.2868,1.2725,1.2651,1.2528,1.2379,1.2155,1.1932,1.1701,1.1491,1.1321,1.0902,1.077,0.9526,0.8051,0.0,0.0,0.0,0.0,0.0,0.0,0.0,0.8985,0.9249,1.0974,1.5034,2.2112,3.3708,3.1343,2.5473,1.7017,1.4696,1.5652,2.0197,2.2496,2.591,3.1013,3.0643,3.0559,3.0595,3.0916,3.1826,3.3337,3.2028,3.1436,3.1908,3.1824,3.1302,3.0503,3.1383,3.1894,3.1705,3.173,3.1704,3.1274,2.7228,2.534,2.4207,1.7286,1.4441,1.4326,1.4084,1.3542,1.2861,1.2827,1.24,1.185,1.1633,1.0857,0.9646,0.8229,0.765,0.0,0.0,0.0,0.0,0.0,0.0,0.0,0.0,0.6592,0.7069,0.7183,0.7894,0.8598,0.9005,1.0272,1.1482,1.1949,1.2896,1.3634,1.4055,1.4116,1.415,1.4245,1.4285,1.4299,1.4299,1.4299,1.4299,1.4299,1.4299,1.4299,1.4299,1.4299,1.4299,1.4299,1.4299,1.4211,1.4027,1.4027,1.3804,1.3356,1.3356,1.3234,1.2996,1.2813,1.2745,1.2766,1.2583,1.2467,1.24,1.2162,1.1952,1.1769,1.1531,1.1341,1.1185,1.0893,1.0739,1.0744,0.0,0.0,0.0,0.0,0.0,0.0,0.0,0.0,1.0844,1.2314,1.6232,1.9691,2.1666,2.5757,2.8996,3.0885,2.4559,2.3124,2.9728,3.0663,3.1113,3.168,3.2141,3.2533,3.3016,3.3132,3.3106,3.3325,3.3106,3.301,3.2619,3.253,3.2516,3.2345,3.2385,3.2177,3.1736,3.1763,3.1763,3.1723,3.1684,2.8608,2.3475,1.7593,1.4936,1.4276,1.3971,1.284,1.1777,1.282,1.2146,1.1235,1.1993,1.1571,1.0763,0.978,0.8649,0.7385,0.6188,0.5601,0.5423,0.5804,0.6614,0.7339,0.0,0.8481,0.9256,0.9662,1.0129,1.0589,1.0928,1.1694,1.2454,1.3071,1.3526,1.3905,1.4231,1.4272,1.4231,1.4109,1.4217,1.4299,1.4299,1.4299,1.4299,1.4299,1.4299,1.4299,1.4299,1.4299,1.4299,1.4299,1.4299,1.4163,1.3871,1.3865,1.3641,1.32,1.32,1.318,1.3139,1.2861,1.2807,1.2922,1.263,1.2352,1.2108,1.2074,1.1898,1.164,1.1606,1.1497,1.1335,1.1056,1.0853,1.0724,0.0,0.0,0.0,0.0,0.0,0.0,0.0,0.0,0.0,1.2009,1.3324,1.4457,1.5384,1.7868,1.9907,2.1074,1.8004,1.9036,2.6118,3.0233,3.2154,3.1797,3.2586,3.3215,3.3324,3.3954,3.3891,3.3327,3.3327,3.3287,3.3219,3.3143,3.3089,3.2989,3.2767,3.2754,3.2754,3.2324,3.2324,3.2767,3.2915,3.1295,2.7433,1.9021,1.4705,1.3235,1.2926,1.2372,0.0,1.228,1.1903,1.142,1.1945,1.1657,1.0834,0.9905,0.8953,0.7982,0.7362,0.6912,0.6884,0.7519,0.8163,0.871,0.9161,0.969,1.0243,1.0692,1.1124,1.1667,1.2203,1.2698,1.3193,1.3709,1.3973,1.4156,1.4285,1.4143,1.3946,1.3709,1.3736,1.3878,1.4143,1.4163,1.4204,1.4292,1.4299,1.4299,1.4299,1.4299,1.4299,1.4299,1.4211,1.4061,1.3844,1.3668,1.3403,1.3051,1.2956,1.2868,1.2779,1.2745,1.2766,1.2813,1.2596,1.2433,1.2305,1.2135,1.1993,1.185,1.1586,1.145,1.1375,1.1253,1.1056,1.0853,0.0,0.0,0.0,0.0,0.0,0.0,0.0,0.0,0.0,0.0,1.1166,1.1246,1.2295,1.2747,1.2842,1.2361,1.2206,1.5342,2.2885,2.9296,3.2553,3.1948,3.2893,3.3681,3.3905,3.4395,3.4326,3.3668,3.3668,3.3561,3.3574,3.3584,3.3687,3.3687,3.3381,3.3143,3.3354,3.3036,3.3009,3.3456,3.3435,3.2839,3.1296,2.3524,1.7404,1.2572,1.2119,1.1678,1.1286,1.1649,1.1309,1.0871,1.1425,1.1221,1.0393,0.9688,0.8785,0.8123,0.8018,0.7886,0.8108,0.8962,0.9525,0.9961,1.0355,1.0772,1.1172,1.147,1.1911,1.242,1.2976,1.3295,1.3593,1.4007,1.4197,1.4299,1.4299,1.3966,1.3627,1.337,1.3193,1.3254,1.3661,1.3885,1.4068,1.4224,1.4278,1.4299,1.4299,1.4299,1.4299,1.4299,1.415,1.3994,1.3844,1.3593,1.3336,1.3078,1.2929,1.2813,1.2752,1.282,1.2807,1.2725,1.261,1.2522,1.2427,1.2169,1.204,1.1965,1.1599,1.143,1.1389,1.1389,1.1206,1.0941,0.0,0.0,0.0,0.0,0.0,0.0,0.0,0.0,0.0,0.0,0.0,0.0,0.0,1.2496,1.2425,1.2139,1.2126,1.5622,2.4015,3.0143,3.321,3.2542,3.3516,3.4328,3.5221,3.4625,3.4322,3.4528,3.4309,3.4282,3.4282,3.4037,3.4037,3.4255,3.3988,3.3828,3.3369,3.3306,3.3387,3.3387,3.34,3.3435,3.3326,3.2407,2.4221,1.3103,1.229,1.0679,0.9419,1.0877,1.004,0.8763,0.9991,1.0194,0.9764,0.9465,0.831,0.7302,0.7811,0.7968,0.8298,0.9603,1.0383,1.0955,1.128,1.1701,1.2101,1.24,1.2589,1.2847,1.3302,1.3519,1.3722,1.4021,1.4197,1.4299,1.4299,1.379,1.3356,1.32,1.2671,1.244,1.2745,1.3424,1.3912,1.4068,1.4217,1.4299,1.4299,1.4299,1.4299,1.4299,1.415,1.3994,1.3844,1.3695,1.3546,1.3383,1.3234,1.3234,1.337,1.3227,1.3003,1.2732,1.2725,1.2562,1.2284,1.2128,1.1972,1.1823,1.1674,1.1518,1.1389,1.1389,1.1206,1.0928,0.0,0.0,0.0,0.0,0.0,0.0,0.0,0.0,0.0,0.0,0.0,0.0,0.0,0.0,0.0,0.0,1.1845,1.4277,2.0341,2.4939,2.7792,2.8468,3.1434,3.3117,3.3151,3.4178,3.4322,3.3734,3.4122,3.4108,3.3721,3.3708,3.3708,3.3708,3.3614,3.3574,3.3346,3.3454,3.2643,3.1646,3.1244,3.2042,3.2449,2.377,1.6721,1.1511,0.0,0.9976,0.9533,0.9795,0.9385,0.8972,0.9644,0.9526,0.9026,0.8242,0.8145,0.8352,0.8467,0.8873,0.9504,1.0718,1.1454,1.1965,1.2461,1.2691,1.28,1.2807,1.2588,1.2751,1.3356,1.3499,1.3576,1.422,1.4487,1.4519,1.4208,1.3885,1.3417,1.2678,1.2583,1.2427,1.2033,1.2664,1.3329,1.3878,1.3966,1.4082,1.4292,1.4299,1.4299,1.4299,1.415,1.3994,1.3844,1.36,1.3403,1.3247,1.3105,1.3112,1.3247,1.3098,1.2976,1.2874,1.2773,1.2617,1.242,1.2271,1.2121,1.1972,1.1816,1.1606,1.1382,1.1274,1.1118,1.0941,0.0,0.0,0.0,0.0,0.0,0.0,0.0,0.0,0.0,0.0,0.0,0.0,0.0,0.0,0.0,0.0,0.0,1.297,1.5865,2.0085,2.2965,2.3887,2.7341,2.9253,2.8988,3.0246,3.0491,2.9839,3.1127,3.1692,3.1236,3.2291,3.2786,3.2786,3.2679,3.2902,3.3219,3.2989,3.0949,2.7945,2.9575,3.0542,3.0222,2.3681,1.6657,0.0,1.0529,1.0198,0.9788,0.9669,0.9409,0.9124,0.9301,0.9048,0.8554,0.7526,0.8074,0.9083,0.9137,0.9669,1.0649,1.1694,1.2352,1.2786,1.3166,1.3173,1.3123,1.3098,1.2728,1.2655,1.3325,1.3409,1.3551,1.3798,1.418,1.4189,1.3816,1.3519,1.3119,1.2657,1.2488,1.2264,1.1898,1.2291,1.2861,1.3553,1.3749,1.3953,1.4204,1.4272,1.4299,1.4299,1.415,1.4021,1.3926,1.3682,1.3485,1.3336,1.3186,1.3166,1.3254,1.3159,1.3064,1.2956,1.2854,1.2691,1.2488,1.2291,1.2149,1.204,1.1837,1.1572,1.1301,1.1199,1.1036,1.0867,0.0,0.0,0.0,0.0,0.0,0.0,0.0,0.0,0.0,0.0,0.0,0.0,0.0,0.0,0.0,0.0,0.0,0.0,1.1289,1.6013,1.8875,1.9057,2.1694,2.323,2.3427,2.3565,2.352,2.342,2.5937,2.7173,2.7324,2.9998,3.1129,3.1116,3.0849,3.1299,3.217,3.1579,2.7836,2.287,2.8115,2.8614,2.6508,3.0944,2.3293,1.0384,1.1723,1.1241,1.0113,1.055,1.0015,0.918,0.9021,0.882,0.8392,0.7499,0.83,0.9527,0.9824,1.0732,1.1748,1.2494,1.3105,1.3424,1.3417,1.3308,1.3064,1.3097,1.2767,1.2641,1.3155,1.3364,1.3413,1.3152,1.3448,1.3574,1.3391,1.2827,1.2589,1.3112,1.2433,1.2026,1.2284,1.2318,1.2562,1.3139,1.358,1.3899,1.4075,1.4224,1.4299,1.4299,1.4156,1.4082,1.4075,1.3912,1.3756,1.3614,1.3471,1.3403,1.3403,1.339,1.3234,1.2963,1.2949,1.2779,1.2481,1.2189,1.2067,1.2033,1.1735,1.143,1.1165,1.1151,1.0968,1.0717,0.0,0.0,0.0,0.0,0.0,0.0,0.0,0.0,0.0,0.0,0.0,0.0,0.0,0.0,0.0,0.0,0.0,0.0,1.1663,1.4604,1.6396,1.6377,1.9866,2.1774,2.1642,2.2783,2.3107,2.2582,2.3356,2.3515,2.3242,2.3882,2.4093,2.4235,2.4242,2.4494,2.4864,2.4426,2.31,2.1215,2.2229,2.185,2.0925,2.159,1.6888,1.0047,1.232,1.194,1.0415,1.0632,1.0123,0.9362,0.8998,0.9043,0.9253,0.9168,0.9877,1.0732,1.117,1.187,1.278,1.337,1.3641,1.3702,1.3593,1.3899,1.3881,1.2918,1.2873,1.3172,1.3205,1.2916,1.2975,1.3718,1.3813,1.3798,1.3672,1.3763,1.3634,1.322,1.3173,1.3024,1.2657,1.2725,1.2942,1.3315,1.3451,1.3729,1.4217,1.4278,1.4299,1.4299,1.4265,1.419,1.4075,1.381,1.3607,1.3458,1.3417,1.3403,1.3397,1.3281,1.3132,1.2956,1.284,1.2678,1.2488,1.2305,1.2169,1.2033,1.1735,1.143,1.1151,1.1043,1.088,1.0717,0.0,0.0,0.0,0.0,0.0,0.0,0.0,0.0,0.0,0.0,0.0,0.0,0.0,0.0,0.0,0.0,0.0,0.0,0.0,1.2978,1.3717,1.3672,1.5707,1.6956,1.7038,1.7655,1.784,1.7572,1.87,1.9127,1.8912,1.9924,2.0557,2.0676,2.0602,2.0739,2.1091,2.0846,1.9814,0.0,0.0,1.7009,1.5138,1.4305,1.2838,1.148,1.2993,1.2089,1.0293,1.0547,1.0183,0.9712,0.9648,0.9964,1.0406,1.048,1.124,1.2094,1.2366,1.2874,1.3424,1.3756,1.379,1.3734,1.3973,1.4024,1.3944,1.3394,1.3464,1.3445,1.2989,1.2857,1.2809,1.2888,1.3213,1.3373,1.3384,1.3654,1.3743,1.3587,1.36,1.3498,1.3159,1.32,1.3349,1.358,1.3539,1.3709,1.4177,1.4265,1.4299,1.4299,1.4299,1.4224,1.4075,1.3838,1.3648,1.3498,1.3431,1.3363,1.3295,1.3214,1.3057,1.2854,0.0,1.2644,1.2488,1.2277,1.2142,1.2026,1.166,1.1375,1.1145,1.1002,1.0853,1.0717,0.0,0.0,0.0,0.0,0.0,0.0,0.0,0.0,0.0,0.0,0.0,0.0,0.0,0.0,0.0,0.0,0.0,0.0,0.0,0.0,1.1382,1.1327,1.1307,1.1433,1.1853,1.1564,1.1411,1.1431,1.3607,1.4679,1.4612,1.6838,1.8002,1.8105,1.7942,1.8109,1.8541,1.817,1.6862,1.4938,1.5139,1.3437,1.0586,0.0,1.0825,1.3332,1.3167,1.1843,1.0228,1.0413,1.0233,1.002,1.0509,1.0993,1.1456,1.1511,1.2294,1.3145,1.3276,1.3559,1.3871,1.3871,1.3722,1.369,1.426,1.3996,1.3737,1.432,1.4332,1.3881,1.2699,1.3047,1.293,1.1581,1.215,1.2877,1.3151,1.32,1.3492,1.4041,1.3878,1.3715,1.3715,1.3702,1.3749,1.3892,1.377,1.381,1.4089,1.4231,1.4299,1.4299,1.4299,1.4224,1.4075,1.3939,1.379,1.3627,1.3492,1.3342,1.3173,1.3152,1.299,1.2725,1.2712,1.2623,1.2481,1.2182,1.206,1.2013,1.1545,1.128,1.1145,1.0982,1.0833,1.0717,0.0,0.0,0.0,0.0,0.0,0.0,0.0,0.0,0.0,0.0,1.2014,1.2219,0.0,0.0,0.0,0.0,0.0,0.0,0.0,0.0,0.0,1.0992,1.1407,1.1499,1.1165,1.1579,1.1584,1.1166,1.1372,1.1374,1.1168,1.1451,1.1658,1.1858,1.1828,1.1976,1.2262,1.1832,1.1527,1.1212,1.0827,1.0994,1.1291,1.0623,0.0,0.0,1.1353,1.1044,1.0891,1.0203,1.0142,1.0492,1.0796,1.1226,1.1865,1.2291,1.2821,1.3304,1.3566,1.3878,1.4034,1.4034,1.3641,1.3366,1.375,1.3957,1.4118,1.4318,1.5072,1.5115,1.3461,1.3667,1.3659,1.2276,1.2689,1.3185,1.3583,1.3817,1.4,1.4231,1.4217,1.4183,1.4183,1.4068,1.4055,1.4211,1.4082,1.4075,1.4251,1.4285,1.4299,1.4299,1.4299,1.4224,1.4075,1.4048,1.3899,1.3627,1.36,1.3444,1.3166,1.3051,1.2901,1.2725,1.2596,0.0,1.2481,1.2182,1.206,1.2006,1.143,1.1185,1.1131,1.086,1.0744,1.0717,0.0,0.0,0.0,0.0,0.0,0.0,0.0,1.0256,1.0783,1.1073,1.154,1.1894,1.1889,1.1815,1.1682,0.0,0.0,0.0,0.0,0.0,0.0,0.0,0.0,0.0,1.0919,1.1226,1.1277,1.1116,0.0,1.0522,1.0419,1.011,1.0162,1.0383,1.0331,1.0302,1.034,1.0249,1.0143,1.009,1.034,1.0852,1.1366,0.0,0.0,0.0,1.1813,1.1312,1.0781,1.0107,1.0297,1.0691,1.1108,1.1816,1.2505,1.2741,1.3141,1.3597,1.3807,1.4027,1.415,1.3994,1.3383,1.3108,1.4162,1.4155,1.4215,1.5114,1.5776,1.5632,1.3826,1.3948,1.3907,1.2423,1.2464,1.2909,1.3634,1.345,1.36,1.4224,1.4299,1.4299,1.4299,1.4231,1.4224,1.4292,1.4231,1.4224,1.4299,1.4299,1.4299,1.4299,1.4299,1.419,1.3953,1.3953,1.3804,1.3512,1.3512,1.3356,1.3057,1.299,1.2834,1.261,1.2535,1.2461,1.2372,1.2155,1.2013,1.1898,1.1457,1.1233,1.1138,1.0921,1.0785,1.0717,0.0,0.0,0.0,0.0,0.0,0.0,0.0,1.0001,1.0358,1.0702,1.1186,1.151,1.1573,1.1491,1.1314,0.0,0.0,0.0,0.0,0.0,0.0,0.0,0.0,0.0,1.0723,0.0,0.0,1.1015,1.0675,0.0,0.0,0.0,0.0,0.0,1.0265,1.0162,1.0007,1.0162,1.0058,0.0,0.0,1.1193,0.0,0.0,0.0,0.0,0.0,1.1934,1.0924,1.0591,1.067,1.0949,1.1487,1.2244,1.2849,1.2982,1.3347,1.3802,1.3886,1.4181,1.4217,1.3878,1.3071,1.2816,1.4417,1.4219,1.415,1.5918,1.641,1.594,1.4197,1.4474,1.4388,1.2457,1.2617,1.3193,1.3563,1.3332,1.3507,1.4122,1.4278,1.4299,1.4299,1.4299,1.4299,1.4299,1.4299,1.4299,1.4299,1.4299,1.4299,1.4299,1.4272,1.4136,1.3892,1.3858,1.3709,1.3451,1.3417,1.3247,1.2963,1.2929,1.2759,1.2501,1.2501,1.242,1.2277,1.2128,1.1972,1.1803,1.1504,1.1314,1.1192,1.1016,1.0873,1.0772,0.0,0.0,0.0,0.0,0.0,0.0,0.0,1.0409,1.084,1.0881,1.125,1.1433,1.1247,1.1186,1.1083,0.0,0.0,0.0,0.0,0.0,0.0,0.0,0.0,0.0,0.0,0.0,0.0,1.0726,1.0573,0.0,0.0,0.0,0.0,0.0,0.0,0.9991,0.9991,0.9903,0.0,0.0,0.0,0.0,0.0,0.0,0.0,0.0,0.0,1.2331,1.2469,1.1848,1.1466,1.1353,1.1508,1.1986,1.2589,1.3019,1.3321,1.3524,1.3909,1.4263,1.4197,1.3756,1.2766,1.2374,1.4009,1.3716,1.3764,1.6336,1.6864,1.6333,1.4875,1.5438,1.5342,1.2775,1.416,1.5106,1.3817,1.444,1.4899,1.4119,1.4217,1.4299,1.4299,1.4299,1.4299,1.4299,1.4299,1.4299,1.4299,1.4299,1.4299,1.4299,1.4163,1.4082,1.4048,1.3912,1.3763,1.3607,1.3464,1.3247,1.2956,1.2813,1.2657,1.2501,1.2501,1.242,0.0,1.2128,1.1972,1.1803,1.1504,1.1382,1.1335,1.105,1.0941,1.0928,0.0,0.0,0.0,0.0,0.0,0.0,1.0226,1.0429,1.0665,1.0797,1.118,1.1277,1.0833,1.1071,1.112,1.0777,0.0,0.0,0.0,0.0,0.0,0.0,0.0,0.0,0.0,0.0,1.068,1.0573,1.0265,0.0,0.0,0.0,0.0,0.0,0.0,0.9784,0.9629,0.9577,0.0,0.0,0.0,0.0,0.0,0.0,0.0,0.0,0.0,0.0,1.2332,1.2057,1.1689,1.1382,1.1471,1.1682,1.1929,1.2235,1.2851,1.3444,1.3413,1.3814,1.419,1.3743,1.2589,1.2079,1.3919,1.3599,1.3627,1.6237,1.692,1.6821,1.5817,1.5999,1.5843,1.4676,1.4717,1.4523,1.3808,1.3642,1.3604,1.3226,1.3478,1.3797,1.4258,1.4299,1.4299,1.4299,1.4299,1.4299,1.4299,1.4299,1.4258,1.4163,1.4102,1.3987,1.381,1.3743,1.3641,1.3492,1.3336,1.3159,1.2956,1.28,1.2603,1.2372,1.2372,1.2237,0.0,1.1945,1.1837,1.1694,1.1572,1.147,1.1369,1.1151,1.1077,1.1063,0.0,0.0,0.0,0.0,0.0,1.0791,1.0524,1.0607,1.0802,1.0968,1.1305,1.135,1.0897,1.1003,1.1026,1.0587,1.0508,0.0,0.0,0.0,0.0,0.0,0.0,0.0,0.0,0.0,1.041,1.0368,0.994,0.9732,0.0,0.0,0.9591,0.9643,0.0,0.0,0.0,0.0,0.0,0.0,0.0,0.0,0.0,0.0,0.0,0.0,0.0,0.0,0.0,0.0,0.0,1.1551,1.1477,1.1591,1.1714,1.1858,1.2587,1.3217,1.3156,1.3513,1.4041,1.3451,1.2712,1.2429,1.4085,1.3964,1.4182,1.6356,1.7032,1.7032,1.6368,1.6173,1.6011,1.5626,1.5254,1.4803,1.4129,1.3668,1.3429,1.3321,1.3312,1.3568,1.4358,1.443,1.4299,1.4299,1.4299,1.4299,1.4299,1.4258,1.4183,1.4075,1.4027,1.3885,1.3634,1.3539,1.3437,1.3329,1.3132,1.299,1.2888,1.2732,1.2528,1.2291,1.2291,1.2115,0.0,1.183,1.1721,1.1558,1.1599,1.1525,1.1382,1.1267,1.1226,1.1212,0.0,0.0,0.0,0.0,0.0,0.0,1.0715,1.1162,1.1475,1.1407,1.17,1.1808,1.1603,1.101,1.0545,1.0419,1.0248,0.0,0.0,0.0,0.0,0.0,0.0,0.0,0.0,0.0,0.9807,1.0007,0.9732,0.9458,0.9211,0.9054,0.9054,0.9211,0.0,0.0,0.0,0.0,0.0,0.0,0.0,0.0,0.0,0.0,0.0,0.0,0.0,0.0,0.0,0.0,0.0,0.0,0.0,1.1892,1.2089,1.2154,1.2346,1.2657,1.3228,1.3562,1.3496,1.3096,1.313,1.3578,1.4243,1.4792,1.5525,1.6974,1.7145,1.6842,1.6218,1.6124,1.5802,1.4956,1.6107,1.6522,1.5019,1.5183,1.5226,1.4974,1.4118,1.3826,1.4854,1.4587,1.4299,1.4299,1.4299,1.4299,1.4299,1.4156,1.4075,1.4075,1.3926,1.3777,1.3634,1.3329,1.3173,1.3173,1.2874,1.2732,1.2725,1.2576,1.2427,1.2291,1.2291,1.2115,0.0,1.183,1.166,1.1409,1.1558,1.1525,1.1389,1.1389,1.1389,1.1389,0.0,0.0,0.0,0.0,0.0,0.0,0.0,1.1025,1.0923,1.0968,1.0884,1.0698,1.048,1.0245,1.0234,1.0461,1.0214,0.0,0.0,0.0,0.0,0.0,0.0,0.0,0.0,0.0,0.9665,0.9718,0.9562,0.9406,0.9368,0.9368,0.9406,0.9458,0.9263,0.9263,0.0,0.0,0.0,0.0,0.0,0.0,1.2583,0.0,0.0,0.0,0.0,0.0,0.0,0.0,0.0,0.0,0.0,0.0,0.0,1.2364,1.2728,1.3182,1.3184,1.3684,1.4088,1.3761,1.3438,1.3581,1.4539,1.4721,1.5143,1.6659,1.7088,1.7032,1.6524,1.6581,1.6638,1.6388,1.6666,1.6606,1.5689,1.5009,1.4478,1.4169,1.4119,1.4123,1.4542,1.4416,1.4299,1.4299,1.4299,1.4299,1.4299,1.4156,1.4021,1.3919,1.377,1.3573,1.3322,1.322,1.3125,1.3024,1.2827,1.2732,1.2718,1.2474,1.2277,1.2128,1.202,1.1864,1.1687,1.1687,1.1633,1.1552,1.1599,1.1592,1.1538,1.143,1.1457,1.1674,0.0,0.0,0.0,0.0,0.0,0.0,0.0,1.1023,1.0845,1.0838,1.0522,1.024,1.0083,0.9977,1.0047,1.0328,1.0227,0.0,0.0,0.0,0.0,0.0,0.0,0.0,0.0,0.971,0.9568,0.9645,0.9486,0.9449,0.9507,0.9561,0.9545,0.9539,0.9233,0.9217,0.0,0.0,0.0,0.0,0.0,0.0,1.255,0.0,0.0,0.0,0.0,0.0,0.0,0.0,0.0,0.0,0.0,0.0,0.0,0.0,1.314,1.3608,1.3274,1.3676,1.4158,1.3936,1.3992,1.421,1.4712,1.513,1.5675,1.6539,1.6976,1.7032,1.6446,1.6646,1.6859,1.6703,1.6769,1.6655,1.6171,1.521,1.4414,1.3888,1.4302,1.4448,1.4448,1.4374,1.4299,1.4299,1.4299,1.4278,1.4217,1.4068,1.3912,1.3763,1.3675,1.3485,1.3173,1.3119,1.3017,1.2874,1.2718,1.2644,1.2637,1.24,1.2203,1.2054,1.1898,1.1748,0.0,1.1619,1.1586,1.1531,1.1531,1.1531,1.166,1.2255,1.2604,1.2873,0.0,0.0,0.0,0.0,0.0,0.0,0.0,1.1064,1.1064,1.0859,1.0507,1.0234,1.0241,1.0039,0.9943,1.0069,0.0,0.0,0.0,0.0,0.0,0.0,0.0,0.0,0.9486,0.9416,0.9472,0.9673,0.9508,0.9505,0.9686,0.957,0.9526,0.9453,0.919,0.903,0.0,0.0,0.0,0.0,1.0857,1.1623,0.0,0.0,0.0,0.0,0.0,0.0,0.0,0.0,0.0,0.0,0.0,0.0,0.0,0.0,0.0,0.0,0.0,1.3592,1.3824,1.4013,1.4691,1.5163,1.4835,1.5875,0.0,1.6608,1.6786,1.6729,1.6029,1.6414,1.6637,1.6102,1.6536,1.6884,1.6514,1.5734,1.5028,1.4222,1.4621,1.4756,1.4585,1.4455,1.4299,1.4299,1.4292,1.4224,1.4082,1.3912,1.3763,1.3634,1.3607,1.3458,1.3159,1.3024,1.2874,1.2712,1.2562,1.2488,1.2481,1.2325,1.2182,0.0,1.1884,1.1742,1.1619,1.1619,1.1531,1.1389,1.1389,1.153,1.1804,1.3595,1.4403,1.4849,0.0,0.0,0.0,0.0,0.0,0.0,0.0,0.0,0.0,0.0,0.9953,0.9627,0.9471,0.9596,0.9667,0.0,0.0,0.0,0.0,0.0,0.0,0.0,0.0,0.0,0.9409,0.9221,0.9098,0.919,0.9342,0.9491,0.9615,0.9846,0.9981,0.9907,0.9687,0.9397,0.0,0.0,0.0,0.0,1.0343,1.0943,0.0,0.0,0.0,0.0,1.3047,1.2881,0.0,0.0,0.0,0.0,0.0,0.0,0.0,0.0,1.3278,1.3616,1.3756,0.0,1.4297,1.4375,1.4713,1.5151,0.0,1.5897,1.6362,1.6452,1.6353,1.6206,1.584,1.6495,1.6987,1.6369,1.708,1.7602,1.7415,1.6356,1.5282,1.4187,1.4336,1.4288,1.4041,1.4167,1.4299,1.4299,1.419,1.4109,1.4075,1.3824,1.3661,1.3634,1.3403,1.3193,1.301,1.2976,1.2827,1.2556,1.2406,1.2338,1.2332,1.206,1.1918,1.1877,1.1735,1.1647,1.1619,1.1619,1.1531,1.1389,1.1389,1.2219,1.3595,1.4014,1.5244,1.6806,0.0,0.0,0.0,0.0,0.0,0.0,0.0,0.0,0.0,0.0,0.0,0.9622,0.9243,0.9675,0.0,0.0,0.0,0.0,0.0,0.0,0.0,0.0,0.0,0.9453,0.9406,0.9159,0.9005,0.9023,0.9266,0.9535,0.9768,1.008,1.0223,1.0322,1.0021,0.9613,0.0,0.0,0.0,0.0,1.0058,0.0,0.0,0.0,0.0,0.0,1.3422,1.3293,0.0,1.4312,1.4495,1.42,0.0,0.0,0.0,0.0,1.3401,1.3743,1.3689,1.3942,1.4289,1.4768,1.4902,1.4961,1.5488,1.5758,1.5989,1.5951,1.5894,1.5898,1.5977,1.653,1.6978,1.6726,1.6802,1.6621,1.5951,1.5138,1.4446,1.4294,1.4066,1.4082,1.4055,1.4204,1.4272,1.4197,1.4122,1.398,1.3777,1.3614,1.3464,1.3329,1.3159,1.3037,1.2963,1.2888,1.2705,1.2406,1.2325,1.225,1.2176,1.1938,1.183,1.1823,1.1681,1.1579,1.1511,1.1511,1.1423,1.128,1.1212,1.2321,1.4147,1.4873,1.6479,1.8309,0.0,0.0,0.0,0.0,0.0,0.0,0.0,0.0,0.0,0.0,0.0,0.0,0.0,0.0,0.0,0.0,0.0,0.0,0.0,0.0,0.0,0.0,0.0,0.951,0.9368,0.9106,0.8951,0.8912,0.9253,0.9538,0.9823,1.0171,1.0367,1.0499,1.0149,0.9717,0.0,0.0,0.0,0.9799,1.0007,0.0,0.0,0.0,0.0,0.0,0.0,0.0,0.0,1.5284,1.4805,1.3528,1.4103,0.0,0.0,0.0,0.0,0.0,1.3605,1.3588,1.3972,1.508,1.4942,1.4706,1.5294,1.5642,1.57,1.541,1.541,1.5487,1.5761,1.6064,1.6326,1.6419,1.5937,1.5074,1.3922,1.3509,1.3576,1.4359,1.4128,1.3994,1.4211,1.4251,1.4211,1.4082,1.4007,1.3804,1.3424,1.3356,1.3207,1.2935,1.2901,1.2881,1.2861,1.2752,1.2562,1.2291,1.2244,1.2142,1.1993,1.1837,1.1748,1.1721,0.0,0.0,1.1355,1.1355,1.1267,1.1118,1.126,1.2496,1.4349,1.6185,1.7995,1.982,0.0,0.0,0.0,0.0,0.0,0.0,0.0,0.0,0.0,0.0,0.0,0.0,0.0,0.0,0.0,0.0,0.0,0.0,0.0,0.0,0.0,0.9482,0.9431,0.9316,0.9054,0.891,0.879,0.8676,0.9138,0.9407,0.9505,1.0045,1.0261,1.0177,0.971,0.9463,0.9354,0.0,0.0,0.9851,1.011,0.0,0.0,0.0,0.0,0.0,0.0,0.0,0.0,1.3593,1.369,1.36,1.3392,0.0,0.0,0.0,0.0,0.0,1.3811,1.3544,1.3502,1.4765,1.435,1.4052,1.5371,1.5488,1.5254,1.5235,1.4942,1.4426,1.3754,1.4018,1.4194,1.3673,1.4154,1.4669,1.4741,1.4503,1.4326,1.4295,1.4232,1.4143,1.3933,1.4027,1.4095,1.4075,1.3715,1.3471,1.3403,1.3166,1.2949,1.2773,1.28,1.2677,1.2553,1.2488,1.2454,1.2284,1.2026,1.1823,1.1681,1.1531,1.1389,1.1267,0.0,1.1219,1.1199,1.1199,1.1111,1.1111,1.2554,1.4281,1.6165,1.7982,1.9866,2.1542,0.0,0.0,0.0,0.0,0.0,0.0,0.0,0.0,0.0,0.0,0.0,0.0,0.0,0.0,0.0,0.0,0.0,0.0,0.0,0.0,0.96,0.9344,0.9386,0.9263,0.9015,0.9005,0.8948,0.88,0.9408,0.9633,0.9579,1.0014,1.0147,1.0107,0.9878,0.9737,0.9629,0.9784,0.9888,1.011,0.0,0.0,0.0,0.0,0.0,0.0,0.0,0.0,0.0,0.0,1.3691,1.3464,1.381,0.0,0.0,0.0,0.0,0.0,1.3661,1.3338,1.3202,1.375,1.3766,1.392,1.5191,1.5253,1.4987,1.4987,1.4925,1.4603,1.3902,1.4173,1.4164,1.3143,1.3519,1.3779,1.3538,1.342,1.3634,1.3909,1.3888,1.3946,1.3966,1.3953,1.3878,1.3722,1.3444,1.3173,1.2929,1.2876,1.2683,1.2372,1.2374,1.2414,1.2352,1.2254,1.2213,1.1925,1.1782,1.1592,1.1369,1.1301,1.1226,1.1303,0.0,1.2064,1.1043,1.1983,1.2292,1.2273,1.3062,1.5157,1.777,1.9475,2.0734,2.1496,0.0,0.0,0.0,0.0,0.0,0.0,0.0,0.0,0.0,0.0,0.0,0.0,0.0,0.0,0.0,0.0,0.0,0.0,0.0,0.0,0.9245,0.9228,0.9283,0.9239,0.9058,0.9125,0.9161,0.9128,0.9636,0.9862,0.9865,0.9953,1.0064,1.0107,1.0005,0.9916,0.9851,1.0007,1.0213,1.0419,0.0,0.0,0.0,0.0,0.0,0.0,0.0,0.0,0.0,0.0,0.0,0.0,0.0,0.0,0.0,1.38,1.3917,1.3811,1.3518,1.3305,1.3123,1.3074,1.3082,1.3421,1.4417,1.4353,1.4151,1.4159,1.4252,1.4141,1.3466,1.3558,1.351,1.3116,1.3126,1.2874,1.2345,1.2561,1.3085,1.3614,1.3648,1.3715,1.3946,1.3797,1.3593,1.3363,1.3139,1.3027,1.2522,1.2457,1.2271,1.2113,1.2108,1.2163,1.2121,1.1889,1.1705,1.1565,1.1531,1.1369,1.1111,1.1111,1.109,1.1193,1.2942,1.2871,1.156,1.3278,1.398,1.397,1.4362,1.6172,1.8768,2.0462,2.0843,2.0589,0.0,0.0,0.0,0.0,0.0,0.0,0.0,0.0,0.0,0.0,0.0,0.0,0.0,0.0,0.0,0.0,0.0,0.0,0.0,0.0,0.9242,0.8703,0.8917,0.9085,0.9205,0.9176,0.9266,0.9485,0.974,1.0014,1.0262,0.9953,0.9918,1.0107,0.9775,0.9747,0.9991,1.0213,1.0419,1.0675,1.0828,0.0,0.0,0.0,0.0,0.0,0.0,0.0,0.0,0.0,0.0,0.0,0.0,0.0,1.3878,1.4052,1.4185,1.4166,1.3612,1.3551,1.3637,1.3584,1.2564,1.1728,1.2419,1.2312,1.214,1.238,1.2259,1.1848,1.0806,1.0158,1.0515,1.2532,1.2429,1.2223,1.2501,1.2913,1.3471,1.3961,1.3709,1.3641,1.3661,1.3397,1.3214,1.3193,1.2958,1.2852,1.2824,1.24,1.2102,1.2107,1.2386,1.2226,1.1643,1.1047,1.1107,1.155,1.126,1.0973,1.0962,1.0962,1.0887,1.0884,1.2576,1.3227,1.321,1.5033,1.5674,1.5913,1.7474,1.8244,1.8768,2.0462,2.0068,1.8896,0.0,0.0,0.0,0.0,0.0,0.0,0.0,0.0,0.0,0.0,0.0,0.0,0.0,0.0,0.0,0.0,0.0,0.0,0.0,0.9035,0.8818,0.863,0.8755,0.8908,0.9066,0.9262,0.9543,0.9894,1.0063,1.026,1.0478,0.9834,0.9789,1.0208,0.9692,0.9732,1.0213,1.0368,1.0522,1.0726,1.1116,1.118,0.0,0.0,0.0,0.0,0.0,0.0,0.0,0.0,1.3471,1.3394,1.347,1.3578,1.3773,1.4017,1.3886,1.3606,1.3297,1.2832,1.2305,1.1564,1.1097,1.1246,1.2869,1.2496,1.1984,1.2446,1.2709,1.269,1.2156,1.1823,1.1728,1.2224,1.251,1.2748,1.3078,1.322,1.3507,1.3888,1.3528,1.3214,1.305,1.2935,1.2718,1.2793,1.2602,1.2359,1.2416,1.2058,1.1684,1.1482,1.1337,1.1372,1.1316,1.0934,1.0867,1.0974,1.0968,1.0948,1.0806,1.1858,1.2344,1.2413,1.5265,1.5913,1.5005,1.6818,1.7474,1.7602,1.8244,1.7859,1.6947,1.7602,1.7474,1.6947,0.0,0.0,0.0,0.0,0.0,0.0,0.0,0.0,0.0,0.0,0.0,0.0,0.0,0.0,0.0,0.0,0.0,0.0,0.8954,0.8652,0.852,0.8546,0.8608,0.8786,0.9066,0.931,0.9643,1.0114,1.022,1.0364,1.0555,0.9834,0.9829,1.0363,0.9803,0.9896,1.0525,1.0569,1.0777,1.0964,1.1297,1.1372,0.0,0.0,0.0,0.0,0.0,0.0,0.0,0.0,1.3491,1.3347,1.3604,1.353,1.3497,1.3809,1.3643,1.3289,1.2937,1.2467,1.1814,1.0829,1.0447,1.079,1.2559,1.2257,1.1678,1.2153,1.2543,1.2566,1.2264,1.2025,1.1976,1.2425,1.264,1.2923,1.3061,1.3171,1.3226,1.3443,1.3228,1.2889,1.2521,1.2286,1.223,1.2244,1.2136,1.1949,1.1994,1.1545,1.1234,1.0953,1.0631,1.0658,1.1045,1.0761,1.0753,1.0656,1.1848,1.1776,1.0713,1.2433,1.3232,1.3362,1.6327,1.7268,1.6808,1.7307,1.7539,1.7618,1.7697,1.656,1.5135,1.5654,1.5524,1.5135,0.0,0.0,0.0,0.0,0.0,0.0,0.0,0.0,0.0,0.0,0.0,0.0,0.0,0.0,0.0,0.0,0.0,0.0,0.824,0.8392,0.8461,0.8381,0.8448,0.8734,0.9163,0.9227,0.9512,1.0114,1.022,1.0428,1.0604,1.0059,1.0055,1.0541,1.0013,1.0189,1.0909,1.0924,1.1116,1.1484,1.1291,1.1592,1.1999,0.0,0.0,0.0,0.0,0.0,0.0,0.0,1.3392,1.3213,1.3772,1.3586,1.3152,1.3401,1.3482,1.3339,1.27,1.2482,1.2372,1.1942,1.0854,1.0092,1.1109,1.1026,1.0888,1.1278,1.1187,1.0774,1.0172,0.9982,1.0504,1.278,1.2753,1.2491,1.2481,1.2786,1.2828,1.2515,1.2838,1.2691,1.1918,1.1764,1.1616,1.1626,1.1619,1.153,1.153,1.0967,1.0664,1.0664,1.0511,1.0453,1.0649,1.0756,1.0804,1.0804,1.3925,1.3707,1.0545,1.2331,1.3165,1.3165,1.4944,1.6721,1.8337,1.6316,1.5513,1.5727,1.5822,1.4874,1.3447,1.5265,1.4744,1.3578,0.0,0.0,0.0,0.0,0.0,0.0,0.0,0.0,0.0,0.0,0.0,0.0,0.0,0.0,0.0,0.0,0.0,0.0,0.8002,0.8051,0.8179,0.8461,0.8385,0.8572,0.9018,0.9163,0.9388,0.9823,1.0023,1.0019,0.9821,0.9596,0.9743,1.0094,0.9863,1.0104,1.0613,1.0912,1.1217,1.1519,1.184,1.184,1.1704,0.0,0.0,0.0,0.0,0.0,0.0,0.0,0.0,0.0,1.3144,1.31,1.3075,1.2771,1.2273,1.1813,1.1482,1.0575,0.9826,0.9913,0.9836,0.9994,1.059,1.0599,1.0925,1.1968,1.1752,1.1304,1.0623,1.0877,1.134,1.2186,1.208,1.2058,1.2463,1.2292,1.1775,1.1269,1.151,1.164,1.1299,1.1302,1.1341,1.1161,1.1063,1.0921,1.0644,1.0504,1.0344,1.0344,1.2458,1.2615,1.0482,1.4721,1.6841,1.6798,1.3225,1.1972,1.2867,1.4289,1.4944,1.4935,1.5418,1.5899,1.6327,1.5691,1.4808,1.3735,1.3798,1.2689,1.1298,1.1803,1.1675,1.1298,0.0,0.0,0.0,0.0,0.0,0.0,0.0,0.0,0.0,0.0,0.9328,0.9047,0.0,0.0,0.0,0.0,0.0,0.0,0.0,0.7919,0.8076,0.8493,0.8334,0.8454,0.9018,0.9097,0.9193,0.9368,0.9649,0.9741,0.957,0.9435,0.9618,1.005,0.994,1.0187,1.0661,1.1082,1.1418,1.1719,1.2048,1.2062,1.1931,0.0,0.0,0.0,0.0,0.0,0.0,0.0,0.0,0.0,1.3194,1.2851,1.2537,1.2289,1.1547,1.0781,1.0692,0.9744,0.8837,0.9283,0.9493,0.98,1.0529,1.0942,1.1447,1.2269,1.2319,1.2022,1.1119,1.115,1.1453,1.1552,1.1571,1.1572,1.1983,1.1825,1.1338,1.0836,1.0831,1.0988,1.0935,1.0987,1.0886,1.0766,1.0731,1.0471,1.028,1.0243,1.0276,1.0149,1.1996,1.2682,1.2209,1.574,1.6907,1.5576,1.2977,1.2406,1.3744,1.421,1.4442,1.4567,1.5152,1.4671,1.3295,1.4079,1.335,1.1807,1.1878,1.1285,1.0304,1.0365,1.0351,1.0317,0.0,0.0,1.1346,1.1195,0.0,0.0,0.0,0.0,0.0,0.0,0.9208,0.8846,0.0,0.0,0.0,0.0,0.0,0.0,0.0,0.0,0.8076,0.8601,0.8357,0.8427,0.8971,0.8984,0.8929,0.8805,0.9144,0.9459,0.9593,0.9493,0.9716,1.0236,1.0105,1.0368,1.0867,1.1268,1.1616,1.1895,1.2007,1.2244,1.2483,1.1914,0.0,0.0,0.0,0.0,0.0,0.0,0.0,0.0,1.3571,1.2764,1.176,1.1961,1.1118,1.0177,1.0263,0.9627,0.9131,0.9559,0.957,0.9662,1.0936,1.1644,1.218,1.2172,1.2811,1.2926,1.1653,1.1344,1.1152,1.1145,1.128,1.1321,1.1324,1.1413,1.1301,1.0731,1.0705,1.0646,1.0644,1.0631,1.0652,1.0493,1.046,1.0392,1.0136,1.0243,1.0236,1.0109,1.01,1.1602,1.4479,1.482,1.3433,1.017,1.2875,1.3908,1.3432,1.2847,1.2471,1.2445,1.4242,1.3005,0.9943,1.1837,1.1643,1.0046,1.0188,1.0263,1.0317,1.0052,0.9909,0.9838,0.0,0.0,1.1082,1.085,0.0,0.0,0.0,0.0,0.0,0.0,0.0,0.0,0.0,0.0,0.0,0.0,0.0,0.0,0.0,0.0,0.7903,0.8663,0.8863,0.8906,0.8671,0.8898,0.8884,0.8671,0.8916,0.9053,0.8991,0.9284,0.9549,0.9766,1.0119,1.0359,1.0549,1.0954,1.1352,1.1827,1.208,1.2433,1.2793,1.2683,1.2252,0.0,0.0,0.0,0.0,0.0,0.0,0.0,1.3125,1.2518,1.1908,1.1444,1.0755,0.9982,0.9475,0.9055,0.8782,0.901,0.9779,1.0616,1.1094,1.1481,1.1887,1.2535,1.2281,1.2114,1.2529,1.1665,1.0987,1.1013,1.1192,1.1199,1.1027,1.1234,1.1173,1.0717,1.0745,1.0618,1.0602,1.0588,1.0514,1.0337,1.0215,1.0127,0.9975,0.9985,0.9917,0.9917,1.1096,1.1431,1.0934,1.5817,1.6657,1.3202,1.1346,1.1075,1.2221,1.2414,1.1728,1.0307,1.0815,1.0536,0.9666,1.0207,1.0271,0.9903,0.993,0.9908,0.9645,0.6976,0.6121,0.6042,0.0,0.0,0.0,0.0,0.0,0.0,0.0,0.0,0.0,0.0,0.0,0.0,0.0,0.8373,0.0,0.0,0.7836,0.7836,0.7614,0.7631,0.7886,0.8381,0.8834,0.8936,0.868,0.8829,0.8724,0.8423,0.8423,0.8593,0.9015,0.9368,0.9562,0.9732,1.0213,1.046,1.0582,1.0933,1.132,1.1762,1.2115,1.2365,1.2503,1.2803,1.255,1.1976,1.1408,0.0,0.0,0.0,0.0,0.0,0.0,0.0,1.1972,1.1503,1.0635,0.9668,0.9134,0.8801,0.8792,0.9231,1.0107,1.088,1.1029,1.1172,1.1488,1.1892,1.1784,1.1678,1.2117,1.1567,1.1056,1.1063,1.1002,1.0948,1.0812,1.0826,1.0731,1.0591,1.0464,1.048,1.0399,1.0392,1.0297,1.008,0.9985,0.9876,0.9734,0.9652,0.9612,0.9612,1.0428,1.0575,0.9809,1.4422,1.5077,1.1864,1.0026,0.9722,1.0655,1.0994,1.0583,0.9618,0.9761,0.9741,0.9618,0.9774,0.9842,0.9605,0.8122,0.8464,0.9638,0.7891,0.522,0.2549,0.0,0.0,0.0,0.0,0.0,0.0,0.0,0.0,0.0,0.0,0.0,0.0,0.0,0.8291,0.8059,0.0,0.0,0.0,0.7603,0.7711,0.7825,0.7923,0.8401,0.8616,0.8468,0.8524,0.8421,0.8071,0.7822,0.8164,0.8971,0.9217,0.9467,0.9747,1.0213,1.0493,1.0664,1.1024,1.1315,1.1582,1.2142,1.2188,1.206,1.2572,1.251,1.2082,1.1574,1.203,1.3098,1.4429,0.0,0.0,0.0,0.0,1.2054,1.1765,1.08,0.9688,0.9339,0.9152,0.9163,0.9571,1.0236,1.0744,1.0846,1.0982,1.1077,1.105,1.1228,1.1399,1.1372,1.1131,1.1042,1.1149,1.0905,1.0683,1.0683,1.0555,1.0453,1.0323,1.0351,1.0256,1.0209,1.0202,1.0073,0.9768,0.9747,0.9625,0.9354,0.934,0.934,0.934,0.934,0.953,0.9788,1.1854,1.1697,0.9236,0.9037,0.9003,0.9354,0.9476,0.9551,0.9578,0.9754,0.9747,0.9625,0.9795,0.9747,0.9496,0.6771,0.6726,0.8127,0.8087,0.4731,-0.0127,0.0,0.0,0.0,0.0,0.0,0.0,0.0,0.0,0.0,0.0,0.9105,0.8822,0.8455,0.8373,0.825,0.7975,0.7858,0.7881,0.8022,0.0,0.0,0.7185,0.744,0.758,0.758,0.7569,0.7618,0.7676,0.7483,0.7622,0.8164,0.8189,0.8626,0.9472,0.9769,1.0105,1.0447,1.0786,1.1079,1.1323,1.1873,1.2101,1.2017,1.221,1.2152,1.1837,1.1235,1.0882,1.1166,1.435,1.4202,0.0,0.0,0.0,1.24,1.1852,1.142,1.112,1.1195,1.1069,1.0604,0.9695,1.0086,1.069,1.0575,1.108,1.129,1.074,1.0658,1.0941,1.1495,1.1178,1.0711,1.0713,1.0671,1.0658,1.0658,1.0527,1.031,1.0176,1.029,1.0175,0.991,0.9883,0.9761,0.9462,0.9442,0.9367,0.9191,0.9184,0.9184,0.9184,0.9184,0.9321,0.9464,0.9539,0.9286,0.8604,0.8696,0.8933,0.9211,0.9232,0.9306,0.9429,0.972,0.9647,0.9533,0.9707,0.9787,0.9808,0.9303,0.599,0.1263,0.1265,0.0765,-0.0903,0.0,0.0,0.0,0.0,0.0,0.0,0.0,0.0,0.0,0.0,0.0,0.8822,0.848,0.8414,0.8265,0.79,0.7671,0.7538,0.7379,0.7205,0.7039,0.7019,0.7224,0.7346,0.7346,0.7547,0.7452,0.7102,0.6963,0.6907,0.6982,0.7081,0.7898,0.9302,0.9424,0.9813,1.0467,1.0285,1.052,1.1016,1.1404,1.159,1.1694,1.2111,1.1882,1.1247,1.0508,1.0273,1.0585,1.2548,1.3259,1.3276,1.3165,0.0,0.0,0.0,1.1835,1.1478,1.1462,1.0728,0.9968,1.0425,1.0186,1.0019,1.0335,1.0628,1.0725,1.0256,1.0344,1.0555,1.089,1.0473,1.0317,1.0385,1.0507,1.0507,1.0243,1.0243,1.012,0.9908,0.9958,0.9943,0.9717,0.9571,0.9332,0.9157,0.913,0.9028,0.8791,0.8777,0.8777,0.8777,0.8777,0.8953,0.9076,0.873,0.8548,0.8438,0.8528,0.8696,0.883,0.7274,0.7715,0.9666,0.9744,0.857,0.6897,0.8945,0.9808,0.9439,0.5686,0.2493,0.0,0.0,0.0,-0.1021,0.0,0.0,0.0,0.0,0.0,0.0,0.0,0.0,0.0,0.0,0.0,0.8741,0.848,0.0,0.0,0.0,0.7572,0.7241,0.6793,0.6611,0.6594,0.6684,0.6829,0.6963,0.7052,0.7269,0.7132,0.6651,0.6383,0.6268,0.6277,0.6288,0.7236,0.883,0.8959,0.9505,1.0231,0.9826,1.0052,1.0711,1.0913,1.1101,1.1348,1.2278,1.1902,1.0813,1.0084,0.9984,1.0214,1.0852,1.2085,1.3256,1.2917,1.3109,0.0,0.0,0.0,1.1831,1.1286,1.0638,1.0074,1.0302,0.98,0.9353,0.9961,1.0067,1.0066,0.9843,0.9948,1.0053,1.0177,0.9916,0.9875,1.0102,1.0188,1.0035,0.9777,1.0239,1.0322,0.972,0.9933,1.0011,0.9401,0.9453,0.9321,0.8838,0.9145,0.9026,0.8445,0.8431,0.8431,0.8431,0.8431,0.8536,0.8751,0.8391,0.828,0.8327,0.8495,0.8602,0.8662,0.6527,0.6621,0.8495,0.9379,0.8349,0.589,0.6928,0.725,0.6855,0.1969,0.0,0.0,0.0,0.0,-0.0879,0.0,0.0,0.0,0.0,0.0,0.0,0.0,0.0,0.0,0.0,0.0,0.8643,0.8414,0.8193,0.794,0.7797,0.7633,0.7231,0.6657,0.66,0.6392,0.5901,0.5847,0.0,0.6428,0.6226,0.6226,0.6502,0.5728,0.5741,0.6471,0.6228,0.6722,0.7771,0.8317,0.894,0.9569,0.9514,0.9813,1.0351,1.0568,1.0733,1.1124,1.2864,1.2442,1.0823,1.0443,1.0022,0.9751,0.9978,1.0853,1.1934,1.2605,1.3248,1.3668,0.0,0.0,0.0,1.1267,1.1998,1.2231,0.8329,0.8146,0.8955,0.9188,0.932,0.9469,0.9737,0.9648,0.9429,0.9545,0.9645,0.9843,0.983,0.9562,0.947,0.947,1.0886,1.1372,0.9634,1.0509,1.0667,0.9085,0.9907,1.0052,0.8625,0.9646,0.9776,0.8392,0.8282,0.8282,0.8282,0.8282,0.8385,0.8494,0.814,0.814,0.8303,0.8347,0.8515,0.8927,0.8739,0.7214,0.4964,0.8305,0.9731,0.9013,0.2998,0.0479,0.0474,0.0122,0.0,0.0,0.0,0.0,-0.0495,0.0,0.0,0.0,0.0,0.0,0.0,0.0,0.0,0.0,0.0,0.0,0.0,0.0,0.7684,0.7389,0.7352,0.7109,0.6675,0.6068,0.6024,0.5935,0.5761,0.5717,0.5847,0.6147,0.6147,0.6147,0.619,0.5793,0.5836,0.6241,0.6065,0.6475,0.7348,0.7672,0.8469,0.9479,0.8617,0.8542,0.9122,0.973,1.052,1.1344,1.1445,1.1785,1.2102,1.1626,1.1385,1.1217,1.0926,1.0732,1.0889,1.2443,1.3392,1.3826,1.3025,1.2857,1.2713,1.1647,1.2396,1.3155,1.1883,1.094,1.0445,1.069,1.0119,0.9465,0.9743,0.9462,0.8997,0.8882,0.9248,0.956,0.9506,1.0391,1.1051,1.0801,1.1257,1.1845,1.2108,1.0748,0.9348,0.8381,0.8737,0.8765,0.8357,0.8756,0.8787,0.8126,0.8126,0.8126,0.8126,0.8126,0.8133,0.8147,0.8099,0.7999,0.8066,0.8123,0.8177,0.834,0.8729,0.6246,0.1683,0.2954,0.3561,0.3371,0.0954,0.0,0.0,0.0,0.0,-0.0483,-0.479,-0.6311,-0.6434,0.0,0.0,0.0,0.0,0.0,0.0,0.0,0.0,0.0,0.0,0.0,0.0,0.0,0.0,0.6976,0.6868,0.657,0.6234,0.5901,0.5804,0.5717,0.5717,0.5761,0.5847,0.5976,0.6136,0.6179,0.619,0.5922,0.5969,0.6213,0.5881,0.6054,0.6713,0.6848,0.7696,0.8897,0.7947,0.7908,0.8455,0.8978,1.0328,1.1965,1.1407,1.1797,1.257,1.223,1.1375,1.0342,0.9983,0.9788,0.9883,1.1503,1.2898,1.3826,1.3238,1.3047,1.2889,1.2466,1.3003,1.3819,1.4151,1.3231,1.2143,1.1388,1.0499,0.9838,0.9515,0.9083,0.8756,0.8575,0.9224,0.9778,0.9887,1.0876,1.1724,1.1827,1.2265,1.2617,1.2772,1.144,0.9872,0.8143,0.7975,0.8024,0.8194,0.87,0.8751,0.8045,0.8038,0.8038,0.8038,0.8045,0.7959,0.7972,0.6242,0.6247,0.8006,0.7962,0.7027,0.5299,0.5728,0.3731,0.0,0.0,0.0,0.0,0.0,0.0,0.0,0.0,0.0,-0.0839,-0.7332,-0.9774,-0.9808,0.0,0.0,0.0,0.0,0.0,0.0,0.0,0.0,0.0,0.8171,0.0,0.0,0.0,0.0,0.0,0.6416,0.6147,0.6062,0.6179,0.5964,0.5793,0.5793,0.5933,0.6019,0.6019,0.6147,0.6307,0.6477,0.6093,0.61,0.6475,0.5702,0.5536,0.5925,0.597,0.6588,0.7625,0.7647,0.7932,0.8364,0.8372,1.0137,1.2781,1.2847,1.2505,1.2004,1.2002,0.9878,0.7111,0.7078,0.7879,0.8999,0.9897,1.1748,1.3579,1.3587,1.36,1.3626,0.0,0.0,0.0,1.4405,1.4461,1.3787,1.1051,1.0619,1.0457,0.9115,0.8707,0.8603,0.8543,0.96,1.0531,1.0891,1.0923,1.1248,1.2509,1.3773,1.362,1.1277,1.2669,1.2234,0.8357,0.7972,0.7977,0.8031,0.9525,0.9821,0.8137,0.8038,0.8038,0.8038,0.7959,0.7972,0.7766,0.2604,0.2611,0.7717,0.775,0.499,0.0,0.0,0.0,0.0,0.0,0.0,0.0,0.0,0.0,0.0,0.0,0.0,-0.0826,-0.722,-0.9687,-0.9808,0.0,0.0,0.0,0.0,0.0,0.0,0.8287,0.7974,0.7764,0.0,0.0,0.0,0.6959,0.6702,0.6416,0.6147,0.6147,0.6062,0.5847,0.589,0.5933,0.5933,0.5976,0.6062,0.6147,0.6105,0.619,0.6404,0.6105,0.6182,0.6557,0.6186,0.6191,0.6441,0.6002,0.5759,0.5818,0.6649,0.7158,0.7419,0.7797,0.8508,0.9543,1.1575,1.1257,0.9708,0.9329,0.8293,0.7119,0.7133,0.838,1.0188,1.1169,1.219,1.3102,1.3519,1.3608,1.3545,1.3223,0.0,0.0,0.0,0.0,0.0,1.2841,1.2668,1.1742,0.8344,0.771,0.8393,1.0032,1.0181,1.0574,1.2433,1.3121,1.3626,1.3934,1.4228,1.4056,1.3147,1.2667,1.1246,0.8237,0.7991,0.7977,0.0,0.8435,0.8535,0.8038,0.8038,0.8038,0.8038,0.7972,0.6142,0.2204,0.0704,0.0706,0.2221,0.2232,0.1434,0.0,0.0,0.0,0.0,0.0,0.0,0.0,0.0,0.0,0.0,0.0,0.0,-0.0472,-0.4667,-0.7801,-0.9787,0.0,0.0,0.9983,0.9152,0.0,0.8893,0.8291,0.7811,0.7544,0.0,0.0,0.0,0.6677,0.6502,0.6331,0.6105,0.6105,0.6062,0.5976,0.6062,0.6105,0.6179,0.6221,0.6264,0.6264,0.6319,0.6404,0.6532,0.6447,0.6575,0.6885,0.6872,0.689,0.6824,0.6355,0.5869,0.5449,0.5944,0.6281,0.6612,0.8255,0.9108,0.9427,1.0134,0.9469,0.8174,0.806,0.7803,0.7507,0.7514,0.8187,0.9394,1.1068,1.2144,1.2874,1.3066,1.337,1.3531,1.3105,1.2985,1.3246,1.4562,0.0,0.0,1.3737,1.2735,1.1527,0.9843,0.9505,0.9976,1.1497,1.1569,1.1668,1.2677,1.3532,1.4148,1.4283,1.3698,1.2975,1.2175,1.1668,1.0449,0.8195,0.7957,0.8004,0.8038,0.7878,0.7916,0.7862,0.7862,0.7896,0.7858,0.7892,0.6515,0.3416,0.1109,0.0,0.0,0.0,0.0,0.0,0.0,0.0,0.0,0.0,0.0,0.0,0.0,0.0,0.0,0.0,0.0,-0.0236,-0.2135,-0.5802,-0.9794,0.0,0.0,0.977,0.9002,0.9044,0.8996,0.8617,0.7882,0.7371,0.0,0.6814,0.6422,0.6477,0.6441,0.6355,0.6233,0.6128,0.6139,0.6373,0.6319,0.6307,0.6465,0.6647,0.6634,0.638,0.6732,0.6872,0.6774,0.6985,0.7154,0.7349,0.763,0.7504,0.7054,0.6956,0.6605,0.6039,0.5696,0.5643,0.6044,0.8933,1.0449,1.0678,0.8767,0.7745,0.7247,0.7792,0.8024,0.7984,0.8168,0.7846,0.776,1.0047,1.1719,1.2738,1.2516,1.2985,1.3535,1.3214,1.23,1.2235,1.586,1.6403,0.0,1.4042,1.191,1.075,1.2531,1.2456,1.2206,1.2635,1.3112,1.3193,1.2337,1.2841,1.3407,1.3543,1.2427,1.1125,0.9888,1.0043,0.96,0.8097,0.7916,0.7991,0.7991,0.7764,0.7637,0.7611,0.7712,0.7583,0.7221,0.7674,0.7963,0.7999,0.2723,0.0,0.0,0.0,0.0,0.0,0.0,0.0,0.0,0.0,0.0,0.0,0.0,0.0,0.0,0.0,0.0,0.0,0.0,-0.372,-0.8805,0.9925,0.9964,0.9829,0.8964,0.8758,0.8507,0.7827,0.7493,0.7252,0.7113,0.6723,0.6554,0.6787,0.673,0.6546,0.6386,0.639,0.6413,0.6386,0.652,0.6689,0.6888,0.7041,0.7041,0.6846,0.6943,0.707,0.7238,0.7363,0.753,0.7795,0.7878,0.7739,0.7405,0.7377,0.707,0.6544,0.6476,0.6401,0.6331,0.7279,0.7938,0.8434,0.8576,0.8328,0.7868,0.8,0.8034,0.8188,0.9119,0.9195,0.8913,0.9151,1.0587,1.2181,1.2184,1.2837,1.3465,1.2807,1.2262,1.2148,1.3148,1.3768,0.0,1.4617,1.3695,1.2739,1.2641,1.2182,1.1952,1.2387,1.257,1.2792,1.328,1.2346,1.1582,1.1801,1.074,0.9894,0.9579,0.869,0.7956,0.7739,0.7672,0.7685,0.7685,0.7665,0.7455,0.7253,0.7449,0.6685,0.4776,0.6834,0.8014,0.8041,0.2707,0.0,0.0,0.0,0.0,0.0,0.0,0.0,0.0,0.0,0.0,0.0,0.0,0.0,0.0,0.0,0.0,0.0,0.0,-0.0839,-0.2339,0.956,0.9696,0.9653,0.8851,0.8673,0.8481,0.7919,0.7584,0.7344,0.7224,0.6901,0.6761,0.6904,0.6684,0.6522,0.639,0.6301,0.6244,0.6288,0.6477,0.6689,0.6943,0.7167,0.728,0.7224,0.7391,0.7558,0.7697,0.7863,0.8028,0.8193,0.8234,0.8146,0.7959,0.777,0.7461,0.7019,0.6804,0.6699,0.6828,0.7512,0.795,0.8293,0.8552,0.8658,0.8457,0.8132,0.7977,0.8105,0.8888,0.9756,1.0243,0.9302,0.9753,1.0766,1.1211,1.2053,1.2752,1.2374,1.1968,1.1835,1.2517,1.2624,0.0,0.0,1.4172,1.3526,1.3155,1.2829,1.2687,1.2968,1.2912,1.2797,1.2289,1.1676,1.0996,1.03,0.906,0.8228,0.8228,0.761,0.7175,0.7265,0.7333,0.7373,0.7387,0.6368,0.5629,0.5354,0.6587,0.6808,0.5546,0.4557,0.4025,0.3967,0.138,0.0,0.0,0.0,0.0,0.0,0.0,0.0,0.0,0.0,0.0,0.0,0.0,0.0,0.0,0.0,0.0,0.0,0.0,0.0,-0.0246,0.9249,0.9469,0.9494,0.89,0.8723,0.8602,0.825,0.7821,0.7489,0.7377,0.7137,0.6988,0.7008,0.6765,0.66,0.6619,0.6396,0.632,0.6391,0.6557,0.6745,0.6999,0.7335,0.753,0.7572,0.7904,0.8111,0.8136,0.8294,0.8472,0.8602,0.8537,0.8478,0.8425,0.81,0.7757,0.7418,0.6976,0.6913,0.718,0.7991,0.845,0.8646,0.8529,0.873,0.8941,0.8215,0.8038,0.8048,0.845,0.9651,1.0696,0.9723,0.9497,0.9729,1.0349,1.138,1.2298,1.2004,1.1643,1.1473,1.2049,1.1852,1.1947,0.0,0.0,0.0,1.3701,1.3553,1.3353,1.3219,1.3279,1.2803,1.1184,1.116,1.0891,0.9515,0.8026,0.7191,0.7522,0.7399,0.7253,0.7176,0.7059,0.7068,0.7095,0.5577,0.407,0.2931,0.4732,0.57,0.5726,0.2032,0.0,0.0,0.0,0.0,0.0,0.0,0.0,0.0,0.0,0.0,0.0,0.0,0.0,0.0,0.0,0.0,0.0,0.0,0.0,0.0,0.0,0.0,0.0,1.0233,0.9923,0.9625,0.9433,0.9013,0.8602,0.825,0.7821,0.7447,0.7251,0.7224,0.7323,0.7411,0.7402,0.739,0.7469,0.7269,0.7152,0.7173,0.7145,0.7167,0.7335,0.767,0.7836,0.7878,0.8167,0.8439,0.8643,0.8487,0.8582,0.8926,0.8565,0.8459,0.8551,0.822,0.7894,0.7544,0.7328,0.7229,0.7237,0.7589,0.7931,0.8227,0.7959,0.8311,0.8844,0.8258,0.8038,0.816,0.8882,0.8721,0.8404,0.9846,1.0409,1.0562,1.0338,1.1741,1.3037,1.1766,1.1428,1.1201,0.9918,1.0547,1.1598,1.1998,0.0,1.2957,1.3622,0.0,1.2819,1.1955,0.0,0.0,1.1432,1.1036,1.0708,1.0147,0.8726,0.8308,0.9723,0.9311,0.8745,0.8188,0.7319,0.6867,0.7077,0.6908,0.4884,0.061,0.0699,0.0794,0.0811,0.0275,0.0,0.0,0.0,0.0,0.0,0.0,0.0,0.0,0.0,0.0,0.0,0.0,0.0,0.0,0.0,0.0,0.0,0.0,0.0,0.0,0.0,0.0,0.0,1.037,1.0,0.9625,0.9248,0.8765,0.8291,0.7961,0.7773,0.7612,0.7386,0.7472,0.7605,0.7901,0.7566,0.7411,0.7608,0.726,0.7015,0.7091,0.7041,0.716,0.7364,0.7637,0.7872,0.8009,0.8253,0.8578,0.8886,0.8774,0.8949,0.9288,0.9011,0.8812,0.8701,0.8395,0.805,0.7621,0.7445,0.7582,0.7957,0.7748,0.8081,0.8709,0.8095,0.8,0.8197,0.7938,0.7938,0.8063,0.8247,0.8451,0.8582,0.8611,0.9429,1.029,0.9799,1.1076,1.2299,1.0755,0.9947,0.9586,0.9964,1.0292,1.0604,1.106,1.1185,1.1447,1.2263,0.0,0.0,0.0,0.0,0.0,0.0,1.1081,1.1099,1.0945,1.0537,0.9995,0.9366,0.8624,0.7924,0.7475,0.6596,0.5657,0.4668,0.4688,0.3363,0.0167,0.0,0.0,0.0,0.2667,0.4137,0.4097,0.2928,0.231,0.231,0.0695,0.0,0.0,0.0,0.0,0.0,0.0,0.0,0.0,0.0,0.0,0.0,0.0,0.0,0.0,0.0,0.0,0.0,1.0389,1.0079,0.9664,0.907,0.8602,0.8116,0.7702,0.7685,0.7666,0.7456,0.7653,0.7917,0.8203,0.7934,0.7828,0.8086,0.7689,0.735,0.7266,0.724,0.724,0.7302,0.7652,0.7905,0.8117,0.8352,0.8704,0.9065,0.9024,0.92,0.9487,0.9222,0.9133,0.9125,0.8871,0.8523,0.8143,0.791,0.7992,0.8259,0.7848,0.8205,0.8747,0.8322,0.7931,0.7637,0.7638,0.7787,0.7897,0.7692,0.8175,0.0,0.7757,0.8353,0.9322,0.9104,1.035,1.1601,1.0143,0.8909,0.8299,0.9664,0.9856,0.9788,1.0009,1.0132,1.0287,1.0697,1.1358,0.0,0.0,0.0,1.1019,1.0404,0.0,1.1087,1.1162,1.1471,1.1261,0.9875,0.8965,0.843,0.8423,0.7061,0.5967,0.5371,0.5067,0.3957,0.1838,0.1222,0.1255,0.1912,0.4642,0.6474,0.7128,0.5701,0.5038,0.5043,0.3161,0.1408,0.0,0.0,0.0,0.0,0.0,0.0,0.0,0.0,0.0,0.0,0.0,0.0,0.0,0.0,0.0,0.0,1.0619,1.0235,0.9704,0.9116,0.8667,0.8192,0.749,0.7513,0.7543,0.7325,0.777,0.8143,0.8374,0.8685,0.8978,0.926,0.8984,0.862,0.8016,0.8009,0.7767,0.712,0.7786,0.8164,0.8119,0.8546,0.8905,0.9185,0.9147,0.9241,0.9506,0.9109,0.9286,0.9931,0.9753,0.9508,0.9216,0.8991,0.8472,0.7835,0.7767,0.7863,0.7882,0.8392,0.8116,0.7416,0.7409,0.0,0.0,0.7807,0.7902,0.0,0.0,0.0,0.0,0.807,0.9862,1.1382,0.0,0.0,0.0,0.8058,0.0,0.0,0.0,0.0,1.0037,0.941,1.0278,1.0856,0.9901,0.9918,0.9893,0.9312,0.9769,0.0,0.0,1.1026,1.1584,1.2359,1.1568,1.1391,1.2414,0.9668,0.8924,1.1535,1.0337,0.8513,0.6186,0.4457,0.4551,0.6807,0.478,0.4825,0.7101,0.7403,0.7651,0.7855,0.7753,0.5035,0.0,0.0,0.0,0.0,0.0,0.0,0.0,0.0,0.0,0.0,0.0,0.0,0.0,0.0,0.0,0.0,1.0482,1.0254,0.9939,0.9248,0.8724,0.815,0.7517,0.7709,0.7997,0.8148,0.8441,0.8812,0.9429,0.9342,0.9349,0.961,0.9297,0.8894,0.8598,0.8328,0.809,0.7878,0.7992,0.8215,0.8602,0.8646,0.8945,0.9527,0.9328,0.94,0.9704,0.9635,0.9858,1.0349,1.0542,1.0051,0.9182,0.891,0.8675,0.8352,0.8384,0.8479,0.8394,0.7937,0.7674,0.7356,0.7356,0.7543,0.0,0.778,0.7916,0.7977,0.7806,0.775,0.7786,0.833,0.8645,0.0,0.0,0.0,0.8162,0.8913,0.0,0.0,0.0,0.0,0.0,0.0,0.9279,1.0003,0.9532,0.9715,0.991,0.9797,0.9792,0.9842,0.0,1.063,1.1213,1.1825,1.2313,1.2514,1.234,1.1412,1.0842,1.0871,1.0773,0.0,0.7915,0.5414,0.487,0.6757,0.6117,0.6135,0.6853,0.7319,0.7516,0.7719,0.7931,0.7075,0.5131,0.1607,0.0,0.0,0.0,0.0,0.0,0.0,0.0,0.0,0.0,0.0,0.0,0.0,0.0,0.0,1.0619,1.0448,1.0175,0.9484,0.8816,0.822,0.7634,0.8019,0.841,0.8474,0.8847,0.9329,0.9824,0.9721,0.9831,1.0067,0.976,0.9297,0.8933,0.88,0.8519,0.8092,0.8233,0.8398,0.8609,0.8788,0.9058,0.939,0.9856,1.0077,1.0167,1.0481,1.0852,1.1166,1.112,1.0662,0.9874,0.9295,0.8909,0.8683,0.8572,0.859,0.8572,0.7884,0.7685,0.775,0.0,0.755,0.7692,0.778,0.7916,0.8011,0.7862,0.7799,0.7829,0.8215,0.791,0.7628,0.8313,0.823,0.0,0.8886,0.8444,0.0,0.8483,0.0,0.8289,0.0,0.0,0.9339,0.9407,0.9412,0.9432,0.9477,0.9452,0.96,0.0,1.094,1.1587,1.2083,1.2634,1.2802,1.2341,1.2745,1.2679,1.1946,1.2811,1.236,1.0018,0.8183,0.704,0.6666,0.6785,0.6844,0.6853,0.7224,0.7421,0.7522,0.7828,0.7993,0.7892,0.441,0.1808,0.0,0.0,0.0,0.0,0.0,0.0,0.0,0.0,0.0,0.0,0.0,0.0,0.0,1.0974,1.0762,1.0429,0.9873,0.9054,0.8325,0.7896,0.8454,0.8843,0.8399,0.9008,0.9545,0.9686,0.9961,1.0155,1.0426,1.0371,0.9924,0.9062,0.9348,0.905,0.7909,0.8387,0.8525,0.8147,0.8903,0.9205,0.896,1.0649,1.1219,1.0852,1.1496,1.2019,1.2345,1.1554,1.1217,1.1177,1.0029,0.9247,0.8869,0.8383,0.8333,0.8599,0.8115,0.8178,0.8351,0.778,0.7699,0.7814,0.7821,0.7916,0.8018,0.7868,0.7821,0.7794,0.7658,0.7624,0.7691,0.7746,0.7873,0.8055,0.8066,0.0,0.0,0.0,0.0,0.828,0.0,0.0,0.0,0.9408,0.9013,0.851,0.8344,0.87,0.9466,1.0757,1.1787,1.2594,1.3137,1.2616,1.2356,1.2748,1.3673,1.4406,1.4738,1.6246,1.5732,1.258,1.2541,1.0826,0.6842,0.684,0.6919,0.6919,0.721,0.7366,0.7373,0.7658,0.7814,0.7952,0.7997,0.5227,0.0402,0.0101,0.0,0.0,0.0,0.0,0.0,0.0,0.0,0.0,0.0,0.0,0.0,1.0915,1.1025,1.1091,1.0941,0.9968,0.9004,0.8328,0.8441,0.864,0.8803,0.9262,0.964,1.0179,1.0371,1.0534,1.0643,1.0527,1.0297,0.9958,0.978,0.9439,0.8988,0.8723,0.8652,0.8804,0.9486,0.9959,1.015,1.1286,1.1744,1.1535,1.185,1.2087,1.2233,1.1695,1.1338,1.1087,1.0123,0.9182,0.8391,0.8117,0.8291,0.8572,0.0,0.8291,0.8606,0.797,0.778,0.7828,0.7943,0.8004,0.8031,0.7991,0.7984,0.7977,0.7936,0.795,0.795,0.7801,0.7904,0.8201,0.9129,0.852,0.8146,0.0,0.0,0.0,0.0,0.0,0.0,0.0,0.0,0.9213,0.7822,0.8314,0.9141,0.9908,1.039,1.0884,1.1634,1.2044,1.2785,1.4116,1.384,1.4072,1.5291,1.6033,1.5709,1.4033,1.3042,1.1428,0.8936,0.7454,0.6756,0.6756,0.7054,0.7258,0.7373,0.7448,0.7604,0.7821,0.7979,0.7267,0.5746,0.1709,0.0,0.0,0.0,0.0,0.0,0.0,0.0,0.0,0.0,0.0,0.0,1.1267,1.1437,1.1438,1.0667,1.0205,0.9672,0.8862,0.8559,0.8593,0.896,0.9445,0.9836,1.0054,1.0433,1.0717,1.0717,1.0643,1.0446,1.01,0.9971,0.972,0.93,0.8954,0.8836,0.8864,0.928,0.9721,1.0135,1.1307,1.1958,1.2168,1.2528,1.2614,1.2508,1.1862,1.1521,1.1316,1.0191,0.9418,0.8913,0.8389,0.8479,0.0,0.8328,0.8335,0.8372,0.7979,0.7909,0.7923,0.8011,0.8038,0.8038,0.8038,0.7991,0.795,0.8018,0.7991,0.7936,0.7916,0.7923,0.8112,0.8868,0.8355,0.8033,0.9322,0.8406,0.734,0.0,0.8353,0.9522,0.0,0.0,0.9134,0.7457,0.7647,0.8281,0.8981,0.9249,0.964,1.0485,1.1327,1.2377,1.3751,1.4045,1.4491,1.5241,1.6126,1.5649,0.0,1.3281,1.2289,1.0147,0.8609,0.8645,1.0215,0.8243,0.7768,0.8956,0.7871,0.7495,0.7719,0.7897,0.7923,0.7779,0.3616,0.1106,0.0,0.0,0.0,0.0,0.0,0.0,0.0,0.0,0.0,0.0,1.182,1.1875,1.1586,0.9903,1.0151,1.0308,0.9392,0.8885,0.8742,0.9138,0.9689,1.0017,0.9851,1.0313,1.0717,1.0717,1.0704,1.0466,0.9944,1.012,0.9958,0.93,0.9198,0.896,0.8554,0.8816,0.9199,0.9719,1.1091,1.2055,1.2701,1.3179,1.3218,1.2929,1.2116,1.1625,1.1441,1.017,0.9606,0.963,0.8747,0.8552,0.8863,0.8513,0.8167,0.8038,0.8038,0.8038,0.8038,0.8038,0.8038,0.8038,0.8038,0.7936,0.7834,0.797,0.7916,0.7834,0.795,0.7916,0.7868,0.7878,0.7811,0.778,0.7658,0.7597,0.7482,0.717,0.8313,1.0163,0.0,0.0,0.8328,0.7231,0.709,0.7392,0.8131,0.8411,0.8857,0.9759,1.0618,0.0,1.2535,1.4184,1.5147,1.5056,1.6338,1.5823,0.0,0.0,1.3446,1.1247,1.0014,1.0912,1.3983,0.9596,0.84,1.0418,0.8321,0.7434,0.7604,0.7726,0.7889,0.7872,0.5532,0.2814,0.0,0.0,0.0,0.0,0.0,0.0,0.0,0.0,0.0,0.0,1.2037,1.1967,1.1571,0.991,1.0477,1.0917,1.0108,0.9665,0.9452,0.9621,0.9923,1.0244,1.0296,1.0503,1.0717,1.0717,1.0602,1.0487,1.0378,1.0195,1.0032,0.9897,0.9415,0.9062,0.8866,0.9288,0.9794,1.0586,1.17,1.2591,1.326,1.3389,1.3142,1.2559,1.2067,1.1176,0.9945,0.9862,0.9266,0.8472,0.8175,0.8133,0.8153,0.8126,0.8069,0.8038,0.8038,0.8038,0.8038,0.8038,0.8038,0.8038,0.8038,0.7936,0.7814,0.7841,0.7834,0.7794,0.7699,0.7834,0.7878,0.7576,0.7627,0.7801,0.7876,0.7584,0.7204,0.7144,0.812,0.8733,0.7816,0.0,0.0,0.713,0.7314,0.7507,0.7918,0.8412,0.9128,1.0089,1.0349,1.0985,1.225,1.3697,1.4893,1.5727,1.6468,1.693,0.0,0.0,1.4822,0.0,1.1407,0.9903,0.0,0.0,0.7457,0.8012,0.7457,0.7326,0.7597,0.7624,0.7801,0.7985,0.7472,0.4533,0.0,0.0,0.0,0.0,0.0,0.0,0.0,0.0,0.0,0.0,1.2688,1.2445,1.1897,1.0407,1.0695,1.1016,1.0523,1.014,1.001,0.9953,0.999,1.0081,1.0201,1.0445,1.069,1.0609,1.0534,1.0426,1.027,1.0127,1.0012,0.9937,0.951,0.9171,0.8947,0.8914,0.9605,1.1067,0.0,0.0,0.0,1.3262,1.2852,1.2469,1.148,1.0717,1.005,0.9389,0.8854,0.8559,0.8118,0.8038,0.8038,0.8038,0.8038,0.8038,0.8038,0.8038,0.8038,0.8038,0.8038,0.8038,0.8038,0.7882,0.7719,0.7787,0.7604,0.749,0.7597,0.7645,0.7712,0.7594,0.7597,0.7604,0.778,0.7529,0.7255,0.7085,0.8255,0.8845,0.7688,0.7254,0.0,0.0,0.0,0.0,0.7597,0.7407,0.7633,0.8958,0.9801,1.0645,1.1541,1.3129,1.4598,1.5815,1.5925,1.6239,1.6939,0.0,1.5835,0.0,0.0,0.0,1.3929,0.0,0.85,1.0965,0.843,0.738,0.7604,0.7678,0.7848,0.7879,0.6548,0.524,0.394,0.1111,0.0,0.0,0.0,0.0,0.0,0.0,0.0,0.0,1.3332,1.2878,1.2229,1.1284,1.1036,1.093,1.0622,1.0576,1.0353,1.0232,1.0195,1.0195,1.0195,1.0507,1.067,1.0555,1.048,1.0344,1.0114,1.0039,0.9944,0.9829,0.9537,0.9259,0.8988,0.8513,0.9123,1.0897,0.0,0.0,0.0,1.2984,1.2563,1.2111,1.0929,1.0255,0.0,0.0,0.8543,0.859,0.8174,0.8038,0.8038,0.8038,0.8038,0.8038,0.8038,0.8038,0.8038,0.8038,0.8038,0.8038,0.8038,0.7938,0.7719,0.7733,0.7483,0.7112,0.7423,0.7489,0.7475,0.7706,0.7563,0.74,0.7522,0.7434,0.7285,0.7163,0.8113,0.8811,0.8285,0.8069,0.0,0.0,0.0,0.0,0.0,0.6588,0.6465,0.7948,0.9358,1.0426,1.0793,1.2465,1.4146,1.5728,1.5551,1.55,1.584,0.0,0.0,0.0,0.0,1.5226,1.7344,0.0,0.9711,1.2857,0.9198,0.7502,0.7651,0.7767,0.7811,0.7872,0.5741,0.5445,0.5972,0.1716,0.0,0.0,0.0,0.0,0.0,0.0,0.0,0.0,1.3695,1.298,1.2579,1.2659,1.1634,1.0728,1.0689,1.0643,1.0703,1.0671,1.0656,1.0656,1.0656,1.0697,1.0717,1.0704,1.0453,1.029,1.0263,0.9998,0.9836,0.9822,0.9537,0.9306,0.9137,0.8567,0.8706,0.9703,0.0,1.094,0.0,0.0,1.2391,1.115,0.0,0.0,0.0,0.8782,0.8521,0.7876,0.7963,0.8038,0.8038,0.8038,0.8038,0.8038,0.8038,0.8038,0.8038,0.8038,0.8038,0.8038,0.8038,0.7938,0.7893,0.7712,0.7403,0.7093,0.7106,0.729,0.7396,0.7416,0.7396,0.7464,0.7576,0.7368,0.7156,0.7143,0.7231,0.7298,0.7243,0.6722,0.6099,0.0,0.0,0.0,0.0,0.7007,0.748,0.8366,0.9461,1.0195,1.0362,1.1612,1.3429,1.5802,1.6149,1.6136,0.0,0.0,0.0,1.6146,1.6958,1.6311,1.3962,1.1611,0.9683,0.8261,0.7809,0.7651,0.7794,0.7724,0.7831,0.7992,0.7704,0.5056,0.0707,0.0202,0.0,0.0,0.0,0.0,0.0,0.0,0.0,0.0,1.5701,1.4815,1.4083,1.4381,1.3379,1.2143,1.1059,1.0763,1.0679,1.067,1.0717,1.0717,1.0717,1.0636,1.0548,1.0466,1.0263,1.01,1.0012,0.989,0.9822,0.9822,0.9625,0.9401,0.9157,0.8743,0.8981,0.0,0.0,0.0,0.0,0.0,0.0,0.0,0.0,0.9275,0.9,0.8475,0.8137,0.7957,0.8018,0.8038,0.8038,0.8038,0.8038,0.8038,0.8038,0.8038,0.8038,0.8038,0.8038,0.8038,0.8038,0.8,0.791,0.7624,0.7303,0.7073,0.7072,0.7255,0.7369,0.727,0.7322,0.7464,0.7556,0.7348,0.7143,0.7143,0.7143,0.7143,0.7143,0.682,0.6569,0.6315,0.0,0.0,0.0,0.7075,0.7131,0.9357,0.9465,0.9464,0.9606,1.1634,1.3741,1.5802,1.607,1.7039,0.0,0.0,0.0,1.5836,0.0,1.4459,1.1874,1.1118,1.0395,0.9623,0.8311,0.7753,0.7814,0.7818,0.7093,0.5536,0.3934,0.2019,0.0,0.0,0.0,0.0,0.0,0.0,0.0,0.0,0.0,0.0,1.7371,1.6747,1.5602,1.4361,1.3341,1.2429,1.1159,1.0871,1.0717,1.0717,1.0717,1.0717,1.0717,1.0622,1.0521,1.0419,1.0229,1.0073,0.9964,0.9869,0.9822,0.9822,0.9686,0.951,0.9293,0.8954,0.9108,0.9711,1.0333,0.0,0.0,0.0,0.0,0.0,0.909,0.8815,0.8866,0.8144,0.7943,0.8038,0.8038,0.8038,0.8038,0.8038,0.8038,0.8038,0.8038,0.8038,0.8038,0.8038,0.8038,0.8038,0.8038,0.8034,0.798,0.7543,0.733,0.7217,0.7251,0.7319,0.7428,0.7289,0.7275,0.736,0.741,0.7307,0.7143,0.7143,0.7143,0.7143,0.7143,0.7143,0.7014,0.6791,0.0,0.0,0.0,0.7527,0.7377,0.9978,1.0364,1.0176,0.9529,1.1665,1.396,1.6198,1.618,0.0,0.0,0.0,0.0,0.0,0.0,0.0,1.2236,1.2403,1.1707,1.0064,0.8524,0.7889,0.7889,0.7912,0.6137,0.2714,0.0806,0.0,0.0,0.0,0.0,0.0,0.0,0.0,0.0,0.0,0.0,0.0,1.8346,1.8523,1.6795,1.1639,1.0755,1.076,1.0661,1.0724,1.0717,1.0717,1.0717,1.0717,1.0717,1.0717,1.0717,1.0717,1.0446,1.0276,1.0276,0.9992,0.9822,0.0,0.9686,0.9605,0.9605,0.9164,0.8859,0.8696,0.0,0.0,0.9243,0.0,0.9865,0.8977,0.9017,0.854,0.7814,0.797,0.8038,0.8038,0.8038,0.8038,0.8038,0.8038,0.8038,0.8038,0.8038,0.8038,0.8038,0.8038,0.8038,0.8038,0.8038,0.8034,0.798,0.7739,0.7691,0.7563,0.7597,0.7574,0.7563,0.7597,0.7366,0.7144,0.7088,0.7143,0.7143,0.7143,0.7143,0.7143,0.7143,0.7143,0.7032,0.682,0.0,0.0,0.0,0.8723,0.8794,0.9956,1.2438,1.302,1.0362,1.1553,1.3885,1.7212,1.6608,0.0,0.0,0.0,0.0,1.9941,2.3094,0.0,1.5718,1.6375,1.378,0.7801,0.7984,0.7972,0.7972,0.8006,0.5056,0.0,0.0,0.0,0.0,0.0,0.0,0.0,0.0,0.0,0.0,0.0,0.0,0.0,1.9546,1.8464,1.6777,1.4077,1.1977,1.0637,1.0644,1.0651,1.0717,1.0717,1.0717,1.0717,1.0717,1.0761,1.0699,1.0561,1.0392,1.0283,0.0,1.0086,0.9978,0.9978,0.9836,0.9707,0.9612,0.9266,0.9015,0.8866,0.0,0.0,0.0,0.9059,0.8629,0.8328,0.8292,0.8208,0.797,0.8018,0.8038,0.8038,0.8038,0.8038,0.8038,0.8038,0.8038,0.8038,0.8038,0.8038,0.8038,0.8038,0.8038,0.8038,0.8038,0.8004,0.7936,0.7787,0.7644,0.7712,0.7664,0.7631,0.761,0.7657,0.7698,0.7631,0.7489,0.7373,0.7272,0.7163,0.7143,0.7143,0.7143,0.7143,0.7014,0.6784,0.6679,0.0,0.842,0.0,0.9055,1.071,1.1495,1.1584,1.0581,1.1535,1.3454,1.633,1.5518,0.0,0.0,0.0,0.0,0.0,1.5021,0.0,1.0322,1.2114,1.1305,0.797,0.8024,0.7959,0.7972,0.8012,0.7095,0.5262,0.1615,0.0,0.0,0.0,0.0,0.0,0.0,0.0,0.0,0.0,0.0,0.0,2.024,1.8529,1.6308,1.3797,1.1904,1.0717,1.0717,1.0717,1.0717,1.0717,1.0717,1.0717,1.0717,1.0636,0.0,1.0575,1.0446,1.0337,1.0283,1.0134,1.0025,0.9964,0.9869,0.9781,0.9693,0.9449,0.0,0.9022,0.9373,0.951,0.9436,0.852,0.8092,0.8038,0.8038,0.8038,0.8038,0.8038,0.8038,0.8038,0.8038,0.8038,0.8038,0.8038,0.8038,0.8038,0.8038,0.8038,0.8038,0.8038,0.8038,0.8038,0.8038,0.8038,0.8011,0.7758,0.7751,0.7764,0.7719,0.7787,0.7764,0.7719,0.7842,0.787,0.7631,0.7482,0.7346,0.7244,0.7183,0.7143,0.7143,0.7143,0.7082,0.6898,0.7021,0.7436,0.8299,0.0,0.9092,1.1052,1.1496,0.0,0.0,1.1433,1.2662,0.0,1.5139,0.0,0.0,0.0,0.0,1.349,1.3427,1.2119,0.9339,1.1211,1.0743,0.8038,0.7952,0.6942,0.5027,0.4947,0.4956,0.4855,0.1414,0.0,0.0,0.0,0.0,0.0,0.0,0.0,0.0,0.0,0.0,0.0,2.0483,1.8678,1.5681,0.0,1.0747,0.0,1.0717,1.0717,1.0717,1.0717,1.0717,1.0717,1.0717,1.0717,1.0717,1.0717,0.0,0.0,1.0304,1.0141,0.9985,0.9842,0.9829,0.9822,0.9822,0.968,0.9462,0.915,0.8723,0.8438,0.8303,0.8282,0.8194,0.8058,0.8045,0.8038,0.8038,0.8038,0.8038,0.8038,0.8038,0.8038,0.8038,0.8038,0.8038,0.8038,0.8038,0.8038,0.8038,0.8038,0.8038,0.8038,0.8038,0.8038,0.8011,0.7868,0.7929,0.8011,0.7868,0.7929,0.8004,0.7966,0.7828,0.7691,0.7746,0.7602,0.7394,0.7373,0.7258,0.7149,0.7143,0.7143,0.7143,0.7143,0.7129,0.748,0.8732,0.8479,0.9,1.1178,0.0,0.0,1.1041,1.1086,1.1617,0.0,0.0,0.0,0.0,0.0,1.5491,1.5308,1.6415,1.5233,1.1594,1.2713,1.1516,0.8045,0.7972,0.534,0.0503,0.0202,0.0,0.0,0.0,0.0,0.0,0.0,0.0,0.0,0.0,0.0,0.0,0.0,0.0,0.0,0.0,0.0,1.5584,1.3708,1.1833,1.0717,1.0717,1.0717,1.0717,1.0717,1.0717,1.0717,1.0717,1.0717,1.0717,1.0717,1.0582,1.048,1.0446,1.0195,1.0032,0.9998,0.9883,0.9822,0.9822,0.968,0.9462,0.915,0.8933,0.8757,0.8601,0.8377,0.8248,0.8208,0.8092,0.8038,0.8038,0.8038,0.8038,0.8038,0.8038,0.8038,0.8038,0.8038,0.8038,0.8038,0.8038,0.8038,0.8038,0.8038,0.8038,0.8038,0.8038,0.8038,0.8031,0.7997,0.8011,0.8031,0.7997,0.8011,0.8031,0.7997,0.7984,0.7943,0.7794,0.7733,0.7645,0.7414,0.7346,0.7278,0.7163,0.7143,0.7143,0.7143,0.7048,0.7861,1.056,0.9507,0.9416,0.0,1.1477,1.0568,1.0048,0.935,0.9891,0.0,0.0,0.9996,1.1172,1.0317,0.9714,0.9601,0.9914,0.9741,0.8879,0.9153,0.894,0.7965,0.7979,0.7384,0.5967,0.1817,0.0,0.0,0.0,0.0,0.0,0.0,0.0,0.0,0.0,0.0,0.0,0.0,0.0,0.0,2.0441,1.8536,1.6551,1.5197,1.262,1.0677,1.0717,1.0717,1.0717,1.0717,1.0717,1.0717,1.0717,1.0717,1.0717,1.0717,1.0582,1.046,1.027,1.0175,1.0019,0.9944,0.9863,0.9822,0.9822,0.9747,0.9557,0.9259,0.9042,0.8859,0.871,0.8547,0.8431,0.8364,0.8275,0.8208,0.8147,0.8147,0.8106,0.8038,0.8038,0.8038,0.8038,0.8038,0.8038,0.8038,0.8038,0.8038,0.8038,0.8038,0.8038,0.8038,0.8038,0.8038,0.8038,0.8038,0.8038,0.8038,0.8038,0.8038,0.8038,0.8038,0.8038,0.8018,0.7936,0.7862,0.7767,0.7705,0.7561,0.7346,0.7258,0.719,0.7143,0.7143,0.7547,0.8506,0.9944,0.9321,0.9468,1.1491,1.0525,0.9626,0.9657,0.9108,0.9138,0.9857,0.9798,0.0,0.9439,1.0047,0.9519,0.7668,0.7833,0.7923,0.7936,0.8004,0.7952,0.7972,0.6753,0.677,0.7818,0.2423,0.0,0.0,0.0,0.0,0.0,0.0,0.0,0.0,0.0,0.0,0.0,0.0,0.0,0.0,2.0227,1.9087,1.7564,1.6131,1.3257,1.103,1.0711,1.0717,1.0717,1.0717,1.0717,1.0717,1.0717,1.0717,1.0717,1.0717,1.0561,1.0405,1.0156,0.9988,0.9958,0.9829,0.9822,0.9822,0.9822,0.9802,0.9652,0.9381,0.9103,0.8893,0.8743,0.8723,0.8642,0.8513,0.8492,0.8418,0.8303,0.8282,0.8194,0.8072,0.8052,0.8038,0.8038,0.8038,0.8038,0.8038,0.8038,0.8038,0.8038,0.8038,0.8038,0.8038,0.8038,0.8038,0.8038,0.8038,0.8038,0.8038,0.8038,0.8038,0.8038,0.8038,0.8038,0.8038,0.8038,0.7936,0.7841,0.7918,0.7712,0.7421,0.738,0.7265,0.7061,0.6724,0.7727,0.8515,0.8493,0.0,0.8902,1.0384,0.9611,0.8966,0.9155,0.9209,0.8661,0.7506,1.0296,1.0694,0.771,1.0807,1.1178,0.7901,0.7963,0.7977,0.7848,0.7977,0.8065,0.8006,0.5249,0.4956,0.6608,0.2028,0.0,0.0,0.0,0.0,0.0,0.0,0.0,0.0,0.0,0.0,0.0,0.0,0.0,0.0,2.0227,1.9087,1.7564,1.6131,1.4214,1.2397,1.0982,1.0717,1.0717,1.0717,1.0717,1.0717,1.0717,1.0717,1.0717,1.0717,1.0473,1.0304,1.0283,1.0012,0.9842,0.9822,0.9822,0.9822,0.9822,0.97,0.9557,0.9381,0.9205,0.9049,0.8899,0.8771,0.8696,0.8669,0.854,0.8472,0.8438,0.8323,0.8255,0.8221,0.8092,0.8038,0.8038,0.8038,0.8038,0.8038,0.8038,0.8038,0.8038,0.8038,0.8038,0.8038,0.8038,0.8038,0.8038,0.8038,0.8038,0.8038,0.8038,0.8038,0.8038,0.8038,0.8038,0.8038,0.8038,0.8024,0.797,0.7841,0.7773,0.7665,0.7414,0.7353,0.6751,0.4756,0.4941,0.609,0.8366,0.0,0.6902,1.1237,0.9365,0.7724,0.7695,0.7688,0.7643,0.74,0.808,0.8363,0.8066,0.8572,0.8655,0.8119,0.8005,0.8031,0.8004,0.8024,0.8113,0.8255,0.5346,0.2981,0.1236,0.0413,0.0,0.0,0.0,0.0,0.0,0.0,0.0,0.0,0.0,0.0,0.0,0.0,0.0,0.0,2.0468,1.9944,1.9099,1.7558,1.5913,1.4101,1.2413,1.124,1.0717,1.0717,1.0717,1.0717,1.0717,1.0717,1.0717,1.0717,1.0582,1.041,1.0015,0.9868,0.9822,0.9822,0.9822,0.9788,0.9707,0.9483,0.9367,0.9381,0.915,0.9042,0.9049,0.8899,0.8832,0.8832,0.9608,0.9419,0.8701,0.9265,0.905,0.8255,0.8099,0.8038,0.8038,0.8038,0.8038,0.8038,0.8038,0.8038,0.8038,0.8038,0.8038,0.8038,0.8038,0.8038,0.8038,0.8038,0.8038,0.8038,0.8038,0.8038,0.8038,0.8038,0.8038,0.8038,0.8038,0.8038,0.8018,0.795,0.7868,0.7671,0.7537,0.7382,0.688,0.5823,0.3936,0.0,0.0,0.7015,0.881,1.0506,0.8854,0.7522,0.759,0.7503,0.7563,0.7704,0.7711,0.7809,0.8073,0.8058,0.8052,0.8056,0.7987,0.8038,0.8038,0.8038,0.8085,0.8174,0.6934,0.4888,0.2136,0.0612,0.0,0.0,0.0,0.0,0.0,0.0,0.1894,0.4763,0.4815,0.2877,0.0222,0.1785,0.1344,0.0,2.0681,2.0681,2.025,1.8721,1.7345,1.5913,1.4232,1.2413,1.1101,1.0697,1.0711,1.0717,1.0717,1.0717,1.0717,1.0717,1.0718,1.0538,1.0015,0.9868,0.9822,0.9822,0.9822,0.9768,0.9659,0.9361,0.9279,0.9435,0.9103,0.9035,0.9198,0.9055,0.9099,0.9536,1.0626,1.0397,0.9233,1.0355,0.976,0.8262,0.814,0.8072,0.8038,0.8038,0.8038,0.8038,0.8038,0.8038,0.8038,0.8038,0.8038,0.8038,0.8038,0.8038,0.8038,0.8038,0.8038,0.8038,0.8038,0.8038,0.8038,0.8038,0.8038,0.8038,0.8038,0.8038,0.8038,0.8038,0.7845,0.7751,0.7717,0.753,0.7232,0.7091,0.0,0.0,0.0,0.6477,0.9572,0.92,0.8253,0.7665,0.7794,0.7706,0.7746,0.7959,0.7862,0.7818,0.8031,0.8038,0.8038,0.8038,0.8038,0.8038,0.8038,0.8038,0.8085,0.8066,0.8147,0.7113,0.4883,0.2838,0.1212,0.0,0.0,0.0,0.0,0.0,0.3465,0.8934,0.8872,0.6088,0.2234,0.391,0.3469,0.2017,2.0681,2.0681,2.025,1.8721,1.8372,1.7731,1.5913,1.4232,1.2513,1.0878,1.0677,1.0717,1.0717,1.0717,1.0717,1.0717,1.0718,1.0672,1.0672,1.0122,0.9822,0.9822,0.9822,0.9815,0.9802,0.9517,0.9435,0.9347,0.927,0.9202,0.9238,0.9205,0.9912,1.1131,1.1234,1.1042,1.0715,1.0805,0.9878,0.8269,0.8255,0.8167,0.8038,0.8038,0.8038,0.8038,0.8038,0.8038,0.8038,0.8038,0.8038,0.8038,0.8038,0.8038,0.8038,0.8038,0.8038,0.8038,0.8038,0.8038,0.8038,0.8038,0.8038,0.8038,0.8038,0.8038,0.8038,0.8038,0.8031,0.7878,0.7738,0.7794,0.7792,0.7222,0.0,0.0,0.1283,0.3225,0.553,0.759,0.7773,0.7848,0.7991,0.8011,0.8011,0.8024,0.8024,0.8024,0.8038,0.8038,0.8038,0.8038,0.8038,0.8038,0.8038,0.8038,0.818,0.8452,0.813,0.804,0.7941,0.762,0.4708,0.0,0.0,0.0,0.0,0.0,0.3465,0.8934,0.8872,0.8666,0.7979,0.5373,0.6056,0.7879,2.0949,2.0949,2.0724,2.0182,1.9164,1.8244,1.7602,1.6043,1.4344,1.2497,1.2668,1.2305,1.085,1.0717,1.0717,1.0717,1.0582,1.041,1.0149,0.9868,0.9822,0.9822,0.9861,0.9693,0.9566,0.9483,0.9339,0.9242,0.934,0.9435,0.9399,0.9266,0.9934,1.1363,1.2128,1.1991,1.1099,1.1824,1.0737,0.8533,0.8438,0.837,0.8303,0.8113,0.8031,0.818,0.8006,0.7999,0.7978,0.7978,0.8019,0.7952,0.8046,0.8012,0.8038,0.8038,0.8038,0.7959,0.7951,0.8012,0.8038,0.8038,0.8038,0.8038,0.8038,0.8038,0.8038,0.8038,0.8038,0.8024,0.7865,0.7973,0.7942,0.7667,0.0,0.6306,0.5394,0.6074,0.6944,0.7794,0.7896,0.7977,0.8031,0.8038,0.8038,0.8038,0.8038,0.8038,0.8038,0.8038,0.8038,0.8038,0.8038,0.8038,0.8038,0.8133,0.8241,0.835,0.82,0.8206,0.8253,0.8126,0.69,0.4826,0.3213,0.2511,0.2515,0.2433,0.4834,0.8515,0.857,0.8635,0.8736,0.7598,0.7889,0.8555,2.1096,2.1109,2.1109,2.1109,2.0068,1.9291,1.9291,1.7859,1.6302,1.5135,1.4493,1.3316,1.0948,1.1615,1.2274,1.2111,1.1027,1.0195,0.979,0.9828,0.9822,0.9822,0.9847,0.968,0.9553,0.953,0.9496,0.9334,0.9518,0.9613,0.9621,0.936,0.9785,1.0779,1.2659,1.2999,1.2262,1.2461,1.1061,0.8635,0.8574,0.8526,0.8472,0.8267,0.8183,0.8243,0.8146,0.8037,0.802,0.802,0.816,0.8302,0.809,0.816,0.818,0.8079,0.8079,0.8099,0.8097,0.8153,0.8167,0.8019,0.8012,0.7999,0.8052,0.7972,0.7999,0.8052,0.7979,0.8012,0.8113,0.8131,0.8109,0.8009,0.802,0.7996,0.8004,0.7989,0.7986,0.7986,0.7977,0.8038,0.8038,0.8038,0.8038,0.8038,0.8038,0.8038,0.8038,0.8038,0.8065,0.8113,0.8065,0.8065,0.8113,0.8214,0.8296,0.8336,0.8336,0.8364,0.8404,0.8221,0.8039,0.7932,0.6052,0.5227,0.5231,0.5367,0.6545,0.8296,0.8343,0.8618,0.8845,0.8716,0.8832,0.8654,2.1056,2.1109,2.1109,2.1109,2.1109,2.1109,2.1109,1.9674,1.8512,1.8512,1.5982,1.3345,1.0995,1.3778,1.5604,1.51,1.2389,1.0514,0.9821,0.9863,0.9822,0.9822,0.9822,0.9822,0.9822,0.9806,0.9815,0.9863,0.986,0.9894,0.986,0.9582,0.9391,0.9615,1.2349,1.4004,1.4585,1.2625,1.0485,0.8499,0.8648,0.8515,0.8269,0.8479,0.8374,0.8269,0.8269,0.8157,0.8052,0.8052,0.8374,0.8808,0.8479,0.8374,0.8479,0.8374,0.8269,0.8374,0.8486,0.8591,0.8556,0.8097,0.7955,0.8018,0.7979,0.7958,0.8018,0.7972,0.7958,0.8064,0.8269,0.8275,0.8269,0.8057,0.7955,0.8004,0.7959,0.8038,0.8038,0.8038,0.8038,0.8038,0.8038,0.8038,0.8038,0.8038,0.8038,0.8038,0.8038,0.8038,0.8113,0.8262,0.8119,0.8113,0.8269,0.8269,0.8343,0.8479,0.8479,0.856,0.8696,0.8404,0.8173,0.7962,0.8032,0.7979,0.7999,0.8364,0.8412,0.8303,0.8556,0.8594,0.871,0.871,0.8818,0.8856,2.1056,2.1109,2.1109,2.1109,2.1109,2.1109,2.1109,2.0716,1.9941,1.864,1.8828,1.7787,1.4707,1.5944,1.6668,1.5395,1.4461,1.3665,1.3241,1.3186,1.2166,0.9919,0.984,0.9747,0.9747,0.9794,1.0646,1.257,1.4417,1.4313,1.252,1.0331,1.0802,1.3287,1.1259,1.163,1.3675,1.3783,1.1891,0.8913,0.993,0.9697,0.8682,0.8682,0.871,0.8662,0.8448,0.8441,0.8535,0.8094,0.8355,0.8808,0.8591,0.8479,0.8479,0.8479,0.8479,0.8506,0.8721,0.8642,0.8608,0.8668,0.8418,0.8294,0.8364,0.8384,0.8404,0.8364,0.817,0.8099,0.8418,0.8633,0.8633,0.8418,0.8123,0.8044,0.8208,0.8106,0.8038,0.8038,0.8038,0.8038,0.8038,0.8038,0.8038,0.8038,0.8038,0.8038,0.8038,0.814,0.8174,0.8113,0.8167,0.8174,0.8106,0.8214,0.8289,0.8336,0.8431,0.8452,0.8397,0.8309,0.8214,0.8006,0.7965,0.7952,0.7959,0.8106,0.8187,0.8269,0.8208,0.8397,0.8696,0.8587,0.8716,0.8947,2.1056,2.1109,2.1109,2.1109,2.1109,2.1109,2.1109,2.1109,2.0716,1.9674,2.0412,2.0029,1.7216,1.8162,1.8291,1.6495,1.6161,1.6112,1.6465,1.572,1.4728,1.3589,1.3599,1.3627,1.3555,1.3613,1.4159,1.5292,1.6822,1.6815,1.5177,1.3477,1.3878,1.5881,1.3434,1.3295,1.4909,1.3156,1.1538,1.0009,1.0162,0.9699,0.8927,0.8832,0.8859,0.8913,0.8622,0.8723,0.8804,0.8464,0.8629,0.8883,0.8662,0.8662,0.8662,0.8662,0.8662,0.8682,0.8886,0.8798,0.8777,0.8904,0.8728,0.8554,0.8492,0.8533,0.8666,0.8604,0.8421,0.8461,0.8574,0.868,0.868,0.8574,0.8394,0.8314,0.8253,0.8275,0.8194,0.814,0.8133,0.8106,0.8045,0.8038,0.8038,0.8038,0.8099,0.8133,0.8133,0.8275,0.8336,0.8303,0.8282,0.8255,0.8214,0.8187,0.8208,0.8275,0.8418,0.8438,0.835,0.8296,0.8248,0.8214,0.8153,0.8133,0.8133,0.8194,0.8235,0.8262,0.8167,0.833,0.8601,0.8452,0.8587,0.8852,2.1056,2.1109,2.1109,2.1109,2.1109,2.1109,2.1109,2.1109,2.1109,2.1109,2.1109,2.0462,1.8896,2.0195,2.0242,1.8066,1.7542,1.788,1.9298,1.7587,1.7399,1.9259,1.9377,1.9377,1.9391,1.9365,1.8881,1.7715,1.7666,1.7626,1.7611,1.7694,1.7637,1.7631,1.7624,1.7637,1.7275,1.2037,1.061,1.181,0.9987,0.9161,0.894,0.894,0.8947,0.8843,0.8947,0.8947,0.8843,0.894,0.894,0.894,0.894,0.894,0.894,0.894,0.894,0.894,0.894,0.894,0.894,0.894,0.8948,0.8804,0.8441,0.8628,0.8804,0.8659,0.8742,0.8845,0.873,0.8622,0.8622,0.8622,0.8608,0.8662,0.8414,0.8486,0.8431,0.8303,0.8275,0.8214,0.8072,0.8058,0.7965,0.8079,0.8316,0.8398,0.8289,0.8411,0.854,0.8669,0.8425,0.8343,0.8465,0.8194,0.8126,0.8248,0.8397,0.8459,0.8438,0.8336,0.835,0.8459,0.833,0.8269,0.8282,0.8411,0.8391,0.8289,0.8289,0.8377,0.8486,0.8343,0.8465,0.871,2.1056,2.1109,2.1109,2.1109,2.1109,2.1109,2.1109,2.1109,2.1109,2.1109,2.1109,2.0982,2.0589,2.0843,2.0836,2.0107,1.9546,1.926,1.9426,1.892,1.8933,1.9336,1.9426,1.9426,1.9452,1.9367,1.9166,1.8499,1.7942,1.7694,1.7955,1.8197,1.8222,1.8022,1.7742,1.7569,1.7567,1.73,1.5526,1.2908,1.2531,1.0949,0.894,0.894,0.8897,0.8858,0.887,0.8897,0.8858,0.8863,0.894,0.894,0.894,0.894,0.894,0.894,0.894,0.894,0.894,0.894,0.894,0.894,0.8913,0.8879,0.8736,0.8866,0.8879,0.8845,0.8866,0.8893,0.8893,0.8886,0.8886,0.8886,0.8682,0.8696,0.8776,0.8666,0.8472,0.8438,0.8336,0.8255,0.8221,0.8113,0.816,0.8377,0.8418,0.8438,0.8438,0.8465,0.8445,0.837,0.8411,0.8397,0.8316,0.8255,0.8174,0.8092,0.8241,0.8255,0.814,0.8343,0.8391,0.8316,0.8282,0.8269,0.8275,0.8303,0.8364,0.8438,0.8438,0.8526,0.8642,0.8492,0.8554,0.873,2.1082,2.1109,2.1109,2.1109,2.1109,2.1109,2.1109,2.1109,2.1109,2.1109,2.1109,2.1109,2.1109,2.1109,2.0989,2.0695,2.0147,1.9733,1.9442,1.9439,1.9372,1.9372,1.9372,1.9372,1.9372,1.9206,1.8978,1.8718,1.8277,1.805,1.7793,1.7996,1.8049,1.7929,1.7689,1.7609,1.7434,1.5279,1.365,1.2449,1.1524,1.028,0.894,0.894,0.887,0.8923,0.8856,0.8876,0.8923,0.885,0.894,0.894,0.894,0.894,0.894,0.894,0.894,0.894,0.894,0.894,0.894,0.894,0.894,0.894,0.894,0.894,0.894,0.894,0.894,0.894,0.894,0.894,0.894,0.894,0.8763,0.8818,0.8934,0.875,0.8676,0.8601,0.8526,0.8452,0.8273,0.8267,0.8294,0.8584,0.8659,0.8701,0.8594,0.8662,0.8669,0.8594,0.8587,0.8554,0.8479,0.8411,0.833,0.8248,0.8262,0.8228,0.8153,0.8384,0.8438,0.8377,0.8445,0.8438,0.837,0.837,0.8377,0.8377,0.8303,0.8364,0.8479,0.833,0.8411,0.8635,2.1109,2.1109,2.1109,2.1109,2.1109,2.1109,2.1109,2.1109,2.1109,2.1109,2.1109,2.1109,2.1109,2.1069,2.0922,2.0628,2.0241,1.9773,1.9457,1.9376,1.9372,1.9372,1.9372,1.9372,1.9372,1.9065,1.8685,1.8571,1.8591,1.8293,1.7659,1.762,1.7607,1.7607,1.7607,1.7607,1.7244,1.1882,1.049,1.1661,0.9728,0.894,0.894,0.894,0.8954,0.8863,0.8947,0.894,0.894,0.894,0.894,0.894,0.894,0.894,0.894,0.894,0.894,0.894,0.894,0.894,0.894,0.894,0.894,0.8947,0.8967,0.8954,0.894,0.894,0.894,0.894,0.894,0.894,0.894,0.894,0.894,0.894,0.894,0.894,0.8893,0.8764,0.8723,0.8662,0.8421,0.8414,0.8533,0.8666,0.879,0.8858,0.875,0.8845,0.8899,0.8899,0.8777,0.8817,0.9026,0.9005,0.8948,0.8977,0.882,0.8639,0.8309,0.8459,0.8625,0.8941,0.9076,0.9147,0.9205,0.8996,0.8806,0.8561,0.8254,0.818,0.8255,0.8126,0.8269,0.856,2.1109,2.1109,2.1109,2.1109,2.1109,2.1109,2.1109,2.1109,2.1109,2.1109,2.1109,2.1109,2.1109,2.0882,2.0615,2.0321,2.04,2.0101,1.9439,1.9386,1.9372,1.9372,1.9372,1.9372,1.9372,1.9078,1.8905,1.8865,1.8317,1.805,1.7928,1.7756,1.7635,1.7635,1.7635,1.7635,1.7411,1.4105,1.2361,1.1593,0.9684,0.894,0.894,0.894,0.8903,0.8878,0.887,0.894,0.894,0.894,0.894,0.894,0.894,0.894,0.894,0.894,0.894,0.894,0.894,0.894,0.894,0.894,0.894,0.8974,0.9216,0.914,0.894,0.894,0.894,0.894,0.894,0.894,0.894,0.894,0.894,0.894,0.894,0.894,0.8933,0.8913,0.8791,0.8703,0.8568,0.8568,0.8622,0.8866,0.8899,0.8906,0.8906,0.8804,0.8743,0.8743,0.8723,0.9348,1.0609,1.0584,1.0659,1.0707,1.0625,0.9836,0.8459,0.8608,0.9419,1.0576,1.0601,1.1133,1.1981,1.0845,1.0228,0.9876,0.8784,0.8364,0.8269,0.8248,0.8425,0.8682,2.1109,2.1109,2.1109,2.1109,2.1109,2.1109,2.1109,2.1109,2.1109,2.1109,2.1109,2.1109,2.1109,2.0855,2.0561,2.0254,2.0107,2.001,1.9613,1.9452,1.9372,1.9372,1.9372,1.9372,1.9372,1.9078,1.8838,1.8677,1.825,1.7956,1.7782,1.7649,1.7582,1.7582,1.7582,1.7582,1.7477,1.5079,1.3547,1.2469,0.9859,0.8906,0.894,0.894,0.8863,0.891,0.885,0.894,0.894,0.894,0.894,0.894,0.894,0.894,0.894,0.894,0.894,0.8954,0.9035,0.9055,0.9083,0.9164,0.9117,0.8984,0.9245,0.9398,0.9314,0.9171,0.9055,0.885,0.893,0.8876,0.894,0.894,0.894,0.894,0.894,0.894,0.894,0.894,0.8879,0.8838,0.8729,0.8729,0.8756,0.8933,0.894,0.894,0.894,0.8872,0.8838,0.8838,0.8838,0.9479,1.0983,1.0983,1.1025,1.1109,1.1025,1.0138,0.8615,0.8771,0.9537,1.0937,1.0932,1.1239,1.1465,1.0949,1.0067,0.8937,0.8411,0.8194,0.816,0.833,0.8472,0.8608]}]]